GFSMW_850_thetae_000.txt.gz
Theta_e
320 320 320 321 322 322 323 324 323 323 323 323 323 323 322 322 323 324 325 326 328 329 330 330 329 327 326 324 324 323 321 321 320 321 320 320 319 319 316 311 311 310 309
317 316 316 316 318 321 322 323 323 323 324 323 324 324 324 324 324 324 324 324 325 327 329 330 330 329 327 326 325 325 324 322 322 320 321 320 319 319 317 314 313 312 311
315 315 315 318 318 317 320 321 322 323 323 323 323 324 324 324 323 322 321 321 323 325 327 329 330 331 330 328 327 326 324 324 323 321 321 320 319 318 316 315 315 314 316
316 316 316 317 318 318 318 321 322 322 322 322 323 324 323 323 320 320 320 321 321 322 324 326 329 330 330 329 328 328 326 326 325 323 322 321 320 320 319 319 318 317 317
318 318 317 316 316 318 319 321 323 323 323 322 323 322 322 322 320 320 320 321 322 322 324 326 326 325 327 328 328 328 328 327 326 324 323 322 321 320 320 319 319 319 318
319 317 318 319 317 317 317 318 319 319 319 319 320 320 320 320 320 320 320 321 322 321 322 324 325 323 321 323 326 328 328 327 326 325 325 323 322 321 320 320 319 319 318
319 317 318 318 319 318 316 316 317 317 317 317 317 318 319 319 319 319 319 320 321 320 320 322 323 320 318 318 320 326 327 327 327 326 325 325 324 323 321 320 320 319 319
318 317 317 317 317 317 317 316 317 317 317 316 317 317 318 319 321 326 327 327 327 325 324 323 324 324 322 321 321 322 324 326 326 326 326 325 325 324 324 322 320 320 319
317 316 316 316 316 316 316 317 317 317 317 317 316 316 316 317 317 317 318 320 320 320 320 320 319 320 322 323 322 321 321 323 326 326 326 326 325 325 325 325 323 321 321
315 314 315 316 316 316 316 316 316 316 316 316 316 316 315 315 315 316 317 317 317 317 317 317 318 318 319 320 323 322 321 322 323 325 327 327 326 326 326 326 325 324 323
315 314 314 314 315 315 315 315 315 315 315 315 315 314 314 315 315 315 315 315 316 316 317 317 317 316 316 316 318 319 320 322 322 323 325 327 327 326 326 326 326 325 324
314 314 314 314 314 314 314 314 314 314 314 314 314 314 314 314 314 313 313 314 314 315 315 315 315 316 317 317 318 318 318 320 321 321 323 326 327 327 327 327 326 325 325
315 315 314 314 314 314 314 314 314 314 314 314 314 313 313 314 315 315 315 314 313 312 312 313 314 314 315 316 316 318 319 318 319 321 322 322 325 326 327 327 326 325 324
314 315 315 315 315 314 314 313 313 313 313 313 313 313 313 313 313 313 313 314 314 315 315 313 312 312 313 315 315 317 319 317 318 319 321 322 324 324 326 327 326 325 324
314 314 313 312 313 313 313 312 311 311 311 311 311 312 312 312 313 313 313 313 313 313 313 314 315 315 313 313 314 316 317 318 318 320 319 321 322 324 325 327 326 325 325
312 312 312 312 312 314 313 313 313 312 312 312 312 311 312 312 312 312 312 312 313 313 313 313 314 315 315 315 312 313 317 320 320 322 320 320 321 322 325 327 327 324 324
311 311 312 313 313 314 313 311 311 311 311 309 309 308 308 308 309 310 311 312 312 312 312 313 313 313 314 315 312 312 313 318 317 317 323 322 322 322 322 326 326 323 324
310 311 312 313 313 312 312 308 306 306 308 308 307 306 306 306 306 306 307 308 309 310 311 312 312 313 313 314 313 311 313 314 316 319 319 322 322 322 322 324 326 322 321
311 312 311 311 309 308 309 306 306 305 306 306 306 306 305 305 305 305 305 305 306 307 308 309 311 313 313 313 314 312 311 313 315 318 315 318 322 320 321 324 324 323 322
308 309 310 309 309 307 305 304 303 303 302 303 303 303 303 302 302 302 303 303 304 305 306 307 309 310 312 313 313 312 311 313 313 315 317 318 319 321 322 324 325 325 324
305 306 305 304 303 302 300 299 298 298 298 298 298 298 298 297 297 298 300 301 302 303 304 305 307 308 309 311 312 313 311 313 315 314 315 317 319 321 321 323 326 326 324
304 303 300 298 296 295 295 294 295 295 295 296 295 295 295 295 296 295 297 299 300 301 302 303 304 305 306 308 310 311 311 311 313 314 318 317 318 320 321 321 325 323 322
298 297 296 295 294 293 293 292 292 291 291 291 292 292 291 292 293 293 294 296 298 298 299 299 299 301 303 306 308 308 309 309 311 312 313 317 319 320 321 318 323 323 320
295 294 292 291 290 289 289 289 288 289 289 290 290 290 289 290 291 291 291 293 294 296 296 295 294 296 301 303 305 307 307 310 309 312 313 315 317 318 318 313 315 318 317
289 288 288 288 287 287 287 287 287 287 288 288 288 289 288 289 290 290 290 291 291 291 290 290 293 293 293 300 302 305 306 307 308 311 311 312 313 312 307 307 311 312 312
288 287 286 286 286 286 286 286 286 286 286 287 287 287 287 288 289 289 289 289 289 289 289 289 290 292 291 294 301 304 307 307 309 311 309 310 310 310 310 310 309 308 309

GFSMW_850_thetae_003.txt.gz
Theta_e
319 319 320 321 323 323 325 326 326 326 329 330 328 324 321 322 322 321 322 324 326 327 327 328 330 330 329 327 325 325 324 324 323 322 322 322 321 320 319 318 317 315 312
318 318 318 318 317 319 321 323 325 326 326 329 330 331 330 328 325 323 322 323 324 325 327 327 328 330 330 329 328 326 326 325 324 323 322 321 320 320 320 321 320 318 318
320 318 318 318 318 318 318 320 322 325 326 327 328 329 330 330 328 324 323 323 325 325 326 326 328 329 331 330 330 328 327 326 325 324 323 321 320 319 319 320 319 314 313
320 319 319 318 317 317 318 318 319 322 324 325 326 324 324 326 323 324 324 324 324 323 323 324 326 328 329 330 330 330 329 328 327 326 325 323 321 321 320 319 319 318 317
320 319 319 318 316 316 316 317 317 318 319 321 323 326 327 328 328 330 329 329 329 327 324 324 326 326 327 328 328 330 330 330 328 327 326 325 324 322 322 321 320 320 319
320 318 318 318 318 317 316 316 316 317 317 317 317 319 324 327 328 328 328 328 329 329 329 328 328 328 328 328 328 329 328 329 328 328 327 326 324 323 322 321 320 320 319
319 318 318 318 318 318 318 317 317 317 317 316 317 319 320 321 321 322 325 327 328 329 328 328 325 324 324 325 325 325 324 324 328 327 327 327 326 325 323 322 321 320 320
319 318 318 318 318 319 319 318 318 318 318 318 317 316 316 318 322 326 328 328 329 329 330 331 328 325 326 326 327 326 322 321 323 326 326 327 327 326 325 324 322 321 321
317 317 317 318 318 318 318 318 318 318 318 317 317 316 316 314 314 316 321 323 326 327 328 329 331 330 329 328 329 328 326 325 325 324 321 322 325 326 325 325 324 323 322
317 317 317 317 317 317 317 317 316 316 316 316 316 316 315 315 314 314 314 315 317 320 322 324 326 328 329 329 329 330 329 328 327 326 325 323 321 324 326 325 325 324 324
317 317 317 316 316 316 316 316 316 316 316 315 315 315 315 314 315 315 314 314 313 314 314 317 320 322 324 326 327 328 328 329 328 328 327 326 323 324 325 325 325 324 324
317 317 316 316 317 316 316 316 315 315 315 315 315 315 315 315 314 314 314 314 314 314 314 314 314 314 316 319 323 325 326 327 328 327 328 326 324 324 324 324 324 325 324
317 317 317 317 316 316 316 315 314 314 314 314 313 314 314 314 314 314 314 314 314 314 313 313 313 313 314 314 314 316 320 324 325 326 326 326 327 326 324 324 324 325 324
316 316 315 314 314 314 315 314 313 313 313 312 313 313 313 312 311 310 310 310 311 312 313 314 314 314 314 314 314 315 316 318 321 324 323 326 326 326 325 324 323 324 324
316 315 313 313 312 312 314 314 313 313 313 312 312 312 311 310 308 307 307 308 308 309 310 312 312 313 314 315 315 315 315 315 316 320 322 324 323 326 325 324 324 322 322
313 312 312 312 312 313 314 312 312 310 309 309 309 309 308 307 306 306 305 305 305 306 307 309 311 313 314 314 314 315 314 314 313 314 318 322 320 324 325 324 324 323 322
312 311 311 311 312 313 311 310 308 306 306 306 307 306 305 305 304 305 305 306 306 306 307 308 309 310 310 311 313 314 313 313 313 312 312 318 321 323 323 323 324 323 324
310 310 311 311 309 309 307 306 305 304 304 304 304 303 303 303 303 303 303 303 303 305 305 306 307 308 309 311 312 312 312 312 313 312 312 315 320 323 323 322 322 322 322
310 309 308 307 305 304 302 300 300 300 300 301 299 299 298 299 299 299 299 299 301 302 303 304 305 306 308 309 310 310 310 310 312 314 313 312 317 317 318 321 322 323 322
307 305 303 302 301 300 298 298 297 297 298 297 296 296 296 297 296 297 297 298 298 300 301 302 303 304 305 306 306 306 307 307 308 312 313 314 313 316 317 318 320 321 321
304 301 300 299 298 297 296 296 295 294 294 293 294 294 294 294 294 294 295 295 295 296 299 300 300 300 299 299 299 302 305 305 305 306 309 313 312 313 316 317 318 317 319
301 299 298 296 295 294 293 292 291 290 290 290 291 291 291 292 292 292 292 293 293 294 296 297 297 296 296 295 295 294 300 303 303 303 305 308 312 312 313 316 318 319 319
298 295 294 292 291 290 289 289 289 288 288 288 289 289 289 289 290 290 291 292 292 293 293 294 293 293 293 291 294 294 292 298 302 304 305 306 309 311 312 315 315 316 317
292 290 290 289 288 288 288 287 287 287 287 287 287 287 287 288 288 288 289 290 291 291 291 291 292 292 290 290 291 291 291 294 301 304 305 306 309 310 311 313 311 312 313
289 289 288 287 287 287 286 286 286 286 286 286 286 286 287 287 287 287 287 289 289 289 289 289 291 291 292 292 289 290 291 294 301 302 304 307 308 307 310 309 308 307 305
288 287 287 287 286 286 286 286 286 286 286 286 286 286 286 286 286 287 287 287 287 288 288 288 288 290 291 291 288 289 290 294 302 302 305 306 305 304 308 306 305 303 302

GFSMW_850_thetae_006.txt.gz
Theta_e
318 318 318 318 321 323 323 325 326 327 329 329 329 329 325 325 324 322 321 322 322 323 324 325 326 327 328 328 328 326 325 325 324 322 322 322 321 321 321 320 319 317 317
319 318 318 318 318 318 320 322 323 325 326 327 327 328 328 326 326 325 324 324 325 325 327 327 326 327 328 328 329 328 327 326 325 324 324 323 322 322 321 320 319 317 318
319 319 318 316 317 317 318 318 320 322 324 326 327 327 329 331 331 330 331 331 331 331 330 330 330 329 329 328 329 329 328 327 326 326 324 323 322 321 320 319 318 318 320
319 319 318 317 316 316 317 318 318 320 322 325 326 328 329 329 329 330 330 330 330 329 328 329 329 330 330 329 329 330 330 329 328 326 325 324 323 322 322 321 321 319 319
319 319 318 318 317 316 316 317 318 318 319 322 324 326 327 328 328 330 331 330 330 330 329 329 329 329 329 329 330 330 331 330 329 327 326 325 325 325 323 322 322 321 321
318 318 318 319 319 319 318 317 317 316 316 317 319 320 320 322 324 325 327 327 327 328 329 329 329 328 329 329 330 331 332 331 330 329 327 326 325 325 323 323 322 322 322
318 318 318 318 319 319 319 319 318 318 317 317 316 316 317 320 323 326 327 328 328 328 329 329 330 330 329 329 329 331 332 331 331 330 329 327 326 325 324 323 323 322 322
318 318 318 317 318 318 318 318 318 317 317 317 317 316 316 315 314 315 316 320 324 326 327 328 330 331 331 331 330 329 330 331 332 332 330 329 328 327 326 324 323 321 322
317 317 317 317 318 318 317 317 316 316 316 316 316 315 315 315 315 315 315 314 314 314 315 321 324 326 327 329 330 330 329 330 330 330 329 329 329 328 327 326 325 323 322
318 317 317 317 317 317 316 316 316 316 315 315 314 314 315 315 315 314 314 314 314 314 314 314 314 315 318 321 323 326 328 329 329 329 329 329 329 329 328 326 325 324 323
317 317 317 317 317 316 316 316 315 315 314 313 313 313 313 315 315 314 314 314 313 313 314 314 314 314 314 313 314 316 320 324 326 327 327 327 328 327 326 326 325 324 323
317 317 317 317 316 316 316 315 314 314 313 311 311 311 311 312 311 310 309 308 307 307 307 308 309 311 313 314 314 314 314 315 317 320 323 323 324 325 326 326 326 325 322
317 317 317 316 315 314 314 315 314 311 310 310 311 312 311 311 310 308 307 307 306 306 306 305 305 306 309 312 313 314 315 315 316 317 317 318 320 323 324 324 325 325 323
316 316 315 314 313 312 312 313 312 311 312 312 309 308 307 307 306 306 305 305 305 305 305 304 304 304 306 309 312 314 314 314 314 314 314 314 314 316 320 324 325 324 324
316 315 313 312 312 312 313 313 312 311 311 308 307 307 307 307 305 304 304 304 304 304 304 304 304 306 306 307 310 310 311 312 313 313 313 313 313 313 314 320 322 323 324
314 313 311 311 311 313 313 310 309 310 309 305 305 305 305 304 303 302 302 302 302 302 302 303 303 303 305 305 305 309 310 311 311 311 312 312 313 313 312 316 317 321 321
314 311 310 311 311 309 307 308 308 308 304 303 302 302 302 299 298 298 299 299 299 299 300 300 302 302 302 304 307 308 308 308 308 308 309 310 313 313 313 313 314 317 319
311 311 309 307 306 306 306 306 305 302 300 299 299 299 298 297 297 297 297 296 296 297 297 298 300 301 302 304 304 303 303 302 303 305 307 308 309 311 312 312 313 316 317
309 307 306 305 304 302 302 301 299 297 296 296 295 293 293 293 293 293 293 293 294 295 294 295 296 299 301 300 298 297 295 295 297 303 304 304 305 308 308 310 312 312 315
306 305 304 302 300 300 298 297 295 293 292 291 290 289 289 289 290 290 290 291 292 291 293 293 294 296 297 295 292 291 295 296 296 293 294 300 303 306 307 306 309 311 312
305 304 302 299 298 295 293 291 290 289 289 288 288 288 288 288 288 288 288 290 289 290 290 292 293 293 293 292 291 290 292 296 293 291 293 296 301 304 307 307 308 311 311
303 302 299 296 292 290 289 289 288 288 287 287 287 287 286 286 286 287 288 288 288 289 290 291 291 291 291 289 289 290 292 292 290 290 292 297 301 304 305 307 308 310 312
302 298 294 291 289 289 288 288 287 287 286 286 286 286 286 286 286 286 286 286 287 287 289 289 289 288 287 288 288 292 292 290 289 289 292 297 301 304 306 307 308 310 311
297 293 290 289 289 288 287 286 286 286 286 286 286 286 286 286 286 286 286 286 286 288 288 288 288 288 288 289 290 292 291 289 288 290 293 299 300 302 302 303 306 308 309
291 289 288 288 287 287 286 286 286 286 286 286 286 285 285 285 285 285 285 286 286 287 287 287 288 288 289 289 290 291 290 290 290 293 295 296 298 299 301 300 302 304 304
288 288 287 287 286 286 286 286 286 285 285 285 285 285 285 285 285 285 285 285 286 286 286 286 287 288 288 288 290 288 289 288 291 292 294 294 296 296 297 298 299 300 299

GFSMW_850_thetae_009.txt.gz
Theta_e
318 318 318 318 318 319 322 324 327 329 329 329 330 329 328 328 328 328 327 328 329 329 330 329 328 327 327 327 326 327 327 326 324 323 323 323 323 323 322 321 320 320 319
318 317 317 317 318 318 318 319 321 324 327 330 329 329 328 329 329 330 331 331 330 330 331 331 330 329 329 329 328 328 327 327 326 324 324 323 324 323 322 322 321 321 321
318 318 317 317 317 317 318 319 318 319 322 324 327 329 330 330 329 327 329 330 332 332 332 331 331 331 331 330 330 329 328 327 327 327 325 324 324 322 321 320 320 320 319
318 318 318 317 317 316 317 317 318 318 320 323 325 327 329 329 328 329 329 329 331 332 331 331 330 330 330 330 330 330 330 329 327 326 326 326 326 324 323 322 322 321 321
318 318 318 318 318 318 318 317 317 317 317 319 322 323 324 325 325 327 328 328 329 328 327 327 329 330 330 330 330 330 329 327 328 327 326 325 326 326 324 323 322 322 322
318 318 317 318 318 318 318 318 318 317 317 316 316 316 317 318 318 320 322 324 326 327 328 328 329 329 330 330 329 329 330 329 328 329 328 326 326 327 325 324 323 322 322
318 317 317 318 318 318 318 317 317 317 316 316 315 315 315 314 314 314 314 314 314 315 316 322 326 326 326 328 329 329 329 329 329 328 329 329 328 327 326 325 324 323 322
317 317 317 317 317 317 316 316 316 316 316 315 315 315 315 314 314 314 314 314 314 314 314 314 314 315 319 321 322 324 326 328 328 328 327 328 329 329 328 327 325 324 323
317 317 317 317 317 316 316 316 316 315 315 314 314 313 313 313 313 314 314 313 313 312 312 312 312 313 313 314 314 316 318 321 324 325 327 328 327 327 327 327 327 326 325
318 317 317 316 316 316 316 315 314 314 314 312 310 309 310 310 311 311 310 309 308 307 307 307 307 306 307 309 311 312 313 313 314 316 317 320 323 325 326 326 326 326 326
318 317 317 316 316 316 316 315 315 314 310 308 309 310 310 310 310 309 308 307 306 305 305 305 305 305 304 305 306 310 312 313 314 314 315 315 316 318 320 321 322 325 325
317 317 316 316 316 316 315 315 315 314 310 309 310 310 309 308 307 306 306 306 305 304 304 304 304 304 304 304 305 307 310 313 313 313 314 314 314 314 314 316 318 323 323
317 317 317 315 312 312 312 312 312 311 308 309 310 310 308 307 307 307 306 305 304 303 303 303 303 303 303 304 304 307 310 310 309 310 311 312 313 313 313 313 313 314 317
317 316 314 312 312 312 312 312 311 307 308 310 310 309 308 307 306 305 304 302 302 301 302 302 302 302 301 302 305 305 305 307 308 308 309 309 310 310 311 312 313 314 315
316 314 312 311 311 311 311 310 307 306 308 308 308 307 305 303 302 301 299 299 299 299 299 299 300 300 300 301 301 304 305 305 306 306 305 304 305 306 308 311 313 314 314
312 311 311 311 311 310 307 306 306 306 306 306 303 302 301 300 297 294 293 293 294 295 294 296 296 297 298 298 301 302 302 302 301 299 297 299 302 305 307 308 310 312 313
311 311 310 310 307 306 305 305 305 304 303 301 299 298 296 292 290 290 290 290 290 289 290 293 291 293 294 297 299 299 300 299 293 294 295 296 299 297 299 303 305 308 309
310 309 307 306 306 306 305 304 303 301 298 295 293 291 290 289 288 288 288 288 288 288 290 289 291 291 291 294 297 295 295 292 291 291 292 292 292 294 295 300 302 304 306
309 307 307 307 305 304 303 302 299 295 291 290 289 289 288 287 287 287 287 287 287 287 287 288 288 291 291 293 293 292 290 290 290 294 294 291 290 291 293 297 300 302 304
308 307 307 307 306 304 300 296 292 290 289 288 288 287 287 286 286 286 286 286 286 286 286 287 287 289 290 290 289 287 290 291 293 295 293 291 289 290 293 297 299 300 303
307 308 308 306 302 298 293 290 289 288 287 287 287 287 286 286 286 286 286 286 286 286 286 286 288 288 287 286 286 289 290 291 293 293 292 289 289 290 297 298 300 302 302
308 306 304 299 294 290 289 288 288 287 286 286 286 286 286 286 286 286 285 285 285 285 286 287 287 287 287 286 287 289 290 291 292 291 291 289 289 292 296 298 300 301 302
306 303 297 292 289 288 288 287 287 286 286 286 286 286 286 285 285 285 285 285 285 285 286 286 286 287 286 286 287 289 289 290 290 290 289 291 292 295 296 296 297 298 301
301 295 292 289 289 288 287 287 286 286 286 286 285 285 285 285 285 285 284 284 285 285 286 286 287 287 287 287 288 288 289 288 288 289 290 291 292 293 294 294 295 296 298
297 291 288 288 288 287 287 286 286 286 285 285 285 285 285 285 284 284 284 284 284 285 286 286 286 287 287 287 288 289 288 288 288 289 290 290 290 291 293 292 294 295 296
290 288 288 287 287 286 286 286 285 285 285 285 285 284 284 284 283 284 284 284 284 285 285 285 286 286 286 287 287 287 287 287 287 288 288 288 288 289 291 291 292 293 294

GFSMW_850_thetae_012.txt.gz
Theta_e
318 317 317 317 318 318 319 321 324 326 329 329 328 328 328 328 328 328 328 329 331 331 332 332 331 331 331 331 330 329 328 328 327 325 325 324 325 325 325 325 324 324 324
317 316 316 317 317 318 318 318 319 321 323 326 328 328 328 328 328 329 330 331 330 330 331 332 332 332 332 331 331 331 330 330 329 327 325 323 324 324 325 325 324 320 320
317 316 316 316 317 317 317 318 318 318 319 322 325 327 328 328 329 331 331 331 331 331 331 331 331 331 331 331 331 330 330 330 329 327 325 324 324 324 325 325 323 323 321
317 317 317 317 317 316 316 316 317 318 319 321 323 325 328 329 327 327 327 327 328 328 327 327 327 327 327 328 329 330 330 330 329 327 327 326 325 325 324 324 325 324 324
317 317 317 317 317 318 318 317 317 317 316 317 318 319 320 320 319 319 320 321 323 325 325 325 326 327 327 328 328 328 330 330 330 328 328 328 327 326 324 324 324 324 324
317 317 317 318 318 317 317 317 316 316 316 316 315 315 315 314 315 315 314 314 314 314 314 315 316 318 320 322 322 324 325 327 329 330 329 328 328 327 326 325 325 325 325
317 317 317 317 317 317 316 316 316 315 315 314 314 314 314 314 314 314 314 314 313 313 313 312 313 313 313 314 315 315 317 320 323 325 327 328 328 329 328 327 327 326 326
317 317 317 317 317 316 316 315 315 315 314 313 311 311 311 311 312 312 312 310 309 308 308 307 307 307 307 307 309 312 313 313 314 314 315 316 319 323 326 328 327 327 326
318 317 317 317 316 316 316 315 315 314 313 309 308 309 309 309 309 309 309 308 307 306 306 305 305 305 305 305 305 305 306 308 311 313 313 314 315 315 315 318 320 325 326
317 317 317 316 316 316 315 315 314 314 312 309 308 309 309 309 308 307 307 306 306 306 305 304 304 304 304 304 304 304 304 305 308 312 313 314 314 315 315 315 316 317 320
318 317 316 316 316 315 315 314 314 314 312 308 308 309 309 309 308 308 307 307 306 304 303 302 302 302 302 303 303 303 303 307 309 310 310 311 311 312 312 313 313 313 315
317 317 316 316 315 315 314 314 312 311 308 307 308 308 307 308 309 307 306 305 303 301 300 300 300 300 300 300 300 302 304 304 304 305 307 307 307 308 309 309 310 311 312
316 316 316 315 314 313 312 312 311 309 306 307 307 307 307 306 306 304 302 300 297 296 295 296 296 297 298 298 299 302 299 302 303 304 305 305 304 303 300 304 306 307 308
316 316 314 312 312 312 312 311 309 307 306 306 306 306 305 303 301 298 295 293 292 291 291 291 291 292 293 293 296 296 299 300 300 300 301 301 296 296 297 302 304 305 308
316 314 312 312 312 311 310 307 306 307 306 305 304 302 300 297 293 292 291 291 290 290 290 289 289 290 290 290 291 294 295 298 296 297 297 295 292 292 299 299 294 298 304
314 312 311 311 310 308 307 308 308 306 303 302 299 296 293 291 291 290 290 289 289 289 288 288 288 288 288 289 289 292 296 295 293 293 293 292 291 293 295 291 291 293 298
312 311 311 309 307 308 308 307 305 302 299 296 292 291 290 290 289 289 288 288 288 287 287 287 287 287 287 288 290 292 292 291 291 290 290 289 290 295 294 291 291 291 293
311 310 307 307 307 307 306 303 300 297 293 290 290 290 289 289 288 288 287 287 287 287 287 287 287 286 286 288 290 290 288 287 287 289 288 289 293 293 292 291 291 291 293
309 307 307 306 305 304 303 299 295 291 290 290 289 289 288 288 287 287 287 287 286 286 286 286 286 286 287 288 287 287 288 288 289 289 290 292 292 291 292 292 292 292 295
307 306 306 305 305 303 299 294 291 290 289 288 288 288 287 287 286 286 286 286 286 285 285 285 285 286 287 286 287 288 288 289 289 290 290 289 290 290 291 291 292 293 295
307 308 308 306 304 300 294 290 289 288 288 287 287 287 286 286 286 285 285 285 285 285 285 285 285 286 286 286 287 288 289 289 289 289 289 288 289 290 290 293 293 295 294
307 306 306 304 300 294 290 289 288 287 287 287 287 286 286 286 285 285 285 285 284 284 284 284 285 285 286 286 287 288 289 289 289 288 288 288 289 289 291 292 292 293 293
305 304 302 300 295 289 288 287 287 287 287 286 286 286 285 285 285 284 284 284 284 284 284 284 285 285 285 285 286 287 288 287 287 287 288 288 289 289 290 289 291 291 292
300 300 297 290 288 288 287 287 286 286 286 286 286 285 285 284 284 284 283 283 283 283 284 285 285 285 285 286 286 287 287 286 287 286 286 287 287 287 287 289 289 289 290
297 293 289 288 287 287 287 286 286 286 285 285 285 285 284 284 283 283 283 283 283 284 285 284 284 285 285 285 286 286 286 287 286 285 285 285 284 285 287 288 288 288 289
293 289 288 287 287 286 286 286 286 285 285 284 284 284 284 283 283 283 283 283 283 284 284 284 284 284 284 285 285 285 286 286 284 284 284 283 283 284 285 286 287 287 289

GFSMW_850_thetae_015.txt.gz
Theta_e
316 316 316 317 317 317 317 318 320 321 323 326 328 328 328 328 328 328 328 329 329 330 331 332 332 332 332 332 332 332 332 331 331 329 328 327 327 326 325 325 325 325 324
315 315 316 317 317 317 318 318 318 318 319 321 325 327 327 327 328 329 329 330 331 331 332 332 331 331 330 330 331 331 331 331 331 330 327 324 325 325 325 325 324 324 325
315 315 316 316 316 316 316 317 317 319 320 322 324 326 327 328 329 330 329 329 327 327 327 327 326 326 326 327 327 327 328 329 329 329 328 326 326 326 325 325 325 324 324
316 316 316 317 317 317 317 317 317 316 317 318 320 322 323 324 321 321 321 321 321 321 322 322 322 322 322 323 325 325 326 326 327 327 328 328 328 326 326 326 325 324 324
317 317 317 317 317 317 316 316 316 316 316 315 315 315 315 314 314 314 314 314 314 314 314 313 313 313 313 314 315 317 319 322 324 324 325 326 327 327 325 324 324 325 325
317 317 317 317 316 316 316 316 315 315 315 315 315 314 314 314 313 312 312 311 311 310 310 309 309 308 308 308 308 310 312 313 314 317 320 321 324 326 325 324 324 325 324
317 317 317 317 316 316 316 315 315 315 314 313 312 311 310 310 309 309 309 308 308 308 307 307 306 306 305 305 305 305 305 305 307 310 312 313 314 314 315 316 318 320 322
317 317 317 316 316 316 315 315 315 314 312 310 309 308 308 308 308 308 308 307 307 306 306 306 305 305 304 304 304 304 304 304 304 305 306 310 312 313 313 314 316 318 318
316 316 316 316 316 316 315 315 314 314 314 311 308 308 308 308 308 308 308 307 307 306 305 305 303 303 302 302 302 302 303 303 303 305 307 309 309 309 309 310 312 314 315
316 316 316 316 316 315 315 315 314 314 313 310 307 307 308 308 308 308 308 307 305 304 302 301 299 298 298 298 299 300 300 302 303 302 303 303 305 306 306 306 307 307 309
317 317 316 316 316 315 315 314 314 313 311 308 307 307 307 307 306 306 305 303 301 298 295 293 293 292 292 293 294 296 298 301 299 299 301 303 304 304 303 303 302 300 304
316 317 316 316 315 315 314 314 312 311 308 307 307 306 306 306 305 303 301 297 294 292 292 292 291 291 291 290 291 291 296 294 296 298 299 301 300 298 298 297 294 296 299
316 316 316 315 315 314 313 312 311 308 306 307 307 306 305 303 301 297 294 292 292 292 292 291 290 290 289 289 289 290 290 290 292 297 296 294 294 294 293 293 292 299 302
316 316 315 314 314 313 312 311 307 307 308 307 306 304 301 298 294 292 292 291 291 291 291 290 290 289 289 289 288 288 289 290 293 294 293 292 292 291 291 291 295 300 298
315 315 313 313 312 311 309 306 307 307 306 305 302 299 294 291 291 291 291 291 290 290 290 290 289 289 288 288 287 287 289 292 291 291 290 289 289 289 291 293 296 295 294
314 312 312 312 310 307 307 306 305 305 303 300 297 293 291 290 290 290 290 290 290 289 289 288 288 287 287 287 287 288 290 290 289 287 286 286 287 287 291 293 293 293 294
314 312 311 309 306 306 306 305 305 303 299 294 291 290 290 290 290 289 289 289 288 288 287 287 287 287 287 286 286 288 289 288 287 287 287 287 288 289 290 290 291 291 292
312 310 308 306 306 307 306 304 302 298 292 290 289 289 289 289 289 288 288 287 287 287 286 286 286 286 286 286 286 288 287 287 287 288 288 289 289 289 289 289 290 290 290
310 308 306 307 308 308 307 304 298 291 289 289 289 289 288 288 288 287 287 286 286 286 285 285 285 285 285 285 286 287 287 287 287 288 289 289 288 288 289 289 290 289 290
308 307 307 308 306 303 300 295 292 289 289 289 288 288 287 287 287 286 286 285 285 285 285 285 284 284 284 285 286 287 287 287 288 288 288 287 288 288 289 289 289 290 290
307 306 306 304 302 299 295 291 290 289 288 288 288 287 287 286 286 285 285 285 284 284 284 284 284 284 284 285 285 286 287 287 288 287 286 286 287 288 288 288 288 289 290
304 304 303 301 299 297 293 290 289 288 287 287 287 287 286 285 285 285 284 284 284 283 283 283 284 284 284 284 285 286 286 287 287 286 286 287 287 287 287 286 287 288 289
304 303 300 299 295 292 291 288 287 287 287 287 286 286 285 285 285 284 284 283 283 283 283 283 284 284 284 283 284 285 286 286 286 286 287 286 285 285 284 284 286 287 287
303 301 299 294 292 289 288 287 286 286 286 286 286 285 285 285 284 284 283 282 282 282 283 284 284 284 283 284 284 285 285 285 285 287 285 284 283 284 283 283 284 285 285
300 296 294 289 288 287 287 286 286 286 286 285 285 285 285 284 283 283 283 282 282 283 284 284 283 283 283 283 285 285 284 285 286 285 283 282 282 282 282 282 283 284 285
296 291 288 288 287 287 287 286 286 285 285 285 285 284 284 283 283 282 282 282 282 283 283 283 283 283 283 284 284 284 284 285 284 283 282 281 281 281 281 282 283 284 284

GFSMW_850_thetae_018.txt.gz
Theta_e
315 316 317 317 317 317 317 317 318 318 319 321 325 326 327 327 327 328 328 328 328 329 330 330 331 331 330 330 329 328 328 327 327 327 327 328 328 327 326 325 325 325 324
315 316 316 316 317 317 317 317 318 318 319 320 323 325 326 327 328 329 329 329 329 328 328 327 326 325 325 324 324 325 325 326 327 326 325 324 325 325 326 326 326 326 325
315 315 315 316 316 317 317 317 317 317 317 318 322 326 327 327 325 324 322 321 320 320 319 319 319 318 317 317 316 317 318 318 321 323 324 324 324 324 324 325 324 326 325
315 315 316 316 316 316 316 316 316 316 316 316 316 318 319 318 315 314 314 314 314 313 313 313 312 311 310 309 309 309 309 311 312 315 319 322 321 322 322 323 323 325 324
316 316 316 316 316 315 315 315 315 315 315 315 315 314 314 314 313 312 311 309 309 308 308 308 307 307 307 306 306 305 305 305 305 306 309 312 314 316 319 319 319 319 320
316 316 316 316 315 315 315 315 315 314 314 313 312 311 310 309 309 308 308 308 308 308 307 307 306 306 305 305 304 304 304 304 304 304 304 305 309 311 313 314 315 316 316
316 316 316 315 315 315 315 315 314 314 311 310 309 309 308 308 308 308 308 308 309 308 308 307 306 305 304 302 301 301 301 301 302 302 303 304 307 308 307 309 310 311 311
316 316 316 316 315 315 315 315 314 314 313 312 310 308 308 308 308 308 308 308 307 306 305 304 302 300 298 296 295 295 296 297 299 301 302 302 302 302 304 306 306 308 308
316 316 316 315 315 315 315 315 314 314 313 311 309 308 308 308 308 307 307 306 305 303 300 297 294 294 293 293 293 292 292 292 295 300 299 297 299 301 304 305 301 302 303
316 316 316 315 315 315 314 314 314 314 312 310 308 307 307 308 308 307 305 302 299 296 294 293 293 293 292 292 292 291 291 291 293 292 291 293 298 300 302 298 297 296 298
316 316 316 315 315 314 314 314 313 312 310 307 307 308 308 307 305 303 300 296 293 292 292 292 292 292 292 291 291 290 289 289 289 289 290 296 296 296 295 295 294 294 293
316 316 315 315 314 314 313 313 312 310 307 307 308 307 305 304 301 298 294 292 292 292 292 292 291 291 291 290 289 289 288 288 288 290 292 291 291 290 290 291 290 291 293
315 315 315 314 314 313 312 311 310 308 307 307 306 305 303 299 295 292 292 292 292 292 291 291 291 290 290 289 289 288 288 288 289 291 290 289 287 287 288 289 290 291 292
314 315 314 313 313 312 311 310 307 307 306 306 305 302 298 293 291 291 291 291 291 291 290 290 290 289 289 288 288 288 287 287 289 289 288 287 287 287 288 289 290 291 292
314 313 313 313 312 311 309 306 306 307 306 305 300 296 293 291 290 290 290 290 290 290 290 289 289 288 288 287 287 286 287 287 288 288 287 286 287 288 289 290 290 291 290
313 312 312 312 311 309 306 306 307 306 303 299 295 292 291 290 290 290 290 290 290 290 289 289 288 287 287 286 286 286 287 287 287 286 286 287 287 288 289 289 289 290 290
314 312 312 311 308 306 307 307 307 304 303 300 294 291 290 289 289 289 289 289 289 288 288 287 287 286 285 285 285 287 287 287 286 286 286 287 287 288 288 288 289 289 289
313 311 310 308 306 308 307 306 303 301 298 293 292 289 289 288 289 289 288 288 288 287 286 286 285 285 284 284 284 286 286 286 286 286 287 287 288 287 287 288 288 288 288
311 310 307 305 307 306 304 302 300 296 293 290 289 288 288 288 288 288 288 287 286 286 285 285 284 284 284 284 285 286 286 286 286 286 286 287 286 286 288 288 287 287 287
309 307 305 306 306 303 301 298 297 294 289 288 288 288 287 287 287 287 286 285 285 284 284 284 283 283 283 284 285 285 285 286 286 286 287 285 286 287 288 286 287 287 285
306 305 305 304 303 302 300 297 290 288 288 288 288 287 287 287 287 286 285 285 284 284 284 284 283 283 283 283 284 285 285 285 286 286 285 284 286 287 286 285 285 285 286
304 303 304 303 302 300 292 289 288 288 288 288 287 287 287 287 286 285 285 284 284 283 283 283 283 283 283 283 283 284 285 285 285 285 284 286 286 285 284 284 284 285 285
304 303 303 301 297 292 289 288 287 287 288 288 287 287 286 286 285 285 284 284 283 282 282 282 283 283 283 283 283 283 284 285 285 284 285 285 284 283 282 282 283 283 283
303 301 299 295 291 289 288 287 287 287 287 287 286 286 286 285 285 284 284 283 282 282 282 283 283 283 283 283 282 284 284 284 284 285 284 283 282 281 281 281 281 282 282
300 299 297 292 288 288 288 287 287 287 286 286 286 286 286 285 284 284 283 282 282 282 283 283 283 283 282 282 284 284 284 284 284 283 282 281 281 280 280 280 281 282 281
298 298 293 288 288 288 288 287 286 285 285 285 286 285 284 284 283 282 282 282 281 282 282 282 283 282 282 283 283 283 283 284 282 281 281 281 280 280 280 280 280 281 281

GFSMW_850_thetae_021.txt.gz
Theta_e
316 316 317 317 317 317 318 318 318 318 319 321 324 325 326 326 327 327 328 328 329 328 328 326 324 323 322 321 320 320 320 319 319 320 320 321 321 321 321 323 324 324 324
315 316 316 316 316 317 317 317 317 317 319 321 323 325 326 327 327 325 325 323 321 319 318 316 315 314 313 312 311 310 309 309 310 317 317 320 319 321 322 320 322 322 323
315 315 315 316 316 316 316 316 316 316 316 318 322 325 325 322 319 316 314 314 313 313 311 310 309 308 307 307 306 306 305 304 305 305 311 317 317 317 317 319 319 320 321
315 315 316 316 315 315 315 315 315 315 315 315 315 315 315 314 313 312 310 309 308 308 307 307 307 307 307 306 306 305 304 303 303 304 304 304 305 310 310 311 314 314 317
315 315 315 315 315 315 315 315 315 315 314 314 312 311 310 309 308 308 308 308 309 309 309 308 307 306 305 303 302 301 301 300 300 301 302 303 305 307 309 309 309 308 310
315 315 315 315 315 314 314 314 314 313 311 311 310 309 309 308 308 309 309 310 310 310 309 308 306 304 301 299 296 295 294 294 294 295 298 303 304 304 304 304 305 307 307
316 316 315 315 314 314 314 314 313 312 312 312 311 310 309 309 309 309 310 310 310 310 308 304 301 297 295 294 294 294 293 293 292 292 295 299 299 299 301 302 304 306 306
316 315 315 315 314 314 314 313 313 313 312 312 311 309 308 308 309 310 310 309 306 303 300 297 294 294 294 294 293 293 293 292 291 291 292 291 290 293 299 300 303 299 301
316 315 315 314 314 314 313 313 313 313 312 311 309 308 308 309 309 309 307 304 301 298 295 293 293 293 293 293 292 292 291 291 290 290 289 289 290 297 297 298 298 295 296
315 315 315 314 314 313 313 313 312 312 311 309 308 308 309 309 308 306 303 300 296 294 293 292 292 292 292 291 291 291 291 290 290 289 289 290 293 291 290 290 290 290 294
315 315 315 314 313 313 312 312 311 310 309 307 308 308 308 307 305 302 299 295 292 291 291 291 291 291 291 291 291 291 290 289 288 288 289 292 290 289 288 287 288 290 291
315 315 314 314 313 312 312 311 310 308 307 307 307 307 305 304 302 298 294 292 291 290 290 290 291 291 290 290 290 289 288 287 287 288 290 290 288 287 287 288 289 289 290
314 314 314 313 313 312 311 310 309 307 306 306 306 305 302 298 295 293 291 290 290 290 290 290 290 290 289 289 289 288 287 287 287 288 288 288 287 287 287 288 289 289 290
314 314 313 312 312 311 310 309 306 306 307 307 305 303 299 295 292 290 290 290 290 290 290 290 289 289 289 288 287 286 286 286 287 287 287 287 287 287 288 288 289 289 289
313 313 313 312 312 311 309 306 306 307 306 306 303 300 295 292 290 290 289 289 289 289 289 289 288 288 287 286 285 285 286 286 286 286 286 286 287 287 288 288 288 288 288
313 312 312 312 311 309 306 307 307 307 306 302 299 295 291 290 289 289 289 289 289 289 289 288 287 286 286 286 285 285 286 287 286 286 286 286 286 287 287 288 288 288 288
313 312 312 311 309 306 306 307 306 304 302 299 295 292 290 289 289 289 289 289 289 289 288 287 286 286 285 285 284 286 286 286 286 286 286 285 286 287 286 286 287 288 288
312 311 311 308 305 306 307 305 303 301 298 293 290 290 289 289 288 288 288 288 288 287 286 286 285 285 284 284 284 285 286 285 285 285 286 286 286 285 286 287 288 287 286
311 310 308 306 305 307 305 304 301 300 295 290 288 288 288 288 288 288 288 288 287 286 286 285 284 284 284 283 284 285 285 285 285 285 285 286 285 285 287 287 287 285 285
310 308 306 305 306 305 303 302 301 296 291 288 288 288 287 287 287 287 287 286 286 286 285 284 283 283 283 283 284 285 284 284 284 285 285 285 285 286 286 286 285 284 283
308 306 304 305 304 303 301 299 296 291 288 288 287 287 287 287 287 287 286 286 285 285 284 283 282 283 283 283 284 284 284 284 285 285 284 284 285 287 285 284 284 283 284
306 304 303 303 303 301 295 294 290 288 288 287 287 287 287 287 287 287 286 285 284 284 283 282 282 282 283 283 283 284 284 285 285 284 283 284 285 284 283 283 283 283 283
304 303 302 302 301 296 292 289 288 287 287 287 287 287 287 288 287 286 285 284 283 282 282 282 282 282 282 282 282 283 283 284 284 283 284 284 283 282 281 281 282 282 281
302 301 302 301 297 293 288 287 287 287 287 287 287 288 288 287 286 285 284 283 282 281 282 282 283 282 282 282 282 283 283 283 283 284 283 282 281 281 281 280 280 280 280
301 301 299 296 292 288 287 287 287 287 287 287 288 288 287 285 284 283 282 281 282 282 282 282 282 282 282 282 283 283 283 283 284 282 281 280 280 280 280 280 280 280 280
301 298 296 291 288 287 287 287 287 287 287 288 288 286 285 284 283 282 282 282 282 282 282 282 282 282 282 283 283 283 283 283 282 281 280 279 279 279 279 279 279 280 280

GFSMW_850_thetae_024.txt.gz
Theta_e
316 316 317 317 318 318 319 319 319 320 321 325 327 328 326 326 327 327 327 326 324 322 319 316 314 312 311 310 308 307 307 310 312 310 312 313 315 320 318 322 323 320 320
316 316 317 317 317 317 317 317 318 320 322 324 325 326 326 325 324 322 319 315 313 312 310 308 308 308 308 307 307 306 306 306 308 309 309 310 311 313 315 312 311 315 315
316 316 316 316 316 315 315 316 316 316 319 323 324 323 322 318 314 313 311 309 308 308 309 309 309 308 307 306 304 303 303 305 306 306 307 310 309 307 308 309 309 311 314
316 316 315 315 315 315 315 315 315 315 315 315 315 315 313 311 309 308 308 309 309 310 310 309 308 305 303 301 299 297 297 300 301 302 303 304 305 306 307 306 306 306 309
316 316 315 315 315 315 315 314 314 314 313 312 311 310 310 308 308 309 309 310 311 311 309 307 304 301 298 296 295 294 295 296 297 299 300 302 303 303 302 304 302 302 303
316 315 314 314 314 314 314 313 313 312 311 311 310 310 309 309 309 310 311 311 309 307 306 302 300 297 295 294 294 294 294 293 293 294 299 301 300 298 299 299 299 300 300
316 315 314 314 314 313 313 312 312 312 312 312 311 310 310 309 310 311 311 309 307 305 303 300 297 295 294 294 294 293 293 293 293 292 297 295 294 295 296 297 300 300 300
316 316 315 314 314 313 313 312 312 312 312 311 311 310 309 310 310 310 309 308 305 301 300 296 294 293 293 293 293 293 292 292 292 295 293 293 294 295 296 298 297 298 295
316 316 315 314 314 313 312 312 312 312 311 310 309 309 309 310 310 308 307 305 302 298 294 293 292 292 292 292 292 292 291 291 291 291 292 292 293 295 295 293 293 293 293
316 315 314 313 313 313 312 312 311 311 309 308 308 308 309 309 307 303 301 299 296 293 292 292 292 292 292 292 291 290 290 290 290 290 291 291 292 293 292 291 290 290 290
316 315 314 313 313 313 312 311 310 309 308 307 307 308 308 307 304 300 298 295 293 292 291 291 291 291 291 290 290 289 289 289 289 290 290 290 291 291 290 289 289 289 290
316 315 313 312 313 312 311 311 309 308 307 307 308 307 305 303 300 296 294 292 291 290 290 290 290 290 290 289 289 288 288 289 289 289 289 289 289 289 288 289 289 289 290
315 314 312 312 311 311 311 310 308 306 306 307 307 305 302 300 297 293 291 290 290 290 290 290 289 289 289 288 287 287 288 288 289 289 289 289 288 288 288 288 288 289 289
314 313 312 311 309 309 310 308 306 306 307 307 304 301 300 297 293 290 289 289 289 289 290 289 289 288 288 287 286 286 288 288 288 288 288 288 287 287 288 288 288 289 289
314 313 312 310 308 308 308 306 306 307 306 303 300 298 295 293 290 289 289 289 290 290 289 288 288 287 287 286 285 286 287 287 288 288 287 287 287 287 287 288 288 288 288
313 312 312 310 306 307 307 305 307 306 303 300 298 295 293 291 289 289 289 289 289 289 288 288 287 286 286 285 285 284 286 287 287 287 287 287 287 287 287 287 287 287 288
312 312 311 308 306 307 306 306 306 304 301 298 295 293 292 289 288 288 289 289 289 288 287 286 286 285 285 284 284 285 286 286 286 286 286 286 286 286 286 286 286 287 288
312 311 309 309 308 306 306 306 304 302 299 295 294 292 289 288 288 288 289 289 288 287 286 285 285 284 284 284 284 285 286 286 286 286 286 286 286 286 286 286 287 288 287
312 311 310 310 307 305 306 304 301 297 297 296 291 288 288 288 288 288 288 288 287 286 285 284 284 284 283 283 284 285 285 285 285 286 286 286 286 285 286 287 286 285 285
311 310 309 306 304 305 303 301 298 296 296 291 288 288 288 287 288 288 288 287 286 285 284 284 283 283 283 284 284 285 285 285 285 285 286 285 285 285 286 286 285 284 283
309 308 305 304 304 303 301 299 296 293 290 288 288 288 287 287 288 287 286 285 285 284 284 283 283 284 284 284 284 284 284 284 284 285 284 284 285 285 285 284 284 283 284
306 304 303 303 303 302 300 297 294 290 288 288 288 288 287 288 287 286 285 284 284 283 283 283 284 284 284 284 284 284 284 285 284 284 284 284 285 284 283 283 283 283 283
304 303 303 302 302 302 299 294 289 288 288 288 288 287 288 287 286 285 284 284 283 283 283 284 284 284 284 284 284 284 284 284 284 284 284 284 283 282 281 282 282 282 282
304 303 302 302 301 297 292 288 288 288 288 288 287 288 287 286 285 284 284 283 283 283 283 284 284 284 284 283 283 283 283 283 283 284 284 282 282 281 281 281 281 281 281
303 302 302 300 295 291 288 288 288 288 287 287 288 287 286 285 285 284 283 282 282 282 283 283 283 283 283 283 283 283 283 283 284 284 281 281 281 280 280 280 280 280 280
301 300 298 296 292 288 288 288 287 287 287 288 287 286 285 284 284 283 282 282 282 282 282 282 282 282 282 283 283 283 283 283 283 281 281 280 280 280 280 280 280 280 280

GFSMW_850_thetae_027.txt.gz
Theta_e
319 319 319 320 321 323 325 327 326 328 329 329 330 329 324 321 322 323 323 321 316 312 310 309 308 309 310 309 309 308 307 307 308 308 309 307 311 312 313 314 318 319 317
319 319 319 320 320 322 325 327 329 329 328 328 325 322 320 320 321 316 313 311 308 309 310 310 310 310 309 308 306 304 303 304 304 305 304 307 307 310 309 305 306 308 309
319 319 319 319 319 320 322 320 322 322 323 323 323 322 318 314 312 309 308 309 310 311 312 311 309 307 305 303 301 299 299 300 299 301 302 304 304 303 303 304 305 307 306
319 319 318 318 317 316 316 316 316 316 317 318 317 316 313 310 309 309 310 311 312 312 309 308 306 304 302 298 296 296 297 299 298 296 298 299 301 303 304 301 300 301 302
318 318 318 318 316 315 315 315 314 314 313 312 311 310 310 309 309 310 311 311 310 309 308 306 303 301 298 295 295 294 295 296 295 295 296 298 301 300 298 298 297 298 298
318 318 317 317 315 314 314 313 312 311 311 311 311 311 310 310 311 311 311 309 308 308 307 304 300 297 295 294 294 294 293 294 293 293 294 298 298 295 296 296 297 297 299
318 317 317 317 316 314 312 311 311 311 311 311 311 311 310 311 311 310 310 309 307 306 305 301 297 295 294 293 293 293 293 293 293 293 294 295 294 294 294 295 296 298 296
318 317 317 316 316 314 313 312 312 311 311 311 310 310 310 310 310 309 309 307 305 303 301 298 295 293 293 293 293 293 292 292 292 292 292 292 293 293 293 294 296 295 294
318 317 317 316 315 314 313 312 312 312 311 310 309 309 309 309 308 307 306 305 302 298 296 295 293 292 292 292 292 292 291 291 291 291 291 291 291 292 292 293 293 293 292
318 318 317 316 315 313 312 311 311 311 310 309 308 308 308 308 307 305 303 301 297 295 293 292 292 292 292 292 291 291 290 290 290 290 290 291 291 291 291 291 291 290 290
319 318 317 316 314 312 311 311 311 310 309 308 308 308 308 306 304 302 300 297 293 291 291 291 291 292 292 291 290 289 289 289 289 289 290 290 290 290 290 290 289 289 290
318 317 316 315 313 311 310 309 309 308 307 307 308 307 305 303 302 299 296 292 291 290 291 291 292 291 291 290 289 288 288 288 288 289 289 289 289 289 289 289 289 289 289
318 317 316 315 313 311 309 307 306 306 306 307 306 304 303 301 298 295 292 291 290 290 291 291 291 290 289 288 288 287 287 287 288 288 288 289 289 288 288 288 288 288 288
318 317 315 314 312 310 308 306 304 305 307 306 304 302 301 299 296 292 290 290 290 290 291 291 290 289 288 287 287 287 286 287 287 288 288 288 288 288 287 287 288 288 288
317 316 315 314 312 309 306 304 302 306 306 305 303 301 298 296 293 290 289 290 290 291 290 290 288 287 287 287 286 286 286 286 287 287 287 287 287 287 288 288 288 287 288
317 316 315 314 311 307 305 303 303 306 305 303 301 299 296 292 290 289 289 290 290 290 289 288 287 287 286 286 286 286 286 286 286 287 287 287 287 287 287 287 287 288 287
316 315 315 313 309 306 303 301 305 305 303 301 298 296 292 289 289 289 290 290 289 289 288 287 287 286 286 286 286 286 285 286 286 286 286 286 286 286 286 286 287 287 287
315 314 313 310 307 304 301 300 304 303 300 298 295 291 290 289 289 289 289 289 288 288 287 287 286 285 285 285 285 285 285 286 286 286 286 286 286 285 286 286 286 286 286
314 313 310 307 303 301 301 304 303 301 298 294 290 290 289 289 289 289 289 289 287 287 286 286 285 285 284 285 285 286 285 285 285 285 285 285 286 286 286 286 286 285 284
311 309 306 304 302 300 304 303 302 298 293 292 290 289 289 289 289 289 289 287 287 286 285 285 285 285 284 285 286 286 285 285 285 285 285 285 285 286 286 286 285 284 283
309 307 306 301 300 303 303 302 298 295 293 290 289 289 288 289 289 288 287 286 286 285 285 284 284 285 285 285 285 285 285 285 285 285 284 284 285 286 285 284 283 283 284
307 305 300 300 302 303 302 299 295 294 291 289 289 289 289 289 289 287 286 286 285 285 284 284 284 285 285 285 285 285 285 285 285 284 284 284 285 284 284 283 283 283 283
303 300 301 303 303 302 299 296 296 291 289 289 288 289 289 289 288 286 285 285 284 284 284 284 284 284 284 284 284 284 284 284 284 284 284 284 283 283 282 282 282 282 281
302 301 302 302 301 301 299 297 291 289 289 288 289 289 289 288 287 285 285 284 284 283 283 283 284 284 283 283 283 283 284 283 283 283 284 282 282 282 281 281 281 281 281
302 301 300 301 300 300 297 290 289 288 288 289 289 289 288 286 286 285 284 284 283 283 283 283 283 283 283 283 283 284 283 283 283 283 282 281 281 280 280 280 280 280 280
302 300 300 301 300 296 289 288 288 288 288 288 289 287 286 285 285 284 284 284 284 284 283 283 283 283 283 283 283 283 282 283 282 282 280 280 280 280 280 280 280 280 280

GFSMW_850_thetae_030.txt.gz
Theta_e
321 319 320 320 322 325 326 324 322 323 326 331 331 330 329 329 327 323 322 318 313 309 309 311 311 311 309 308 307 305 304 304 301 300 300 301 302 303 306 310 305 304 303
320 319 321 322 324 327 328 329 330 330 330 330 329 328 323 322 321 315 311 309 310 311 312 311 310 309 307 306 304 302 299 298 298 297 297 300 300 305 299 299 299 302 304
319 320 320 321 324 326 328 329 328 330 330 329 325 322 318 313 310 308 310 311 312 312 311 310 309 308 306 304 301 299 296 296 296 295 296 299 300 297 300 299 299 301 297
319 319 319 319 321 322 322 321 321 320 320 319 317 315 313 310 309 310 311 312 311 311 310 309 308 307 304 301 298 296 295 294 294 294 294 294 295 299 300 299 295 296 295
319 319 319 318 318 317 317 317 318 319 318 317 315 311 309 310 310 311 311 310 310 309 307 308 307 305 301 298 296 295 294 293 294 293 293 293 293 295 295 294 294 294 294
319 319 318 318 316 315 315 314 314 313 312 311 310 311 311 310 311 310 309 307 307 308 307 306 303 300 298 295 294 294 293 293 293 293 292 292 293 293 294 294 293 294 294
319 318 318 317 315 314 312 311 311 311 311 311 311 310 310 310 310 310 309 308 308 308 306 304 300 297 294 293 293 293 293 293 293 292 291 291 291 291 292 292 292 293 292
318 317 317 316 315 313 312 311 311 311 311 311 311 310 310 310 310 309 309 309 308 305 303 299 296 293 293 293 293 293 293 292 291 290 290 290 290 290 291 291 292 291 292
318 317 317 316 314 313 312 312 311 311 310 310 310 310 310 310 310 309 308 306 304 302 298 294 293 292 292 292 292 292 292 290 290 290 289 289 289 290 290 290 290 291 291
318 317 317 316 314 313 312 311 311 310 310 309 309 309 309 309 308 307 305 302 299 296 293 292 292 292 292 292 292 292 290 289 289 288 288 288 289 289 289 290 290 289 289
318 317 317 316 314 313 312 311 311 310 309 309 309 309 309 308 306 304 302 299 295 292 292 292 292 292 292 292 291 290 289 288 288 287 287 288 288 289 289 289 289 289 288
318 317 316 315 314 312 311 310 309 309 308 308 308 308 307 305 303 302 299 295 293 291 291 291 292 292 292 291 290 288 287 287 287 286 286 286 287 288 288 288 288 288 287
318 317 316 315 313 311 310 309 308 308 307 307 308 307 305 302 301 299 296 293 291 291 291 291 292 291 290 289 288 287 287 287 286 285 285 286 287 287 288 287 287 287 287
318 317 316 315 313 311 309 308 306 306 306 307 307 305 303 301 299 297 293 291 291 291 291 291 291 290 289 288 287 287 287 286 286 285 285 286 287 287 287 287 287 288 288
318 317 315 314 312 310 308 306 305 304 306 306 305 303 301 300 297 293 291 290 290 290 291 291 289 288 287 287 287 287 287 286 286 285 286 286 286 287 287 287 287 287 287
318 317 315 314 312 309 307 305 303 304 305 304 303 301 299 296 293 290 290 290 290 291 291 289 288 287 287 286 287 287 287 286 286 285 286 286 285 286 286 286 286 287 288
317 316 315 314 311 309 306 304 303 303 304 303 301 299 296 292 290 290 290 290 291 290 289 288 287 286 286 285 286 286 286 286 286 285 285 285 285 285 285 285 287 286 286
317 316 315 313 310 307 304 303 303 304 303 301 300 297 292 290 289 290 290 291 290 288 287 287 286 285 285 285 285 286 286 286 286 285 285 285 285 285 286 286 286 286 285
316 315 314 311 308 305 303 302 302 303 302 299 296 292 290 289 289 291 291 290 288 288 287 286 285 284 284 284 286 286 286 286 285 285 285 285 285 285 286 286 286 285 284
314 314 311 308 306 303 302 303 303 301 299 296 293 290 289 289 290 291 290 289 288 287 286 285 284 284 284 284 286 286 286 286 285 285 285 284 284 285 286 286 285 284 283
312 310 308 305 303 302 303 303 301 299 296 293 290 289 289 290 291 290 289 288 287 286 285 284 284 284 284 284 285 285 285 285 285 284 284 283 283 285 285 284 283 283 284
307 305 304 303 302 301 302 301 300 297 294 290 289 289 290 290 289 289 288 287 286 285 284 284 284 283 283 284 284 284 284 285 284 284 283 283 285 284 283 283 282 283 283
303 303 304 303 302 301 300 300 299 294 290 289 290 290 290 290 289 288 287 286 285 284 284 284 284 283 283 283 283 283 284 284 284 282 283 284 283 282 281 281 282 281 280
303 303 303 303 302 301 300 299 294 289 289 290 290 290 290 290 289 287 286 285 284 284 284 284 284 284 283 283 283 284 284 283 283 283 283 282 281 280 280 280 280 280 280
302 302 302 302 302 301 298 293 289 289 289 289 289 290 290 289 287 286 285 284 284 284 284 284 284 284 283 283 284 284 283 283 283 283 282 280 279 279 279 280 280 280 280
301 301 301 301 300 298 295 289 289 289 289 288 289 290 289 288 287 285 285 284 283 283 283 283 284 283 283 284 284 283 283 283 282 281 279 279 279 279 279 279 279 279 279

GFSMW_850_thetae_033.txt.gz
Theta_e
321 321 320 319 320 321 322 323 321 322 327 332 333 335 334 333 332 330 328 323 315 309 311 312 311 310 310 308 307 306 305 304 302 301 301 301 300 301 304 304 301 300 300
320 320 319 320 324 327 326 325 325 327 329 331 333 333 333 330 327 322 312 309 311 312 311 311 310 309 309 307 305 302 301 299 296 295 296 296 298 301 298 299 297 297 298
320 320 321 322 327 328 329 328 328 328 329 330 329 328 325 321 314 309 310 312 312 311 310 309 309 309 307 305 302 299 297 296 296 294 294 295 295 293 297 295 295 297 294
320 320 321 324 327 329 329 329 329 329 329 328 325 323 318 311 309 310 312 311 311 310 310 310 309 308 305 301 299 296 295 294 294 294 293 293 292 293 296 295 292 292 292
320 320 320 322 324 324 325 324 325 327 324 322 318 313 310 310 311 311 311 312 310 309 309 309 307 304 301 298 295 294 294 293 293 293 293 293 292 291 293 292 292 291 291
319 319 319 320 320 321 320 319 318 317 316 315 312 310 310 311 311 310 310 310 309 309 308 306 303 301 297 295 294 293 293 293 293 292 291 291 290 290 290 290 291 291 291
319 318 318 318 317 316 316 317 317 316 314 311 310 310 311 311 311 310 309 309 308 307 305 303 300 296 294 293 293 293 293 293 292 291 290 290 289 289 289 290 290 290 291
318 318 317 316 315 314 313 313 312 311 311 311 311 310 310 310 310 310 309 308 306 304 301 298 295 293 293 293 293 293 293 292 291 290 289 289 288 287 288 289 290 290 289
318 318 317 315 313 312 311 311 311 311 310 310 310 310 310 310 309 309 306 305 304 302 298 295 294 293 292 292 292 292 291 290 289 289 288 288 287 286 287 288 288 289 289
318 317 316 314 312 312 311 311 311 311 310 309 309 310 309 309 308 307 305 305 302 298 295 294 292 292 292 292 292 291 290 289 288 288 287 286 286 285 286 287 287 288 288
317 317 316 314 312 312 311 311 310 310 309 308 309 309 309 308 307 305 305 303 299 295 293 291 292 292 292 291 290 289 288 288 287 287 286 286 285 285 286 287 287 287 287
317 317 316 314 313 312 311 311 309 309 308 308 308 308 308 307 305 305 302 299 295 292 291 291 292 292 291 290 289 288 287 287 286 286 286 285 285 286 286 286 287 287 287
317 316 316 314 313 312 311 310 309 308 307 307 307 307 306 305 304 302 298 294 292 291 291 291 291 290 289 288 288 287 287 287 287 287 286 285 285 285 286 286 287 287 287
317 316 315 314 313 312 311 309 307 306 306 306 307 306 304 304 301 298 294 292 291 291 291 291 290 289 288 288 286 286 286 287 287 286 286 285 285 285 286 286 286 287 286
316 316 315 314 313 311 309 308 307 305 305 305 305 304 303 301 298 294 291 291 291 291 291 289 288 288 287 286 286 287 287 287 286 286 286 285 285 285 286 286 286 286 286
315 315 315 315 313 311 309 307 306 304 304 305 304 303 301 299 294 291 291 291 291 291 289 288 288 287 286 285 286 287 287 286 286 286 286 285 285 285 285 285 285 286 287
316 316 315 315 313 310 309 306 305 304 304 304 303 301 298 294 291 290 291 291 291 289 289 288 287 286 285 285 286 286 286 286 286 286 285 285 285 284 284 284 285 285 285
317 316 315 314 312 310 307 305 304 303 303 302 300 298 295 291 290 291 291 290 290 289 288 287 286 285 285 284 285 286 286 286 285 285 285 285 284 284 285 285 285 286 285
317 316 315 313 311 308 306 305 303 303 302 300 298 296 291 290 291 291 291 290 289 288 287 287 286 284 284 283 285 286 285 285 285 284 284 284 284 283 285 285 285 284 283
317 315 314 312 310 306 305 304 302 302 300 298 295 291 290 290 291 290 290 289 288 287 287 286 285 284 284 283 284 285 284 284 284 284 284 283 283 284 285 285 284 282 282
315 314 312 310 307 305 303 302 302 300 298 296 291 290 290 291 290 290 289 288 287 287 286 285 284 284 284 283 284 284 284 284 285 284 283 282 283 285 284 283 282 282 283
312 311 309 307 304 303 303 303 301 298 296 291 290 290 291 291 290 290 288 288 287 286 285 284 284 284 283 283 283 284 284 285 284 284 282 283 284 283 282 281 282 283 282
309 308 307 304 302 301 301 301 299 296 291 289 290 290 291 291 290 289 288 287 286 285 284 284 284 284 283 283 283 284 285 284 284 283 283 282 282 281 280 280 281 281 280
306 305 304 302 301 301 300 299 297 290 289 290 290 290 291 291 290 288 287 286 285 283 284 284 283 283 283 283 283 284 284 283 283 283 282 281 280 280 280 280 280 279 280
303 302 302 302 302 301 299 296 291 289 289 289 290 290 290 290 289 288 286 285 284 283 283 283 283 283 283 283 284 284 283 283 283 282 281 279 279 279 279 280 279 279 279
302 301 302 302 301 299 297 291 289 289 289 289 289 289 289 290 288 287 286 284 283 282 282 282 283 283 283 283 283 283 283 282 281 280 279 278 278 278 279 279 279 279 279

GFSMW_850_thetae_036.txt.gz
Theta_e
322 320 320 320 320 319 320 323 329 331 332 332 333 336 335 333 333 331 331 329 326 314 311 312 311 310 309 308 307 306 304 302 301 301 301 301 300 300 302 301 299 297 296
319 320 320 320 319 320 321 322 323 324 326 331 332 335 334 331 330 330 325 314 310 312 311 310 310 310 309 307 305 303 301 298 295 295 296 296 298 300 298 297 295 295 294
320 320 320 320 320 322 322 322 322 323 327 332 333 333 331 330 328 320 312 311 311 311 310 311 310 309 307 304 302 299 297 295 294 293 294 293 293 292 294 293 294 292 293
320 320 320 322 323 325 325 324 326 330 331 332 332 332 331 327 317 310 311 312 311 310 310 310 309 306 304 301 298 295 294 294 293 293 292 292 291 290 291 292 292 291 291
320 320 321 323 327 327 327 328 327 328 329 328 328 325 322 314 310 311 312 311 310 310 310 309 306 303 300 297 295 294 294 293 293 292 292 291 290 290 290 290 289 289 290
319 321 324 326 328 328 328 328 328 328 327 324 321 317 312 310 311 311 311 310 310 310 307 305 301 298 296 295 294 293 293 292 292 291 291 290 289 289 288 287 288 289 288
320 323 324 324 324 325 326 326 326 324 319 315 312 310 311 311 311 310 310 310 309 307 305 302 298 296 294 293 293 292 292 292 291 290 289 289 288 288 287 286 286 288 287
320 321 321 322 321 320 320 320 319 316 315 312 310 310 311 310 310 310 310 308 307 306 302 297 295 294 293 292 292 292 292 291 290 289 289 288 287 287 286 285 286 287 287
318 319 319 319 318 317 318 317 316 315 312 310 310 310 310 310 310 310 308 307 306 303 299 296 294 292 292 292 292 292 290 290 289 288 288 287 287 286 286 285 285 286 287
316 317 317 316 315 315 314 314 312 311 310 310 310 310 310 309 309 308 306 306 303 299 296 294 292 292 292 292 291 290 289 288 288 287 287 287 286 286 285 285 286 286 286
316 316 315 314 313 312 311 310 310 310 309 309 309 309 309 308 307 306 305 303 299 296 293 292 292 292 292 290 289 289 288 287 287 287 287 286 286 285 285 285 285 286 286
316 316 314 312 311 311 310 310 309 309 308 308 308 308 308 307 305 305 303 299 295 292 291 291 292 291 290 289 288 288 287 286 286 287 286 286 286 285 285 285 285 286 286
316 315 313 312 311 311 310 310 308 307 307 307 307 307 306 305 305 302 299 295 292 291 291 292 291 290 289 288 287 287 286 286 287 287 286 286 286 285 285 285 285 286 286
316 315 313 312 312 311 310 309 307 306 306 306 306 306 305 304 302 299 294 292 291 292 292 290 289 288 288 287 286 286 286 286 286 286 286 286 286 285 285 286 286 286 285
314 315 314 313 312 311 310 308 307 305 305 305 305 305 304 302 299 295 292 291 291 292 290 289 289 288 287 286 286 286 286 286 286 286 286 286 285 285 285 286 285 285 285
314 315 315 314 313 311 310 308 306 305 304 304 304 303 302 299 295 292 291 292 292 290 289 289 288 287 286 285 285 286 286 286 286 286 285 284 284 284 285 284 285 285 286
314 314 315 314 313 312 310 308 306 304 303 304 303 301 299 296 292 291 291 291 291 290 289 288 287 286 285 285 284 285 286 286 285 284 284 283 284 284 283 284 284 284 285
314 314 315 314 313 311 309 307 305 304 303 303 301 299 297 293 291 291 291 291 290 289 288 287 286 285 285 284 284 284 285 284 284 284 283 284 284 283 284 285 285 285 283
315 315 315 315 313 311 308 306 304 303 302 302 299 297 293 291 291 292 291 290 289 288 287 287 285 285 284 284 283 285 284 284 284 284 285 284 283 283 285 286 284 283 282
316 316 315 314 312 309 307 305 303 302 302 300 297 294 290 291 292 291 290 289 288 287 287 286 285 284 284 283 283 285 284 284 284 285 284 283 283 284 285 284 283 282 282
316 315 314 313 310 307 305 303 302 302 300 298 293 290 291 292 291 291 290 288 287 287 286 285 285 284 283 283 283 284 285 284 285 284 284 282 283 284 283 282 282 282 283
314 314 313 310 307 305 303 302 302 300 298 294 290 290 291 291 291 291 289 288 287 287 285 285 284 283 282 283 283 284 285 285 284 284 282 283 283 282 281 281 281 282 282
312 310 309 306 303 302 302 303 301 299 294 290 290 291 291 291 290 290 289 288 287 285 284 283 283 282 282 282 283 284 284 283 283 283 283 282 281 280 280 280 281 281 280
309 307 306 304 301 301 301 300 299 295 290 290 290 290 290 290 290 289 288 287 285 284 283 282 282 282 282 282 283 284 283 283 283 282 282 280 280 280 280 281 281 280 279
306 305 305 303 302 301 299 298 295 290 289 289 289 289 289 290 290 289 287 286 284 283 282 282 282 282 282 282 283 283 283 283 282 282 280 280 279 279 280 280 280 280 280
304 303 302 302 301 300 298 295 290 289 289 289 288 288 289 290 289 288 287 285 283 282 282 281 281 282 282 282 282 283 283 282 281 280 279 279 278 279 279 279 279 280 280

GFSMW_850_thetae_039.txt.gz
Theta_e
325 324 324 322 321 320 320 321 328 334 336 336 337 337 336 334 333 333 332 331 329 326 315 311 311 310 311 310 308 306 304 303 301 301 302 301 301 299 300 301 300 298 296
323 323 321 320 320 320 320 321 328 332 335 335 335 336 335 333 333 332 330 328 321 311 311 310 311 311 310 308 305 303 301 298 297 296 296 295 297 299 300 296 296 294 294
324 322 321 320 320 320 319 321 322 327 331 333 334 334 333 330 329 328 328 320 311 311 311 311 311 310 307 303 302 300 298 296 295 293 293 293 292 292 293 293 293 292 292
322 322 321 320 320 320 320 321 322 323 325 330 332 333 333 332 328 325 318 311 311 311 311 311 309 306 303 300 299 297 296 294 293 293 292 291 290 289 290 291 291 291 291
322 322 321 320 320 321 322 323 324 324 326 330 331 332 331 329 324 316 311 311 311 311 310 308 306 303 300 298 296 295 294 293 292 292 291 290 290 289 289 288 288 289 289
321 321 320 320 322 324 325 326 328 329 330 330 330 331 330 324 317 310 311 311 310 310 308 307 303 300 298 296 295 293 292 292 292 291 290 289 288 288 287 286 286 286 287
319 319 320 323 325 326 327 327 328 329 328 327 326 323 321 315 310 311 311 310 310 308 307 304 300 297 296 294 293 292 292 292 291 290 289 288 288 287 286 286 286 285 285
318 319 321 323 325 326 327 327 327 327 325 322 318 313 310 310 311 310 310 309 308 307 304 300 297 295 293 292 292 292 292 290 289 289 288 287 287 287 286 286 285 285 286
317 319 323 325 325 326 326 326 326 325 319 314 310 309 310 310 310 309 309 308 307 304 300 297 294 293 292 292 292 292 290 290 289 288 287 287 287 287 286 285 285 285 285
316 319 323 324 324 324 323 323 322 318 313 310 309 310 309 309 309 308 307 306 304 300 297 294 292 292 292 292 291 290 289 289 288 287 287 287 286 286 286 285 285 284 285
314 316 320 320 320 319 319 317 315 314 310 309 309 309 309 308 308 307 306 304 300 297 294 292 292 292 292 291 290 289 288 288 287 287 287 286 286 286 286 285 285 285 285
313 317 318 317 317 316 315 314 312 310 309 309 308 308 308 307 307 306 304 300 297 293 292 292 292 292 291 290 289 288 288 287 287 286 286 286 286 286 286 285 285 285 285
313 315 315 314 314 313 312 311 310 309 308 307 307 307 307 306 306 304 301 296 293 292 292 292 292 290 290 289 288 287 287 287 286 286 286 286 286 286 285 285 285 285 285
314 314 313 312 312 311 310 309 307 307 307 306 306 307 306 305 303 301 296 293 292 292 292 291 290 289 289 288 287 287 286 286 286 286 286 286 285 284 285 285 285 285 284
312 313 312 311 310 309 308 307 306 305 305 305 306 305 304 303 301 297 294 292 292 292 291 290 289 289 288 287 286 286 286 286 285 285 284 284 283 284 285 285 284 284 285
313 312 312 311 310 309 308 307 306 305 305 305 305 304 303 301 298 294 292 292 292 291 290 289 289 288 288 287 286 285 285 285 284 284 284 283 284 284 284 284 284 285 286
313 312 313 312 310 310 309 307 306 304 304 303 304 303 301 299 295 293 291 292 291 291 289 289 288 288 287 285 284 284 285 284 284 284 283 284 284 283 283 283 284 286 284
313 313 313 312 311 310 309 307 305 304 303 302 302 301 299 296 293 291 292 292 291 290 289 288 288 287 285 284 284 284 284 284 284 284 284 284 283 283 284 285 286 284 283
314 314 315 314 312 311 309 307 305 303 302 302 301 299 297 293 291 292 292 292 291 290 289 288 287 285 285 284 283 283 284 284 284 284 285 283 283 283 285 285 283 283 282
315 315 315 314 313 311 309 307 304 302 301 301 300 297 293 291 292 292 292 292 291 289 288 287 285 284 284 283 283 284 284 284 284 285 283 283 283 284 284 284 283 282 282
315 315 314 314 312 310 307 305 303 301 301 299 297 295 291 291 292 292 292 291 290 289 288 286 285 284 283 283 282 284 284 284 285 284 283 282 283 284 283 283 282 282 283
314 313 314 312 310 308 306 304 302 301 299 298 295 290 291 292 292 291 291 290 289 288 286 285 285 284 283 282 282 283 284 285 283 283 282 282 283 282 281 281 281 282 282
313 312 313 311 307 305 304 303 301 300 299 295 290 290 291 291 291 291 290 289 288 286 284 284 283 282 282 282 282 283 284 283 283 283 282 282 281 280 280 281 281 280 281
312 311 310 308 304 302 302 302 301 298 295 290 290 290 290 290 290 290 289 288 286 284 283 283 282 282 282 282 282 283 283 283 283 282 282 280 280 280 281 281 281 281 280
309 308 308 306 303 301 300 299 299 295 290 290 290 289 289 289 290 289 288 287 284 283 282 282 281 281 281 282 283 283 283 283 282 282 280 280 280 280 281 281 281 281 281
307 306 305 303 301 299 299 298 294 290 289 289 289 289 288 289 289 289 288 285 283 283 282 281 281 281 281 282 282 283 282 282 280 280 280 280 279 279 280 280 280 281 282

GFSMW_850_thetae_042.txt.gz
Theta_e
323 324 325 324 323 324 322 323 322 321 324 332 336 336 337 336 336 334 333 332 331 329 326 318 311 310 311 311 309 306 303 302 301 302 302 300 300 298 298 299 300 299 296
321 323 323 323 323 322 321 321 320 320 326 332 336 336 336 335 334 333 332 329 328 324 314 311 311 311 311 309 306 303 300 299 299 298 297 295 297 299 298 296 295 295 294
316 321 322 323 321 320 320 320 320 322 329 333 335 336 335 333 332 331 330 325 315 313 310 311 311 311 310 307 302 300 299 297 295 294 293 293 292 292 293 293 293 292 292
312 318 321 322 321 320 320 320 320 323 330 334 335 335 335 333 330 329 324 317 311 310 311 311 311 310 307 302 299 298 297 295 294 293 292 291 290 289 290 291 292 291 290
313 315 320 322 322 320 320 320 320 322 326 331 332 334 333 331 328 321 317 313 310 310 311 311 310 307 302 299 298 296 294 293 293 292 292 291 290 289 289 287 289 290 290
317 316 317 321 321 320 320 321 321 322 324 328 331 332 332 329 324 316 312 310 310 311 310 310 307 303 299 297 296 294 293 293 293 291 290 289 288 288 287 286 287 286 287
316 320 320 321 320 320 321 323 323 323 324 327 329 328 328 327 321 314 310 310 310 310 309 308 304 300 297 295 293 293 293 292 291 290 289 288 288 287 287 286 286 285 286
317 319 320 320 321 321 323 324 326 326 327 327 327 326 323 320 312 309 310 310 310 309 308 305 300 297 294 293 293 293 292 291 290 289 289 288 287 287 286 286 285 285 285
312 317 318 319 321 322 324 326 327 328 327 325 324 319 314 309 309 309 309 309 308 308 305 300 297 294 293 293 293 292 291 290 289 288 288 287 287 286 286 286 286 285 285
312 316 318 321 322 323 325 326 327 327 325 320 315 310 309 308 309 309 309 308 307 305 301 297 294 293 293 293 291 290 290 289 289 288 287 287 286 286 286 286 285 285 285
315 316 318 321 323 324 325 325 325 324 317 312 309 309 308 308 308 308 307 307 304 301 298 294 293 293 292 291 290 290 289 289 288 287 287 286 286 286 286 285 285 284 284
314 315 317 321 322 323 323 323 321 317 311 309 308 308 308 308 307 307 307 304 302 298 295 293 293 292 291 290 290 290 289 288 287 287 286 286 286 285 285 284 284 284 284
311 312 316 319 320 320 319 318 315 312 309 308 308 307 307 306 306 306 304 302 299 295 293 293 292 291 291 290 289 288 288 287 286 286 285 285 284 284 283 284 284 285 285
310 313 315 317 317 316 315 313 311 309 308 307 306 306 306 306 305 304 302 299 296 293 293 292 291 291 290 289 288 288 287 286 286 285 284 284 284 283 284 284 285 285 284
309 311 314 314 314 313 312 310 309 307 306 305 305 306 305 305 303 301 299 296 294 293 292 291 291 290 289 289 288 286 286 285 285 284 284 284 283 284 284 285 284 284 284
309 310 312 312 311 311 309 308 307 305 304 305 305 305 304 303 301 300 297 294 292 292 292 291 290 289 289 288 287 285 285 285 284 284 284 284 284 284 284 284 284 285 286
310 311 312 311 311 310 309 306 305 304 304 304 304 304 302 301 299 297 294 292 292 292 291 290 290 290 288 287 286 285 284 284 284 284 284 284 284 283 283 283 284 286 284
311 311 311 310 309 308 306 306 305 304 303 303 303 302 301 299 297 294 292 292 293 292 291 290 290 289 287 286 285 284 284 284 284 284 284 284 283 283 284 285 285 284 283
313 314 313 312 310 308 307 306 304 303 302 302 302 301 299 297 294 292 292 293 292 292 291 290 289 287 286 285 284 283 284 284 284 284 284 283 283 283 285 285 284 283 282
315 315 314 312 310 308 307 306 304 302 301 301 301 299 297 293 292 292 292 292 292 291 290 289 287 285 285 284 283 283 284 284 284 284 283 283 283 284 284 284 283 282 282
315 314 314 313 310 309 307 305 304 302 301 300 299 296 293 291 292 292 292 292 291 290 289 288 286 285 284 283 282 282 284 284 284 283 283 282 282 284 283 283 282 282 283
313 313 313 312 310 309 307 305 303 301 299 298 296 293 291 291 292 291 291 291 290 289 288 286 285 284 283 282 282 283 284 284 283 283 282 282 283 282 281 281 281 282 281
313 312 313 311 309 307 306 305 302 299 298 296 294 291 291 291 291 291 290 290 289 289 286 284 284 283 282 282 282 282 283 283 283 282 283 282 281 281 281 281 281 281 282
312 311 311 310 307 305 303 303 301 298 297 295 291 290 291 290 290 290 290 289 289 286 284 283 282 282 282 281 282 282 282 283 283 282 282 281 280 281 281 282 282 282 282
309 309 310 308 304 301 300 300 299 297 295 291 290 290 289 289 289 289 289 289 286 283 282 282 281 281 281 281 283 283 283 283 282 281 280 280 280 280 281 282 282 282 282
308 308 306 304 301 299 299 298 297 294 290 289 289 289 288 288 288 289 289 286 284 283 282 281 281 281 281 281 282 282 282 282 280 280 280 280 280 280 281 281 282 282 283

GFSMW_850_thetae_045.txt.gz
Theta_e
319 321 324 324 324 324 324 324 323 323 323 323 325 334 335 337 336 336 335 331 331 330 329 325 316 311 311 311 311 309 305 302 302 301 300 299 299 297 297 298 297 296 296
314 318 320 322 324 324 324 323 323 322 322 322 323 332 335 336 335 334 331 331 330 329 322 314 311 311 312 311 309 304 301 301 300 297 296 296 296 298 298 297 296 295 295
309 312 316 319 322 323 324 322 321 321 321 322 325 333 335 334 332 331 330 329 328 321 313 310 311 311 311 310 306 302 300 298 296 295 295 294 294 293 295 294 294 293 293
309 308 309 315 319 323 322 321 320 320 322 324 328 332 335 333 330 329 327 325 318 313 310 310 311 311 311 308 303 300 298 295 294 294 294 292 291 290 291 292 292 291 291
310 309 309 310 317 322 322 321 320 320 323 327 331 333 334 332 329 325 323 319 315 309 309 310 311 310 308 304 300 297 295 294 294 293 292 291 290 289 288 289 290 291 291
311 312 314 311 311 320 320 321 320 320 323 328 331 332 333 331 327 323 319 311 310 309 310 310 310 308 304 300 297 295 294 294 293 292 291 290 289 288 287 287 288 287 288
309 309 313 315 314 320 320 320 320 320 322 327 330 330 331 329 327 323 317 311 309 309 310 310 308 305 300 297 295 294 294 293 292 291 290 289 288 288 288 287 287 287 287
309 313 312 316 316 319 320 320 320 321 322 325 327 328 327 326 321 315 309 308 309 309 309 308 306 301 297 295 294 294 293 292 291 290 289 289 288 288 287 287 286 286 287
309 310 310 316 318 319 320 321 321 323 323 325 326 326 322 320 315 308 308 308 308 309 308 306 302 297 295 294 294 293 291 291 290 289 289 288 288 287 286 286 286 286 286
308 308 309 316 317 319 321 322 323 323 323 324 323 321 318 312 308 308 308 308 308 308 306 301 297 295 294 294 293 291 291 290 289 289 288 288 287 286 286 286 286 285 285
308 309 310 316 318 320 322 324 325 325 324 322 321 317 310 307 307 308 308 308 308 305 302 298 295 294 293 292 291 291 290 290 289 288 287 287 286 286 285 284 284 284 284
309 310 313 316 318 321 323 324 324 325 322 319 314 309 307 307 307 307 307 307 305 302 299 295 294 293 292 291 291 291 290 289 288 288 287 286 285 284 284 284 284 284 284
312 313 313 314 317 320 322 322 322 321 316 312 308 307 307 307 306 307 307 305 302 299 295 294 293 292 292 291 290 290 289 289 288 286 285 285 284 284 284 284 284 284 284
310 309 310 313 317 319 319 320 317 315 310 307 306 306 306 306 306 306 304 302 299 296 294 293 292 292 291 291 290 289 288 287 286 285 285 284 284 284 284 285 285 285 284
306 306 308 311 315 316 316 314 312 308 306 306 306 306 305 305 305 303 301 299 296 294 293 293 292 292 292 291 289 288 287 286 285 285 284 284 284 284 285 285 285 284 284
305 304 308 312 314 315 312 310 308 306 305 305 305 305 305 304 302 301 299 296 293 293 293 293 292 292 291 290 288 286 285 285 284 284 284 284 284 284 284 284 284 285 285
304 306 310 313 313 313 312 308 306 305 304 305 305 305 303 302 301 299 296 293 293 293 293 292 292 291 290 288 287 285 284 284 284 284 284 284 284 283 283 283 284 285 284
307 309 311 312 311 310 308 307 305 304 304 304 304 303 302 301 298 295 293 293 293 293 292 292 291 290 288 286 285 284 284 284 284 284 284 284 283 283 284 284 285 284 283
311 312 312 312 310 309 307 305 303 303 303 303 302 301 300 298 295 293 293 293 293 292 292 291 290 288 287 285 284 283 283 283 284 284 284 283 283 283 284 285 284 283 282
313 313 311 310 308 306 305 304 303 302 302 302 301 299 296 294 293 293 293 292 292 292 291 290 289 286 285 284 284 283 283 284 284 284 283 283 283 284 284 284 283 282 282
313 311 310 309 307 305 304 304 303 302 301 300 299 297 295 293 292 292 292 292 291 291 291 290 287 285 284 284 283 282 284 284 284 283 283 283 283 284 283 283 282 281 283
311 310 309 307 306 305 305 304 302 300 300 299 297 295 293 292 292 292 291 291 290 290 289 287 286 285 284 283 282 282 283 284 283 283 283 283 283 282 281 281 281 282 281
311 310 309 308 306 305 304 304 302 300 299 298 296 295 293 291 291 290 290 290 290 289 287 285 285 284 283 282 282 282 283 283 283 283 282 282 281 281 281 281 282 282 282
310 310 309 307 305 304 303 304 301 299 298 297 295 292 291 290 290 289 289 289 289 287 285 284 283 283 282 281 282 282 282 283 283 282 282 281 281 281 281 282 282 282 282
308 308 308 307 305 303 301 301 300 298 297 294 291 290 290 289 289 288 289 289 287 284 283 282 282 281 281 281 282 283 283 283 282 282 280 280 281 281 281 282 282 283 283
308 307 307 305 303 300 300 299 297 296 295 291 290 289 289 288 288 288 289 287 285 284 283 282 281 281 281 281 282 282 282 282 280 280 280 280 280 280 281 282 282 283 283

GFSMW_850_thetae_048.txt.gz
Theta_e
317 318 320 321 322 320 321 324 324 324 323 323 327 334 334 334 336 336 335 334 332 331 330 329 327 320 310 311 312 312 310 305 302 301 299 298 298 297 297 298 297 296 295
312 315 317 320 321 322 322 324 324 324 323 323 325 330 330 334 335 336 334 333 332 330 330 328 322 311 310 311 311 310 306 302 300 298 298 300 299 298 298 296 296 295 294
311 311 312 317 319 321 322 324 324 324 323 323 327 326 329 334 334 335 332 332 329 329 329 318 310 310 311 311 310 308 302 299 298 296 296 298 299 296 296 295 294 293 294
311 311 311 311 316 320 322 323 323 323 322 322 323 324 327 333 334 333 331 329 327 326 319 311 309 310 311 310 308 304 299 297 296 295 295 294 293 294 295 294 294 293 292
311 311 311 311 312 315 318 322 322 321 321 321 322 326 330 332 333 331 328 325 324 319 312 310 308 310 309 308 304 300 297 296 295 294 293 292 292 292 292 293 293 292 292
311 311 311 311 312 313 314 319 321 320 320 321 324 328 330 332 331 329 326 322 320 312 308 309 309 309 308 304 301 297 296 295 294 293 292 292 291 291 291 291 291 291 291
310 311 311 312 313 314 313 317 320 320 321 323 326 328 330 331 331 329 324 321 315 307 308 308 309 308 304 301 298 296 295 294 293 292 291 291 290 290 289 290 290 290 290
310 310 310 311 314 316 314 317 320 320 322 324 327 329 330 329 328 327 321 317 307 308 308 308 307 304 300 298 296 295 293 293 292 291 291 290 290 289 289 289 289 289 290
310 311 311 313 315 317 317 317 320 320 321 324 326 328 329 327 326 320 313 308 307 308 308 307 304 300 298 296 295 293 292 292 291 291 290 290 289 288 288 288 288 288 288
314 314 313 312 315 318 318 318 319 320 320 323 325 327 327 323 318 314 307 307 307 308 307 304 300 298 296 294 293 292 292 292 291 290 290 289 288 288 287 287 287 287 287
314 315 315 312 315 317 317 316 316 319 319 322 324 326 322 316 312 306 307 306 307 306 303 300 297 295 294 293 293 292 292 291 290 289 289 288 287 287 286 286 286 286 286
313 314 315 314 315 315 314 313 315 318 318 321 323 320 316 312 307 306 306 306 305 303 300 297 295 294 293 293 292 292 291 290 290 289 288 287 286 286 286 286 286 286 286
313 313 314 313 313 312 310 311 313 317 318 319 319 316 310 305 306 306 306 305 302 300 297 296 294 293 293 293 293 292 291 290 289 288 287 286 285 286 286 286 286 286 286
310 311 311 311 310 309 307 308 315 318 316 316 314 309 305 305 305 305 304 302 300 298 296 294 293 293 293 293 292 291 290 289 288 287 286 285 285 286 286 286 286 286 286
309 309 309 307 306 303 307 314 318 314 314 310 307 305 304 304 305 304 302 300 298 296 294 294 294 294 293 292 290 289 288 287 287 286 286 285 285 284 285 285 286 285 285
306 305 304 303 302 305 313 315 313 310 307 306 305 305 304 304 303 301 299 297 296 294 294 294 293 293 292 291 289 288 286 286 286 286 286 285 285 285 285 285 285 285 285
305 302 302 303 304 312 315 311 309 305 304 305 305 304 303 302 300 299 297 295 294 294 294 293 293 292 291 290 288 287 286 285 285 285 285 285 285 285 285 284 285 285 285
304 301 301 301 305 310 309 307 305 303 304 304 304 303 301 300 298 296 295 294 293 293 293 292 292 291 290 288 286 285 285 285 285 285 285 285 285 285 285 285 285 285 285
303 305 306 307 306 307 306 305 303 303 303 303 302 301 300 299 296 295 294 293 293 293 292 292 292 290 288 286 285 285 284 285 286 285 285 285 285 285 285 285 285 284 284
304 306 306 306 307 305 305 304 302 302 302 302 301 299 297 296 295 294 293 293 292 292 291 291 290 288 286 285 284 284 284 285 285 285 285 285 285 284 285 285 284 283 283
309 309 309 309 307 305 303 303 302 302 302 300 299 297 296 295 294 293 292 292 291 291 291 290 288 286 285 284 283 283 283 285 285 285 285 285 284 284 284 283 283 283 283
309 309 309 307 305 304 303 303 302 301 300 299 298 296 296 294 293 292 291 291 290 290 290 289 287 285 284 283 283 282 283 284 284 284 284 284 284 283 282 282 282 282 282
308 307 307 305 302 302 302 303 301 300 299 298 297 296 295 293 291 291 290 290 290 290 289 286 285 284 284 283 282 283 284 284 284 284 283 283 282 281 282 281 282 282 281
305 306 305 304 301 301 301 302 300 299 299 298 296 295 292 291 290 289 289 289 290 288 285 284 284 283 283 283 283 283 284 284 284 283 283 282 281 281 281 281 281 281 280
305 305 305 303 302 300 300 300 300 299 298 296 296 292 290 290 289 289 289 290 288 285 284 283 283 282 282 282 282 283 283 283 283 282 281 281 280 280 280 280 280 281 281
305 304 303 303 301 299 300 299 298 297 297 296 292 290 289 289 288 288 289 288 285 284 283 283 282 282 281 281 282 282 282 282 281 280 280 280 280 280 280 280 281 282 283

GFSMW_850_thetae_051.txt.gz
Theta_e
319 319 320 321 322 323 324 325 325 325 325 330 335 337 337 336 336 336 336 334 331 331 330 329 329 329 326 312 311 312 312 309 304 301 300 301 300 299 298 299 298 298 297
315 317 318 319 321 323 324 324 324 325 327 330 331 335 336 335 336 336 335 333 332 331 331 329 330 327 317 311 311 311 308 306 302 299 300 302 301 301 299 299 297 296 296
315 315 314 317 319 320 322 324 324 325 327 331 333 335 335 335 335 334 333 332 332 331 330 329 328 325 310 310 311 309 305 302 300 298 298 300 301 299 297 297 297 296 295
315 315 314 314 314 318 321 322 324 325 328 332 332 329 328 329 329 330 332 331 331 330 329 327 319 313 311 310 310 307 304 300 298 297 297 295 294 295 296 297 296 296 295
315 314 314 313 314 313 319 322 323 325 329 331 331 328 327 326 326 330 330 329 329 326 324 318 309 314 313 310 310 304 302 298 297 296 295 294 294 294 294 294 295 294 294
312 312 313 313 313 313 315 320 323 325 329 330 327 324 325 324 326 329 330 328 326 323 317 316 313 308 309 308 305 303 299 297 296 295 295 294 293 293 293 293 293 292 293
312 311 312 312 313 313 313 317 323 325 327 326 325 325 325 324 326 329 330 327 323 319 315 315 310 307 308 305 303 299 297 296 295 294 294 293 292 291 291 291 291 291 291
311 311 311 311 312 313 314 316 323 324 324 324 324 325 324 325 328 330 327 327 323 318 309 308 307 306 305 302 299 297 296 295 295 294 293 293 292 291 290 290 290 290 290
313 312 312 312 312 313 315 318 322 323 322 323 323 321 324 328 329 328 325 319 316 309 307 307 306 303 301 299 297 296 295 294 294 293 292 292 291 290 290 289 289 289 289
315 314 315 315 315 314 316 319 321 321 321 322 319 320 326 328 327 325 321 317 310 307 306 305 303 301 299 297 296 295 295 294 293 292 291 291 290 289 289 289 288 288 288
314 314 314 315 315 315 317 320 320 319 318 316 315 320 327 325 322 318 315 309 308 305 305 303 302 299 297 296 295 295 294 293 292 292 291 290 289 288 288 287 287 287 287
315 315 315 315 315 315 319 320 318 316 313 311 313 318 323 318 316 311 308 307 305 303 303 301 299 297 296 295 295 294 293 292 292 291 290 289 288 288 287 287 287 287 287
314 314 315 315 316 316 319 317 313 311 308 308 313 317 314 314 309 307 305 304 304 303 301 299 297 295 295 295 294 293 293 292 291 290 289 288 288 287 287 287 286 287 287
312 314 315 316 317 317 316 312 309 306 304 309 312 310 308 307 306 304 304 304 302 301 299 297 295 295 295 294 294 293 292 291 289 289 288 288 287 287 286 286 286 286 286
311 312 314 314 314 312 310 306 303 303 304 307 306 305 305 305 304 304 303 302 300 299 297 295 295 295 294 293 293 292 290 289 288 288 288 287 287 286 286 286 286 286 286
309 310 311 311 310 306 302 300 301 304 305 309 305 305 303 304 303 302 301 300 298 297 295 295 294 294 293 293 292 291 288 287 287 287 287 286 286 286 286 286 286 286 286
307 307 306 303 301 298 297 297 304 304 306 307 304 302 303 303 302 300 299 298 297 295 295 294 294 293 292 292 290 288 287 287 287 287 286 286 286 286 286 285 286 285 285
304 303 300 298 296 296 295 301 305 305 305 303 302 302 302 302 300 299 298 297 295 294 294 293 293 292 292 290 288 287 286 285 286 286 286 286 286 286 286 286 285 285 285
302 300 297 295 295 297 298 304 302 303 303 301 301 301 301 301 300 298 297 295 294 293 293 292 292 292 289 288 287 286 285 285 285 286 286 286 286 285 286 285 285 285 284
299 297 296 296 298 299 304 303 301 302 302 301 301 301 301 300 298 297 296 294 293 292 292 292 292 291 288 287 286 285 284 284 285 285 285 285 286 286 286 285 285 284 283
301 301 302 303 305 305 304 304 301 300 301 301 301 300 298 297 296 298 294 292 292 291 291 291 290 288 286 286 285 284 283 284 285 285 285 284 285 285 285 285 283 283 283
302 300 300 301 299 298 299 299 301 301 300 301 300 298 297 297 299 292 292 291 291 290 291 290 287 286 285 285 284 283 284 285 285 284 284 284 285 285 284 283 282 283 283
306 303 304 300 298 299 300 302 301 301 300 299 298 299 301 294 292 291 291 290 290 291 289 287 286 285 284 284 284 284 284 284 284 284 284 284 284 283 282 282 282 282 281
303 304 303 302 298 299 301 302 301 300 301 301 300 297 293 292 291 290 290 289 290 290 287 286 285 284 283 283 283 282 283 283 283 283 283 282 282 281 281 281 281 282 281
301 300 301 300 301 301 301 301 301 301 300 297 295 294 291 290 290 289 289 290 290 287 285 285 283 282 282 282 282 282 283 283 283 283 282 281 281 281 281 281 282 282 282
300 298 299 303 301 300 301 301 300 298 297 295 294 292 290 289 289 289 289 291 287 285 285 284 282 282 282 281 281 282 282 282 282 281 280 280 280 280 280 281 283 283 283

GFSMW_850_thetae_054.txt.gz
Theta_e
319 318 319 319 319 322 325 327 326 326 326 334 338 339 336 337 336 335 333 334 332 331 330 328 328 328 328 326 318 311 312 311 308 305 302 301 302 301 301 299 299 299 298
317 318 319 319 320 320 321 324 326 326 325 325 334 337 336 336 335 335 334 335 333 332 330 329 328 329 328 325 313 312 312 310 307 302 301 301 301 301 302 299 298 298 296
316 316 316 318 319 320 321 322 323 325 325 324 330 337 337 336 336 335 335 334 333 333 330 330 329 328 328 323 321 314 312 310 305 301 300 299 301 300 298 298 297 297 296
315 315 316 315 315 318 319 321 324 324 325 325 329 334 336 336 335 333 333 334 332 330 329 329 327 328 326 320 312 311 310 305 301 301 299 297 296 296 296 297 297 296 296
315 315 315 315 315 315 317 318 321 324 324 325 330 333 334 333 332 332 332 332 329 328 327 326 326 326 320 313 312 309 306 304 301 299 297 296 296 295 295 295 296 295 294
313 313 313 314 314 314 314 316 319 321 323 326 331 333 332 331 333 332 332 331 328 327 325 323 319 315 314 313 310 307 304 302 299 297 296 296 295 294 293 293 293 293 294
312 312 312 312 312 313 313 313 318 322 323 328 331 333 332 330 328 328 327 326 327 325 322 318 315 314 311 310 307 305 302 300 297 296 295 295 294 293 292 292 292 291 292
312 312 311 311 311 312 312 312 313 324 324 328 331 331 330 328 324 323 324 326 326 323 319 313 315 313 308 307 305 304 300 298 296 296 295 295 294 293 292 291 290 290 289
313 312 312 312 311 312 312 313 313 319 325 329 330 327 324 324 323 323 325 325 323 319 314 313 310 307 307 305 303 300 298 296 295 295 295 294 293 292 291 290 289 289 289
315 315 315 314 315 314 314 314 315 318 324 326 325 325 325 325 322 324 326 322 317 313 312 310 306 305 305 302 300 298 296 295 295 294 294 293 292 291 290 289 288 288 287
315 314 314 314 314 314 315 315 315 321 322 324 323 324 324 321 322 325 321 319 315 310 307 305 304 302 302 299 297 296 295 295 294 294 293 292 291 290 289 288 288 287 287
315 315 314 314 315 315 315 316 318 321 321 321 322 322 318 320 321 319 315 311 309 304 304 304 302 301 300 297 296 295 295 294 294 293 291 291 290 289 288 287 287 287 286
313 312 313 314 315 315 315 317 320 320 319 320 321 316 317 315 315 313 310 306 305 305 302 304 300 300 297 296 295 295 294 293 293 291 290 290 289 288 287 287 286 286 286
310 311 313 314 316 315 317 319 318 318 317 316 312 313 308 311 309 309 305 304 304 303 303 300 299 297 296 295 295 294 294 293 291 290 289 288 288 287 287 286 287 286 286
310 311 313 314 317 316 315 314 313 311 313 309 306 306 304 307 307 306 303 303 304 302 299 299 297 296 295 295 294 293 293 291 289 288 288 288 287 287 287 287 287 287 286
309 310 312 313 312 311 311 309 307 306 307 305 299 304 303 304 303 302 302 302 301 299 298 297 296 295 295 294 293 292 291 289 288 288 287 286 286 286 286 287 287 287 287
307 308 308 308 305 305 306 305 301 300 301 299 299 302 302 302 301 301 301 301 299 298 296 295 294 294 294 293 292 290 289 288 287 286 286 286 286 286 286 286 286 286 286
305 305 305 303 302 301 301 299 297 297 297 296 300 301 301 301 302 301 300 299 298 296 295 294 293 293 293 293 290 288 288 287 286 285 285 286 286 286 286 286 286 286 285
302 301 299 299 297 296 296 296 295 295 294 296 299 301 304 301 300 300 299 298 296 295 294 293 293 293 292 290 289 288 286 285 285 285 285 285 285 285 286 287 286 285 285
299 297 296 295 294 294 294 295 295 295 297 302 302 299 299 300 300 299 297 298 294 293 292 292 292 292 289 288 287 286 285 284 284 285 284 284 285 285 286 286 286 285 284
297 296 295 295 294 294 295 296 299 300 300 302 302 299 298 298 298 300 297 293 293 292 292 292 291 288 287 287 286 285 284 284 285 285 284 284 284 285 286 285 285 284 284
300 299 298 298 299 299 300 301 303 304 304 301 298 298 298 298 300 297 293 292 292 291 291 291 288 287 286 285 284 284 285 285 285 284 284 284 284 284 284 284 283 283 284
301 302 302 300 301 302 303 302 298 298 298 297 297 297 300 301 295 292 292 291 290 291 291 288 287 286 285 284 283 283 283 282 283 283 284 284 283 282 282 282 282 282 282
298 296 296 295 295 296 298 299 297 298 299 300 302 303 299 294 292 291 290 290 290 290 288 287 286 285 284 283 282 283 283 283 283 283 283 282 281 281 281 281 282 283 282
299 297 296 296 297 298 300 300 300 301 302 303 301 296 294 292 290 290 289 290 290 288 286 285 284 283 283 283 282 282 283 283 283 283 282 281 281 281 281 282 283 283 283
299 298 300 299 299 299 300 299 301 302 302 298 296 294 292 290 289 289 290 291 288 286 285 284 283 283 283 282 282 282 283 283 282 281 280 280 280 280 281 282 283 283 283

GFSMW_850_thetae_057.txt.gz
Theta_e
318 318 318 319 319 320 321 324 327 333 336 336 338 337 336 338 335 335 334 333 332 329 330 331 330 328 327 327 327 324 312 312 313 313 308 304 303 302 301 300 300 299 298
316 318 318 318 318 318 319 322 327 327 335 335 336 336 335 335 335 334 333 333 332 331 330 331 330 328 327 328 327 320 312 312 313 313 309 303 303 302 302 301 298 298 297
315 315 316 317 318 319 319 319 321 326 327 330 331 332 335 335 333 334 334 333 332 332 332 332 329 328 327 328 325 318 316 312 312 311 306 301 301 300 298 298 298 298 297
314 315 315 315 316 317 318 319 320 322 325 326 326 328 330 333 334 334 334 333 333 333 332 331 329 327 326 327 323 321 312 311 311 310 303 299 299 298 297 297 297 297 296
315 315 315 315 315 315 315 316 318 319 322 324 325 325 331 332 332 332 331 332 332 331 332 330 328 326 325 325 320 314 313 311 311 307 301 299 297 296 296 296 297 296 295
313 314 314 314 315 315 314 314 316 318 319 323 324 324 325 329 331 331 330 332 331 332 330 329 327 326 325 319 315 312 311 307 309 304 299 297 296 295 295 294 294 294 295
312 312 312 312 311 312 313 313 313 314 319 321 323 325 325 327 327 328 328 330 330 329 329 327 326 325 322 314 314 310 306 308 304 300 298 297 295 295 294 293 292 292 293
312 312 311 311 311 311 311 311 312 312 315 321 321 324 327 330 329 328 328 329 329 328 327 326 324 321 313 312 310 306 304 305 300 298 297 296 295 294 293 292 291 290 290
314 314 314 313 312 311 311 311 311 312 314 323 324 326 327 328 329 330 330 328 327 326 326 323 319 314 313 307 304 304 301 299 298 297 296 295 294 293 292 291 290 289 289
314 314 314 314 314 314 313 312 312 313 314 324 325 327 326 328 329 328 326 324 324 323 321 316 313 313 308 304 302 303 303 297 297 296 295 294 293 292 291 290 289 288 288
315 315 315 315 315 315 314 314 314 313 315 322 325 326 326 328 328 324 321 322 321 318 315 313 309 308 305 303 301 299 298 296 296 295 294 293 292 291 290 289 289 288 287
315 315 314 313 313 313 314 315 315 315 315 318 321 325 325 325 324 322 320 321 316 313 311 309 304 303 301 300 297 296 297 296 295 294 293 292 291 290 289 288 288 287 286
314 312 311 311 312 312 313 314 314 315 317 319 321 322 322 321 321 321 320 314 311 310 304 304 302 301 300 297 297 296 295 294 294 293 292 291 289 289 288 287 287 287 287
311 310 311 313 313 314 314 314 317 317 318 320 321 320 320 318 316 317 312 310 306 302 301 301 301 298 300 298 295 295 294 293 293 291 290 288 288 288 287 287 287 287 287
309 309 312 309 311 314 314 315 317 318 319 319 318 317 316 312 309 308 307 304 301 301 304 301 297 298 298 294 295 294 293 292 291 289 288 287 287 286 286 287 287 287 287
308 307 310 311 307 305 309 311 314 315 316 314 317 312 307 306 302 304 302 301 299 299 299 300 298 296 294 294 294 293 292 290 289 288 287 286 286 286 286 286 287 287 287
307 305 304 307 308 308 305 309 309 309 310 310 308 302 300 298 299 298 300 301 297 298 300 300 295 294 294 294 293 292 290 289 288 287 286 285 285 285 285 285 286 286 286
304 304 302 302 303 302 302 304 304 304 305 302 296 295 297 298 300 300 295 298 301 302 296 294 294 293 293 293 291 289 288 288 287 285 285 285 284 284 285 286 286 286 286
302 301 300 301 300 300 299 300 299 299 297 294 294 297 300 297 297 299 304 304 296 295 294 293 293 293 292 291 289 289 288 287 285 285 285 284 284 284 286 286 286 286 285
299 299 298 297 298 297 297 297 294 293 294 294 298 301 297 300 302 299 296 294 294 294 293 292 292 292 290 288 288 287 286 285 285 285 284 284 284 285 286 286 286 285 284
296 296 296 296 295 294 295 295 295 296 298 297 297 299 301 298 294 297 298 298 295 292 292 292 291 290 288 288 286 284 285 285 284 283 283 283 283 285 285 285 284 283 284
297 295 296 295 297 296 297 299 299 300 300 299 298 296 295 297 299 301 297 292 291 291 292 291 289 288 287 285 284 284 283 283 283 283 283 284 284 284 283 283 282 283 283
299 299 299 297 298 298 301 300 301 300 300 300 299 296 297 299 297 292 291 291 291 291 291 289 287 286 285 284 284 283 283 283 283 283 283 283 282 281 281 281 281 282 283
303 302 301 301 300 300 302 302 301 299 296 294 295 298 298 294 291 291 290 290 291 291 288 287 286 285 284 284 284 283 283 283 283 283 283 282 281 281 281 282 283 283 283
304 304 302 303 302 302 301 299 296 295 296 299 300 297 293 291 291 290 290 290 290 288 287 286 285 284 284 283 283 282 283 283 283 283 281 281 281 281 282 283 283 284 284
299 301 301 300 299 297 296 295 295 296 301 302 296 294 291 290 290 289 290 290 288 287 286 285 284 284 283 282 282 282 283 283 281 281 280 280 280 281 282 283 284 284 284

GFSMW_850_thetae_060.txt.gz
Theta_e
317 318 318 318 319 321 322 322 321 324 333 335 335 336 335 337 336 335 334 334 333 330 327 328 329 329 328 328 325 326 324 314 312 312 310 307 305 303 303 302 300 300 299
316 317 317 318 318 318 319 319 320 321 324 333 334 334 334 335 334 335 335 333 333 332 329 328 329 330 329 328 326 326 323 314 312 312 310 306 306 302 303 302 300 299 298
314 315 316 316 317 317 318 318 318 319 321 327 333 333 333 333 332 333 334 333 333 332 331 330 329 330 330 328 326 326 322 313 312 312 309 305 304 303 301 299 298 299 298
313 313 314 314 315 315 316 317 318 319 319 326 330 333 333 331 331 330 331 333 333 332 330 330 330 330 331 328 325 326 324 314 312 312 309 304 305 300 298 298 297 298 297
314 315 315 314 314 315 315 315 316 318 319 321 327 331 332 331 330 329 329 331 332 330 330 329 330 330 329 326 324 325 323 313 308 309 308 304 304 299 298 297 297 296 296
312 314 314 314 315 314 315 315 315 315 317 319 319 323 329 330 330 329 327 330 329 330 329 329 329 329 328 325 324 325 318 309 308 306 305 303 300 298 297 296 296 295 296
311 310 310 311 311 312 314 314 314 314 314 316 318 321 322 325 327 327 328 328 328 328 328 328 328 326 327 325 325 322 315 310 307 307 302 301 299 297 296 295 294 293 294
313 313 313 313 311 311 311 311 312 313 313 313 314 318 322 324 324 326 327 327 327 326 327 326 326 324 326 325 322 316 314 307 305 303 300 299 298 296 295 294 293 292 292
315 316 315 314 314 314 311 311 311 311 311 311 312 314 320 323 324 324 326 327 327 326 326 325 324 323 323 319 314 313 310 302 301 299 300 297 296 295 294 293 292 290 289
314 315 316 316 316 316 315 313 311 311 311 311 311 313 321 323 323 325 326 326 326 325 325 323 321 320 316 311 311 306 306 302 300 297 296 296 295 294 293 292 291 289 289
315 315 315 315 314 314 314 315 314 313 312 313 312 318 325 325 325 324 325 326 325 325 323 322 317 314 310 311 303 305 306 299 298 296 295 294 294 293 292 291 290 289 288
315 315 314 311 311 311 311 312 314 314 314 314 313 313 323 324 324 324 324 325 324 322 321 317 313 309 306 301 301 300 298 298 297 295 294 293 293 292 290 289 289 288 287
315 312 310 310 311 311 313 313 312 313 314 314 314 315 320 323 323 323 323 321 320 320 313 310 308 306 300 297 299 298 297 296 295 294 293 292 291 290 289 288 288 287 287
313 309 309 310 311 313 314 315 313 313 314 315 316 318 321 322 321 320 319 318 316 311 307 304 303 299 300 297 296 297 299 295 294 293 290 290 289 288 288 287 286 287 287
310 308 309 309 309 309 312 312 312 314 313 317 317 319 319 318 315 315 315 309 306 305 303 301 296 294 296 297 298 295 295 294 292 290 289 289 288 287 286 286 287 287 287
308 307 308 309 305 305 306 307 308 309 311 310 314 314 311 310 310 308 304 302 301 300 300 301 301 298 298 294 294 294 294 291 290 289 288 287 286 286 285 285 285 286 287
306 304 305 306 306 305 303 305 304 305 306 309 306 305 305 303 302 300 299 297 298 301 303 300 298 298 295 296 295 293 291 289 288 288 287 286 285 285 285 284 285 286 286
305 302 302 303 303 303 305 303 298 299 300 302 299 300 299 299 299 298 300 300 300 299 298 298 295 294 294 293 292 290 289 288 287 286 285 285 285 284 284 286 286 286 286
302 300 299 300 301 301 301 303 302 302 300 298 298 296 297 301 299 300 300 300 300 296 293 293 294 294 292 291 290 289 287 287 286 286 285 284 284 284 285 286 286 285 285
299 298 297 298 299 301 301 301 299 298 296 295 297 299 301 300 300 298 299 297 298 293 295 295 291 291 290 289 288 287 286 286 286 285 284 284 283 284 285 286 285 284 283
297 296 296 296 297 296 297 298 296 297 298 299 300 300 300 299 296 295 294 291 295 294 291 291 291 289 288 287 286 285 284 284 284 284 284 284 284 284 284 284 283 282 283
295 295 295 295 294 294 296 295 299 299 300 301 300 298 298 298 298 296 297 294 290 290 291 290 289 288 287 286 285 284 283 283 283 283 284 284 284 283 282 281 281 282 282
298 296 297 297 296 295 299 300 300 300 301 300 300 300 299 299 298 293 290 289 290 291 291 288 287 286 286 284 284 284 283 283 283 284 284 283 282 281 281 281 282 283 283
302 301 300 300 300 299 301 302 300 300 300 300 299 298 298 293 289 289 289 290 291 290 288 287 286 285 284 284 284 284 283 283 283 283 283 281 281 281 281 282 284 284 284
303 302 302 302 301 301 301 301 301 300 299 299 299 297 291 290 289 289 289 290 290 288 287 286 285 284 284 284 283 283 283 283 282 282 281 281 281 281 282 284 284 284 284
303 303 303 304 302 302 302 300 297 297 300 300 297 291 290 289 289 289 290 290 288 287 286 285 285 284 283 283 282 282 282 282 281 281 281 281 281 281 283 284 284 284 285

GFSMW_850_thetae_063.txt.gz
Theta_e
317 317 317 317 317 318 322 322 321 321 322 328 336 336 334 335 335 335 334 332 333 333 329 327 326 327 327 327 327 327 325 324 322 311 310 309 308 306 304 302 301 300 300
316 316 317 316 316 318 318 321 321 320 319 320 324 334 334 333 334 334 333 334 333 333 332 329 327 327 328 328 328 328 325 325 319 311 310 308 307 306 304 302 301 301 300
314 315 316 316 316 317 317 318 318 319 319 319 320 327 334 333 332 333 333 334 334 331 330 329 329 327 328 328 328 328 325 325 319 312 310 308 308 304 303 301 300 300 299
312 313 313 314 313 314 316 316 317 316 317 318 318 320 325 331 332 330 330 331 333 331 329 329 330 328 328 329 328 328 325 325 320 314 312 309 307 304 301 300 299 298 298
311 312 313 313 314 313 314 315 315 316 316 318 318 318 319 329 332 331 330 330 330 332 329 328 329 328 328 328 327 325 325 324 322 317 309 308 306 304 301 299 299 297 297
311 310 310 312 313 314 314 314 314 315 315 316 318 320 321 326 332 332 331 330 329 329 330 329 328 327 328 328 326 323 323 324 324 318 308 308 305 303 301 298 297 297 296
313 312 311 311 311 311 312 313 314 314 314 314 315 317 320 323 325 328 330 330 328 328 328 329 328 327 327 325 325 322 322 324 321 314 312 306 304 301 299 297 297 296 296
315 316 315 313 313 312 311 311 311 311 313 313 313 313 315 318 320 322 325 329 329 328 327 327 328 327 325 324 322 319 321 321 311 309 308 303 301 298 297 296 296 294 294
315 316 316 316 316 314 313 312 311 311 310 311 311 311 311 313 317 321 323 326 327 328 326 326 327 325 324 322 321 319 317 313 307 304 302 299 297 297 296 295 294 293 291
315 315 315 315 316 316 316 316 315 312 311 311 311 311 311 311 312 319 324 325 325 326 326 325 324 323 322 320 318 316 309 306 304 300 301 300 297 296 295 294 293 291 290
315 315 315 313 312 312 312 312 314 315 314 311 311 311 312 311 312 319 324 326 325 324 324 324 322 322 321 317 312 307 306 302 302 302 298 296 295 295 294 293 291 290 289
315 314 314 311 310 310 311 314 314 313 312 314 313 312 313 312 320 323 324 325 324 324 323 322 321 318 314 308 304 304 304 300 297 296 295 295 295 294 292 291 290 289 288
315 314 312 310 309 310 312 313 314 315 313 312 313 313 315 314 322 323 323 323 320 321 321 320 316 309 304 301 299 296 296 296 297 297 294 295 293 292 290 289 289 288 287
314 312 310 308 309 309 310 312 313 313 312 312 313 314 318 319 321 320 318 318 319 319 318 313 309 304 299 298 297 298 300 300 297 294 293 292 291 290 289 288 287 287 287
311 310 308 307 308 309 308 307 310 311 312 312 313 316 317 317 316 317 316 314 315 314 308 302 300 299 298 298 300 302 299 297 294 292 291 290 289 288 287 286 286 286 286
309 307 305 306 307 309 306 303 306 308 306 308 309 309 312 313 311 313 311 309 306 304 301 299 297 297 297 301 300 298 294 292 292 290 289 288 287 287 286 285 285 285 286
305 304 304 305 306 308 305 306 304 304 305 305 305 307 308 311 305 302 301 299 299 298 299 299 298 299 300 301 300 300 298 292 289 288 288 287 286 286 285 284 284 285 285
303 302 303 304 305 304 305 305 304 306 305 306 307 301 301 302 300 300 299 298 297 297 298 300 300 299 295 293 293 291 290 288 288 288 287 286 286 285 284 284 285 286 285
302 301 301 301 301 301 302 304 304 305 307 308 303 301 302 302 301 299 301 300 300 299 300 296 294 292 292 291 291 289 288 288 287 286 285 284 285 284 285 286 286 285 284
300 300 299 298 299 299 300 300 300 299 298 299 299 298 299 300 299 299 299 299 299 300 296 296 295 291 290 289 289 289 288 286 286 285 284 284 284 284 285 286 284 283 282
299 298 297 296 296 296 297 298 297 296 295 295 297 298 299 299 299 300 298 299 299 295 292 290 290 290 289 288 286 285 285 284 284 285 284 284 284 284 284 283 282 281 283
297 296 295 295 295 295 295 296 296 297 297 298 298 299 299 300 300 299 298 295 292 289 290 291 290 288 287 285 284 284 284 284 284 284 284 284 283 282 282 281 281 281 283
297 295 295 294 294 294 295 298 298 297 298 299 300 300 300 299 298 295 291 289 289 290 291 289 287 286 285 285 284 284 284 283 283 283 283 282 282 282 281 281 282 283 284
300 297 297 297 296 297 297 299 298 299 300 301 300 299 298 294 290 289 289 289 290 290 288 287 286 286 285 285 284 284 283 283 283 283 282 282 281 281 281 282 283 284 284
302 301 301 301 300 299 300 300 300 301 301 300 300 298 291 290 289 289 289 289 290 288 287 286 286 285 284 284 283 282 282 282 282 282 281 282 281 282 282 284 284 284 284
303 303 303 302 301 301 301 300 301 300 301 300 295 291 290 289 289 289 289 290 289 287 287 286 285 284 283 282 282 282 282 282 281 281 281 281 281 281 283 284 284 285 285

GFSMW_850_thetae_066.txt.gz
Theta_e
317 317 317 317 317 317 318 319 321 322 323 325 329 333 334 335 334 333 334 333 332 330 327 325 325 325 324 325 327 326 327 326 325 323 317 310 310 308 307 305 303 302 301
317 317 316 316 317 316 316 317 317 319 320 321 322 323 326 331 333 333 331 333 333 332 331 330 327 326 325 325 327 327 326 326 325 322 315 309 308 309 308 304 304 302 302
313 314 314 314 315 315 315 316 317 317 318 319 319 321 323 327 333 332 332 331 333 332 331 330 330 328 326 326 327 327 327 327 325 323 315 309 310 308 307 306 303 302 301
311 312 312 312 313 314 314 314 316 316 316 317 318 319 319 321 322 326 327 331 331 331 330 329 328 329 328 327 327 327 327 326 323 322 317 314 311 306 305 305 304 302 300
310 310 310 312 312 313 313 313 314 315 315 315 315 317 318 319 319 322 328 328 330 329 328 328 328 328 328 328 327 327 327 327 326 323 316 322 312 308 305 302 302 300 299
313 313 313 312 311 311 312 313 313 313 314 314 314 316 317 318 318 319 324 331 329 330 329 328 328 328 329 328 327 327 326 326 325 325 317 315 315 309 305 302 301 299 298
315 314 313 312 312 311 311 311 312 313 313 314 314 314 315 317 319 320 324 330 330 330 330 328 328 327 326 327 327 327 325 325 324 323 318 312 309 309 302 301 299 298 298
315 315 316 315 314 313 312 311 311 310 311 312 313 313 315 316 319 320 322 324 327 328 329 329 328 327 327 326 326 324 323 323 322 317 313 306 305 301 298 298 298 297 296
315 315 315 315 316 316 316 315 313 311 311 311 310 311 312 312 313 315 320 323 326 326 327 327 328 328 327 326 325 323 322 321 317 312 307 300 302 299 302 304 297 295 294
315 315 315 315 315 315 315 315 315 315 314 313 312 311 311 311 310 310 312 315 319 324 325 327 326 327 326 325 323 321 318 313 309 304 301 299 302 299 299 298 295 294 293
315 315 314 313 313 312 311 311 311 312 313 315 315 313 312 311 311 311 311 312 318 324 326 326 325 325 323 322 319 315 309 305 299 297 297 300 300 296 295 294 293 292 291
314 314 312 312 310 310 310 312 313 314 314 314 312 313 313 312 312 313 313 316 320 324 324 322 320 320 320 318 313 306 303 299 295 298 300 298 298 296 293 293 292 290 289
314 312 311 309 309 309 311 311 312 313 313 314 313 311 313 313 313 315 318 320 320 319 319 318 318 317 314 310 305 305 303 301 299 295 295 298 300 298 293 290 290 289 288
313 312 310 309 309 308 310 310 312 312 312 312 312 311 312 314 315 317 318 316 317 317 317 316 315 310 308 305 301 297 296 295 296 301 302 302 292 291 290 289 288 287 287
312 310 309 308 308 307 309 309 310 310 310 311 311 310 311 313 316 316 314 314 314 313 313 311 306 304 302 298 296 296 298 300 301 302 301 297 290 289 289 288 287 286 286
309 308 307 305 307 306 306 306 308 307 306 309 309 310 311 313 315 314 313 312 308 305 304 302 303 301 298 297 297 299 302 301 300 298 293 288 287 288 287 286 285 285 285
307 306 304 304 306 305 305 307 304 302 304 307 308 309 310 312 312 307 308 305 305 303 301 297 296 297 299 300 300 299 299 298 290 289 288 288 287 287 286 285 285 285 285
306 304 303 303 303 303 304 306 304 303 302 304 306 305 306 309 305 302 302 297 298 297 297 298 299 300 299 299 298 294 291 288 287 288 287 287 286 285 285 285 286 286 286
303 302 301 301 302 302 303 304 305 304 301 300 301 301 303 305 301 298 297 297 296 299 299 299 299 298 299 293 292 290 287 288 287 287 286 285 285 285 285 286 286 285 284
301 300 300 299 300 300 301 301 302 300 300 299 298 299 300 300 297 297 297 298 299 299 299 299 299 291 290 290 287 288 287 286 285 285 285 284 284 284 285 285 284 283 282
298 298 298 297 298 298 298 298 297 297 296 297 298 297 297 297 298 298 298 299 299 299 295 292 290 289 289 287 287 286 285 285 285 284 284 284 284 284 283 282 282 281 283
297 296 296 296 296 296 296 296 297 297 297 298 297 297 297 298 298 298 298 297 292 290 290 289 289 288 287 286 285 284 285 284 284 284 284 284 283 282 281 281 281 281 282
297 296 295 295 295 295 295 297 299 298 297 297 297 298 298 298 298 296 292 290 290 290 290 289 287 286 286 285 285 285 284 284 284 283 283 282 282 282 282 281 282 283 284
299 298 297 296 295 295 297 299 299 298 298 298 298 298 298 294 290 290 289 290 290 289 288 287 286 286 285 285 285 284 284 283 283 282 282 281 281 281 281 282 283 284 284
302 302 302 301 301 300 299 300 299 298 299 299 298 296 291 290 290 290 289 290 289 288 287 286 286 285 285 284 283 283 282 282 282 282 281 281 281 281 282 284 284 284 285
303 304 303 303 302 301 300 300 299 299 299 299 294 291 290 290 289 289 290 290 289 287 287 286 285 284 284 283 283 282 282 282 281 281 281 281 281 281 283 284 285 285 285

GFSMW_850_thetae_069.txt.gz
Theta_e
316 316 316 316 316 316 317 318 320 325 331 335 334 332 333 333 332 333 333 332 333 332 327 323 319 325 327 326 325 326 326 326 326 324 323 322 314 310 310 308 306 304 303
315 316 316 317 317 316 316 317 317 318 321 322 323 326 330 331 331 332 332 332 332 332 331 329 325 322 325 325 324 325 326 326 326 324 323 317 315 312 311 308 307 305 304
312 314 314 315 315 314 315 316 316 316 317 318 320 321 325 324 325 327 330 331 332 331 332 331 330 327 326 325 325 324 326 327 326 325 322 315 315 313 313 310 308 306 304
309 310 311 312 312 313 313 315 315 315 316 316 317 318 320 321 321 322 323 327 330 331 331 331 331 331 330 328 326 325 325 327 326 325 325 323 320 311 311 313 309 307 304
311 311 310 310 311 311 312 313 314 315 315 315 315 316 317 318 319 319 320 321 325 330 331 331 330 329 329 329 328 327 326 326 326 326 326 324 323 323 317 307 308 307 304
313 313 313 313 312 311 311 311 312 312 313 314 314 314 315 315 317 318 320 321 322 327 328 331 330 329 329 328 328 328 327 326 326 326 325 324 323 322 318 306 303 303 304
314 315 314 313 313 312 312 311 311 312 312 312 313 313 314 314 316 317 319 320 322 322 325 328 329 328 328 327 328 328 327 326 325 325 324 323 320 317 312 308 307 300 299
314 315 315 315 315 315 314 313 312 311 311 311 312 313 313 313 315 316 318 320 322 324 326 329 329 329 328 327 327 328 327 326 323 322 321 319 316 311 308 303 298 298 299
315 315 315 315 315 315 315 315 315 314 313 311 311 311 312 313 313 314 316 319 321 324 326 327 327 328 328 328 327 327 326 323 321 320 318 315 310 303 306 301 302 300 302
315 315 314 314 314 314 314 314 314 315 315 315 314 313 311 310 311 311 312 313 315 318 323 325 327 327 328 327 327 325 324 321 319 317 311 301 300 300 298 298 298 296 294
313 314 313 313 312 311 312 311 311 312 312 312 313 314 315 313 311 310 311 311 312 314 318 323 325 325 324 323 324 322 319 317 314 307 301 299 299 296 297 296 295 297 300
313 313 312 311 310 310 310 311 311 312 313 313 313 314 313 313 313 311 311 312 313 314 315 319 322 322 321 321 319 317 312 310 306 301 298 297 297 299 297 300 298 296 291
313 312 310 309 309 309 309 310 311 312 312 313 313 313 312 311 312 313 313 314 314 317 318 318 319 319 318 317 314 310 308 302 298 297 298 300 301 300 299 296 295 293 289
312 311 310 308 308 308 309 310 310 311 311 312 312 312 311 311 312 313 314 315 317 318 316 315 314 314 313 311 309 305 301 301 300 301 300 300 300 300 299 293 289 288 287
311 309 307 307 308 307 308 308 307 308 309 309 308 308 308 310 311 312 315 316 316 313 312 311 308 306 306 304 303 302 301 298 297 299 300 299 299 292 287 287 287 286 286
309 308 307 306 307 307 308 308 307 307 307 308 308 308 309 310 311 312 312 312 312 311 308 305 303 300 301 299 296 297 298 301 300 299 300 292 289 287 286 286 285 285 285
308 306 305 305 305 306 308 308 305 305 305 303 303 305 307 309 310 310 311 309 305 302 303 301 299 299 299 299 298 300 299 300 296 291 288 287 286 286 286 285 285 285 285
307 304 304 303 303 304 305 304 304 307 305 303 301 302 303 305 304 305 307 304 302 300 298 298 297 297 298 298 299 300 298 291 288 287 287 286 286 285 285 285 286 286 286
305 303 302 302 302 302 303 303 302 303 303 304 302 301 300 301 300 302 302 298 296 295 295 297 297 298 298 296 294 290 288 288 287 286 285 286 286 285 285 286 286 285 284
303 301 301 299 299 300 300 300 300 300 301 302 302 300 299 298 297 297 295 295 296 297 297 297 297 296 294 290 289 288 286 286 285 285 286 286 285 284 285 285 283 282 282
301 299 299 297 298 298 297 298 298 299 298 299 300 298 298 296 296 297 297 298 298 297 297 295 290 290 289 288 287 285 285 286 286 285 285 284 284 283 282 282 282 282 283
299 297 297 297 297 297 296 298 299 299 299 298 298 298 298 298 298 298 297 297 296 292 290 290 288 287 286 285 284 284 285 285 284 284 283 283 282 282 282 282 282 282 283
299 297 296 296 296 296 297 301 300 299 299 298 298 297 297 297 298 296 291 290 290 290 289 287 287 286 285 285 285 285 284 284 283 283 283 282 282 282 282 282 282 283 284
299 299 296 296 296 298 300 301 302 300 299 299 298 297 298 296 291 290 289 290 290 289 287 287 286 286 285 285 285 284 284 283 283 283 282 281 281 281 281 282 283 284 284
301 302 299 297 298 300 301 302 301 300 299 299 298 297 291 290 289 289 290 289 289 287 287 286 286 285 285 284 283 283 283 282 282 282 281 281 281 281 282 284 284 285 285
303 303 303 302 301 302 302 301 300 299 299 298 296 290 289 289 289 289 290 290 288 287 287 286 285 285 284 283 283 282 282 282 281 281 281 280 281 281 283 284 285 285 285

GFSMW_850_thetae_072.txt.gz
Theta_e
317 317 316 316 317 318 319 319 320 323 327 332 336 337 334 330 332 332 333 333 332 333 333 327 322 320 323 325 323 323 323 324 326 326 325 324 323 322 313 310 310 308 307
316 315 316 316 316 316 316 316 317 318 320 322 327 335 334 331 329 332 333 332 332 333 333 332 328 323 321 326 327 326 324 325 326 326 318 316 318 322 320 314 310 309 307
314 314 313 314 315 316 316 316 316 317 317 319 322 326 330 331 329 330 329 330 331 331 332 331 331 328 323 322 325 326 325 325 325 326 322 319 319 316 318 317 312 309 307
309 311 312 312 313 314 315 316 315 316 316 316 325 329 323 323 323 325 326 326 328 331 331 331 330 330 329 325 323 325 325 325 325 326 326 325 320 315 312 313 311 310 309
312 312 310 310 311 312 313 313 314 315 315 315 317 328 329 320 319 321 322 322 323 324 330 330 329 329 329 329 328 326 326 326 325 325 326 325 324 323 317 312 315 312 312
313 313 313 312 312 311 311 311 312 312 313 313 314 315 327 327 324 317 318 319 320 320 322 325 329 330 330 330 330 329 328 327 326 325 326 326 325 325 322 315 311 308 307
314 315 314 314 313 313 312 311 311 311 311 312 312 313 314 325 327 323 317 317 317 318 320 323 326 329 329 330 330 329 329 328 327 326 325 326 325 323 322 318 314 310 303
315 314 314 314 314 314 314 314 313 311 311 311 312 312 313 313 314 316 315 315 316 317 319 321 324 326 329 329 329 329 329 328 328 327 326 324 322 320 317 311 305 307 308
315 314 314 314 314 314 314 315 315 314 314 313 311 311 312 312 313 313 314 315 318 318 322 325 326 329 330 330 328 329 328 327 326 326 325 321 320 317 314 307 305 297 299
314 314 314 314 314 314 314 314 314 313 314 314 314 314 313 311 311 311 312 313 315 317 320 323 325 327 327 327 327 326 326 325 324 322 317 317 316 313 310 305 301 300 301
313 314 314 313 313 312 312 312 311 311 311 312 312 313 313 314 314 312 311 311 312 314 316 319 321 324 324 324 325 325 324 323 320 317 313 309 300 303 301 300 300 300 297
311 314 313 312 310 310 310 310 311 311 312 312 312 313 313 313 313 313 313 312 312 314 315 315 317 319 320 320 322 322 321 319 316 313 311 307 302 298 299 299 301 301 299
311 313 312 310 309 309 309 310 310 311 311 312 312 312 312 312 312 311 312 313 313 314 313 314 315 316 318 319 318 317 316 314 311 308 302 300 299 299 301 302 301 300 298
312 309 307 307 307 308 309 309 309 309 310 310 310 310 310 310 311 312 313 313 313 314 315 317 317 316 315 314 312 311 310 308 304 301 299 299 301 301 300 299 295 291 288
311 307 306 306 306 307 308 308 308 308 308 308 308 308 309 309 310 311 311 312 313 314 314 314 313 312 309 306 304 301 301 301 300 301 301 301 301 300 299 294 288 287 286
309 304 305 305 306 307 308 307 307 307 307 308 308 308 308 308 310 310 310 310 310 309 307 307 306 302 299 297 297 297 299 298 298 300 299 299 300 291 288 287 286 285 285
306 303 304 304 305 306 307 307 306 306 306 307 308 307 307 308 308 308 308 308 306 304 303 301 301 300 300 300 298 298 298 299 299 298 295 289 288 287 286 286 285 285 285
304 304 304 303 304 304 305 305 305 307 305 305 306 305 304 305 304 304 303 302 301 301 299 298 298 297 296 297 297 298 299 293 290 288 288 287 287 286 285 285 286 286 286
305 303 303 302 303 303 303 303 304 305 305 304 304 302 302 303 301 300 300 299 299 298 297 297 297 298 297 298 295 291 289 288 288 287 286 286 285 285 285 287 286 285 284
304 302 301 301 301 301 301 300 301 302 302 303 302 301 300 301 299 298 297 297 297 297 297 297 297 297 294 290 288 288 287 286 286 286 285 285 284 284 284 284 283 283 283
302 300 299 299 299 299 298 299 299 300 300 301 301 299 298 298 298 297 296 297 297 297 297 297 294 290 289 288 287 285 285 286 286 285 284 284 284 283 283 282 282 282 282
300 299 298 298 298 297 297 298 299 299 299 300 299 298 298 298 298 297 297 297 297 294 290 290 289 288 287 286 285 286 286 285 284 284 283 283 283 283 283 282 282 282 283
299 298 297 296 296 297 297 299 299 299 299 299 299 299 298 297 297 297 295 291 290 290 289 288 287 287 286 285 285 285 284 284 283 283 283 283 282 282 282 282 282 283 285
300 298 296 296 296 298 299 300 299 299 299 300 299 298 298 297 292 290 290 290 290 289 288 287 286 286 285 285 285 284 284 284 283 283 282 282 282 282 282 282 284 285 285
300 298 297 296 298 300 300 300 300 300 300 299 298 298 295 291 290 290 290 290 289 288 287 287 286 285 285 285 284 283 283 282 282 282 282 281 281 281 282 284 284 285 285
301 300 298 297 301 301 301 301 301 301 301 299 298 292 290 290 290 290 290 289 288 287 287 286 286 285 285 284 283 282 282 282 282 281 281 281 281 282 284 284 285 285 285

GFSMW_850_thetae_075.txt.gz
Theta_e
317 317 317 319 321 321 322 323 331 338 342 339 336 337 337 337 339 337 336 335 334 333 332 331 328 326 325 326 326 326 325 322 323 320 317 319 323 324 323 321 312 310 310
317 317 317 318 319 319 319 320 321 323 331 337 334 331 332 334 334 335 333 331 332 334 333 332 332 330 327 328 328 326 324 323 322 321 319 319 317 323 323 322 316 310 310
316 317 317 317 317 317 318 318 318 319 320 328 334 329 332 333 330 333 331 329 333 333 333 332 332 332 330 328 327 327 325 324 323 323 323 321 322 320 317 319 317 311 309
316 315 314 314 315 315 316 316 317 317 317 318 327 332 334 331 326 328 331 331 330 331 333 333 333 332 331 330 328 327 326 325 324 323 324 323 321 320 314 314 314 311 307
313 312 312 312 312 313 313 314 315 316 316 316 317 324 329 332 331 330 332 329 326 327 330 332 331 331 331 331 330 328 327 325 325 325 324 324 323 322 319 315 315 311 309
315 315 315 313 311 311 311 312 312 312 313 314 315 317 324 328 331 330 328 330 331 327 323 324 326 328 330 331 330 329 327 326 324 325 325 324 324 324 324 323 315 315 312
315 316 315 315 314 312 312 311 311 312 311 311 313 313 314 322 328 329 330 329 330 329 324 320 322 322 326 328 331 330 328 327 325 324 325 324 324 323 323 323 318 313 311
316 316 315 315 314 314 314 313 313 312 311 311 311 311 312 312 315 322 327 329 328 323 321 322 322 324 328 330 331 330 329 327 327 324 323 323 324 322 319 321 320 313 310
316 316 315 314 313 314 314 314 315 314 314 314 312 312 311 311 312 313 319 318 322 326 330 328 326 326 329 329 330 328 325 325 325 323 323 323 322 320 316 315 309 311 308
316 316 314 313 312 313 314 314 314 314 314 314 314 314 314 313 312 311 311 315 317 317 320 327 327 327 326 325 324 324 325 324 322 324 324 322 319 315 314 312 308 307 303
316 316 314 312 313 313 313 313 312 311 311 311 312 312 313 313 313 313 313 313 312 312 312 316 322 323 323 322 321 320 321 320 320 320 320 319 319 310 311 309 306 306 307
313 314 312 312 311 312 312 310 310 310 311 312 312 312 312 312 312 313 313 313 313 312 312 315 317 318 318 318 319 318 319 319 318 317 316 313 311 309 306 304 303 303 303
312 313 311 311 311 311 310 309 309 309 309 311 311 311 311 311 312 312 311 311 312 312 313 313 314 313 314 315 315 316 316 314 311 310 309 308 306 304 301 301 300 301 301
312 313 310 309 310 309 308 307 308 308 307 309 308 308 308 309 310 310 311 311 312 312 312 312 313 314 315 314 313 312 309 308 306 303 300 299 299 299 301 301 300 299 298
313 312 309 308 308 306 306 306 308 308 308 308 308 307 308 308 309 310 310 311 311 311 312 312 312 312 312 309 307 305 302 300 298 297 297 298 299 300 299 299 296 290 288
313 311 307 306 305 304 305 306 307 308 308 309 308 308 308 308 308 308 309 309 310 309 309 309 308 306 304 303 302 300 298 298 299 299 299 300 299 299 295 288 287 287 287
312 307 305 304 305 305 305 306 306 307 308 307 308 307 307 307 308 308 309 308 308 306 305 305 302 303 303 301 300 299 299 298 298 299 299 297 290 289 288 287 287 286 286
309 305 302 303 304 304 304 305 306 306 305 307 307 306 305 306 307 306 306 306 304 303 302 302 302 302 299 299 299 298 298 298 296 291 288 288 287 287 286 286 286 287 286
306 303 302 304 304 303 302 303 304 305 305 306 306 304 305 305 304 303 302 300 300 300 300 299 299 299 299 298 298 295 290 289 288 288 287 287 286 286 285 285 286 285 285
306 305 303 302 303 302 300 301 302 304 304 305 304 303 303 303 302 300 299 299 298 298 298 298 297 297 294 290 289 288 287 287 287 286 286 285 285 285 284 284 284 284 284
304 302 301 301 301 301 300 300 302 303 303 302 301 300 299 298 298 297 297 297 298 297 297 297 293 291 289 288 288 287 287 286 286 285 285 284 284 284 283 283 283 283 282
302 300 300 300 299 299 299 300 300 300 301 300 298 297 297 297 297 297 296 297 297 295 292 290 289 288 288 287 287 287 287 286 285 284 284 284 283 283 283 282 282 282 283
300 300 298 298 298 298 299 299 299 299 298 297 297 298 297 296 296 296 296 293 290 290 289 288 287 287 286 286 286 286 285 285 284 284 283 283 283 282 282 282 282 283 285
299 298 297 296 297 297 299 299 299 298 298 298 297 296 296 294 293 290 290 290 289 289 288 287 287 287 286 286 286 285 284 284 284 283 283 282 282 282 282 282 283 285 285
299 298 297 296 297 299 300 299 298 298 298 298 297 297 295 291 290 290 289 290 290 288 288 287 287 286 286 286 284 284 283 283 283 282 282 282 281 281 282 283 285 285 286
301 299 297 296 298 300 299 299 299 298 299 298 298 296 291 290 291 291 291 290 289 288 288 287 287 286 286 285 285 284 283 283 283 282 282 281 281 281 283 284 285 286 286

GFSMW_850_thetae_078.txt.gz
Theta_e
319 318 320 321 324 325 330 340 341 341 339 336 337 339 339 339 340 337 337 336 334 333 332 332 331 326 324 323 322 323 325 326 324 322 319 317 319 322 323 323 322 318 312
318 318 318 318 319 322 322 325 332 338 341 339 336 337 335 336 338 337 336 337 335 334 332 332 332 331 328 327 325 324 324 325 325 322 321 317 316 320 322 323 322 320 317
318 318 317 317 317 318 320 320 321 323 328 335 337 335 334 332 330 333 335 335 334 334 334 333 332 332 331 330 329 327 326 325 324 323 322 319 320 321 320 321 321 318 316
316 316 316 316 317 317 318 318 318 319 320 322 327 331 331 329 325 323 324 326 333 334 332 332 333 333 332 331 331 329 328 327 326 324 322 321 322 321 318 317 315 314 312
315 315 315 315 315 315 316 316 317 317 317 318 319 325 332 332 329 330 329 324 326 329 331 332 333 333 332 331 331 330 329 328 328 326 324 323 322 321 318 318 317 313 312
314 313 312 313 313 313 313 313 313 315 316 316 317 317 322 326 329 332 333 332 332 331 329 328 329 330 331 331 332 330 329 329 328 328 327 325 323 323 321 315 316 316 314
315 315 314 314 313 312 311 311 312 312 312 312 313 314 315 318 324 327 330 331 329 330 329 330 330 332 332 333 333 329 329 328 328 328 327 326 324 322 322 321 319 315 311
316 316 315 315 313 313 312 312 312 312 311 311 311 311 312 312 313 319 326 328 329 330 330 330 330 330 326 327 327 326 327 327 327 326 325 324 324 323 322 320 319 315 309
316 315 315 314 313 313 313 314 314 314 314 313 313 312 311 311 312 312 313 321 326 329 327 326 326 326 324 324 324 324 325 326 326 326 325 324 322 321 321 320 318 313 310
316 315 315 313 312 313 313 313 314 314 314 314 314 314 313 313 312 312 312 312 316 318 317 321 322 323 323 322 321 322 323 324 325 324 324 322 321 321 320 317 313 310 310
316 315 314 312 312 312 313 313 312 312 312 312 311 312 312 313 313 313 313 313 312 313 314 312 313 318 320 320 319 320 320 321 321 320 319 319 318 316 314 311 310 309 307
316 315 313 312 311 312 312 312 311 311 311 311 311 312 311 311 312 312 312 313 313 313 312 312 313 315 317 317 317 316 315 316 316 316 315 314 312 311 308 307 305 305 304
313 314 312 311 311 311 311 311 310 310 310 310 311 311 311 310 311 311 311 311 311 311 311 311 312 313 313 312 313 313 312 313 314 312 309 308 307 306 304 302 303 300 302
311 313 311 310 310 310 310 309 309 308 309 309 308 307 307 307 308 308 309 309 309 309 310 310 310 310 311 311 311 311 312 311 310 309 306 304 302 298 300 300 300 299 299
311 313 310 309 309 308 308 308 308 309 309 308 308 307 306 307 307 308 308 309 309 310 309 310 311 311 311 310 310 309 308 305 304 301 300 299 299 299 299 299 298 295 290
311 312 310 309 308 307 306 307 308 308 308 308 308 307 308 309 309 310 310 310 310 311 310 310 310 310 309 307 305 302 302 301 300 299 300 299 297 298 296 290 289 288 286
312 312 309 309 308 307 306 306 307 307 307 308 308 308 308 309 308 308 308 308 308 308 308 307 304 304 303 301 301 300 300 300 300 299 299 299 298 293 289 287 287 286 287
314 310 308 307 306 306 305 305 306 306 307 307 307 307 307 307 307 308 307 306 305 304 304 303 302 302 299 298 299 299 299 299 297 292 289 287 287 287 287 286 286 287 286
309 307 307 307 305 304 304 303 305 305 306 306 305 304 306 305 305 306 306 303 302 301 301 300 299 299 299 298 299 293 291 291 289 288 287 287 287 286 285 286 285 285 285
307 306 305 305 304 303 303 301 302 304 304 305 304 303 304 304 303 302 302 300 299 299 299 298 298 298 297 293 291 289 288 288 288 287 287 286 285 285 285 284 284 284 283
307 305 303 303 303 302 301 300 301 303 304 304 303 302 302 301 300 299 299 299 299 298 297 296 294 291 289 289 288 288 287 287 286 286 285 285 285 284 284 283 283 283 283
304 303 302 302 301 300 300 300 301 301 302 303 301 300 298 298 298 298 298 298 298 298 295 291 290 289 288 288 287 287 287 286 285 285 284 284 283 283 283 283 283 283 283
304 302 301 300 299 299 299 299 300 300 301 300 298 297 298 297 297 296 297 296 292 290 289 289 288 288 287 287 287 286 286 285 285 284 284 283 283 283 282 282 282 282 284
302 301 299 298 298 298 298 299 300 300 299 298 298 297 296 296 296 295 291 290 290 289 289 288 288 287 287 287 287 286 285 285 284 284 283 283 283 282 282 282 282 284 285
302 301 299 299 298 298 299 300 299 299 299 299 297 296 295 295 292 290 290 290 290 289 289 288 288 287 287 287 285 285 284 284 283 283 283 282 282 281 281 282 284 285 286
303 301 301 300 299 298 300 299 299 299 298 297 296 296 294 291 290 291 291 290 289 289 289 288 287 287 287 286 285 285 284 284 283 283 283 282 281 281 282 284 285 286 286

GFSMW_850_thetae_081.txt.gz
Theta_e
320 321 321 321 329 336 340 339 339 338 336 337 340 339 339 338 337 336 335 333 332 332 332 332 330 328 324 323 322 322 323 324 327 327 325 322 320 319 319 320 320 321 322
319 319 321 320 325 327 332 337 340 339 339 337 335 337 337 338 338 336 335 334 333 333 333 332 331 331 329 327 324 324 324 323 325 326 323 321 319 319 319 319 321 321 320
317 318 318 321 321 322 322 324 328 337 339 336 336 335 337 336 336 336 336 335 335 333 333 331 332 331 331 330 329 327 326 325 325 325 324 320 319 320 320 320 320 321 320
316 316 317 317 317 318 321 322 322 322 321 325 328 336 335 334 333 332 331 331 332 333 333 333 333 333 333 332 331 329 328 327 327 326 325 324 321 321 321 321 321 319 318
317 316 316 316 317 317 318 319 320 320 320 319 320 320 326 330 330 329 327 325 326 329 331 333 333 333 333 332 332 330 329 328 328 328 327 325 324 322 321 319 320 319 315
315 314 314 315 315 315 316 316 317 318 318 318 319 319 319 323 328 330 331 331 331 330 329 327 328 329 331 331 331 330 329 329 328 328 328 328 326 324 322 320 320 317 314
314 313 313 313 313 313 313 313 314 314 315 317 317 317 318 318 319 324 330 333 332 331 330 328 328 330 329 330 330 329 329 329 329 328 327 327 326 325 323 322 319 317 314
314 314 314 313 312 312 311 311 311 312 312 312 313 313 314 315 316 316 320 326 329 329 328 329 328 327 327 327 326 325 326 326 326 327 327 327 327 326 324 323 320 317 314
315 315 315 314 312 312 312 312 312 312 312 312 311 311 311 311 311 312 312 314 321 326 326 325 326 326 323 322 322 322 323 323 323 324 325 326 325 325 325 323 321 317 315
315 315 315 313 312 312 312 313 313 313 313 313 313 313 313 312 312 311 311 312 312 315 321 325 324 324 323 320 321 321 321 321 321 321 321 325 324 324 321 320 317 314 312
315 315 314 312 311 312 312 312 312 313 313 312 312 312 312 313 313 313 312 312 312 312 313 315 314 314 317 319 318 319 318 319 319 319 322 322 321 320 318 316 313 311 309
315 314 314 312 311 311 312 312 312 312 311 311 311 311 311 311 311 312 312 312 313 313 313 313 313 311 312 314 314 315 315 315 315 316 316 316 316 315 313 311 309 308 306
315 314 313 311 311 311 311 311 311 311 310 310 310 310 311 311 311 311 311 311 311 311 311 310 311 312 311 313 313 312 311 311 311 312 312 312 311 309 306 305 305 303 303
315 314 312 311 311 310 310 310 310 310 309 309 309 308 307 307 307 308 308 308 309 309 309 309 309 310 309 309 310 310 310 310 310 309 309 307 305 304 303 302 302 301 300
312 313 311 310 310 309 309 309 309 309 309 309 308 307 307 307 307 308 308 308 309 308 308 309 309 309 310 309 309 309 308 307 306 306 304 301 301 301 301 300 300 299 295
310 313 312 310 309 309 308 308 308 308 309 308 308 307 307 308 309 309 309 309 309 309 309 310 309 309 308 306 305 303 303 302 301 301 300 300 300 300 299 299 297 294 291
311 312 312 310 309 308 308 308 308 308 308 308 308 308 308 308 308 308 308 308 308 308 308 307 306 305 304 301 302 301 301 301 300 300 299 299 299 295 290 287 287 286 287
312 312 311 309 308 307 307 307 307 307 307 307 307 307 307 307 307 307 307 307 306 305 305 305 304 303 301 300 300 299 299 299 297 293 290 289 288 287 287 287 286 287 286
312 312 310 308 307 306 305 305 306 306 306 306 306 306 306 305 305 306 306 304 303 302 302 302 301 300 300 299 296 293 292 292 290 288 288 287 287 286 285 285 285 285 284
310 310 308 307 306 305 304 304 304 305 305 306 305 305 305 304 303 304 304 302 301 301 300 299 299 298 297 294 291 289 289 289 288 288 287 286 285 285 284 285 284 284 284
307 307 306 306 304 304 303 303 303 304 305 305 305 304 303 302 302 302 301 300 299 299 298 298 294 290 289 289 289 288 288 288 287 286 286 285 285 284 284 284 284 283 283
307 306 305 304 303 302 302 302 302 302 303 304 303 303 302 301 300 300 299 298 298 297 295 293 290 289 289 288 288 288 288 287 286 285 285 284 284 284 283 283 282 282 282
306 305 303 302 301 301 301 300 300 301 302 302 301 300 299 299 298 298 298 298 297 293 290 290 289 289 288 288 288 288 286 286 285 285 284 284 283 283 282 282 282 282 283
305 304 302 301 300 299 299 299 299 300 301 301 299 298 299 297 297 297 297 294 291 290 290 289 289 288 288 288 287 286 286 285 285 284 284 284 283 283 282 282 282 283 285
304 303 302 300 299 299 299 299 299 300 299 298 297 298 297 296 296 294 291 291 290 290 289 289 288 288 288 287 287 286 285 284 284 284 283 283 283 282 281 282 283 284 285
304 302 301 300 300 299 299 300 300 299 297 297 298 297 296 296 295 291 291 290 289 289 289 288 288 288 287 287 286 285 284 284 284 284 283 283 282 282 281 282 284 285 286

GFSMW_850_thetae_084.txt.gz
Theta_e
320 320 325 327 329 330 337 338 339 338 339 338 338 337 337 336 336 336 335 332 331 331 331 331 330 328 327 325 322 322 323 324 326 327 328 327 326 324 323 320 319 319 320
319 319 319 323 326 324 330 338 339 338 337 338 338 338 338 338 336 335 334 336 334 333 332 332 331 331 330 329 326 323 323 323 324 326 327 327 325 324 322 320 319 319 318
318 318 318 320 323 328 324 332 337 338 338 337 337 337 339 338 337 337 336 334 332 333 333 332 333 332 332 331 330 328 325 325 325 324 326 324 323 322 322 321 320 319 318
317 317 317 317 319 325 329 329 327 328 337 338 336 335 334 336 336 336 334 334 334 334 334 333 332 331 333 333 332 331 329 326 326 325 325 325 325 322 322 322 321 320 318
316 316 316 316 318 322 325 327 329 328 326 330 331 333 334 337 336 336 335 334 333 335 335 332 332 332 333 333 333 332 330 329 328 327 326 326 325 325 323 322 323 322 320
316 316 316 315 316 318 319 320 321 321 320 320 320 320 321 325 329 330 329 328 328 328 329 330 331 329 331 331 331 331 331 329 329 329 327 327 327 326 324 323 323 322 322
316 315 314 314 315 315 316 317 318 318 319 318 318 318 319 319 320 321 323 324 324 327 330 329 329 328 327 326 327 328 330 328 329 327 327 327 327 327 327 325 325 322 322
314 314 313 313 313 313 313 314 314 315 315 316 316 316 316 317 317 317 318 320 324 326 328 327 329 327 326 326 326 326 325 326 325 326 325 325 325 324 326 324 322 320 320
314 314 314 313 313 313 312 312 312 312 312 312 312 312 313 314 314 314 314 314 315 319 327 329 328 325 324 325 324 323 322 322 322 322 322 322 322 324 322 322 322 320 316
314 314 314 313 312 312 312 312 312 312 312 312 312 312 311 311 311 311 311 311 312 312 313 321 326 324 322 323 322 321 319 320 320 320 320 320 320 320 318 320 320 317 317
315 315 314 313 312 312 312 313 313 313 313 313 313 313 313 313 313 313 312 312 311 312 312 313 318 323 323 323 322 319 319 318 318 318 317 317 319 319 318 318 315 315 313
315 314 314 313 312 312 312 312 313 313 312 312 312 312 312 312 312 312 312 312 312 312 312 312 312 313 313 313 314 314 315 314 315 315 315 315 315 314 313 313 312 311 310
314 314 314 313 311 311 311 311 311 311 311 311 310 311 311 311 311 310 310 311 311 312 312 312 312 312 311 311 311 312 312 311 311 311 311 311 311 311 310 310 309 307 306
314 314 313 312 311 310 310 310 310 310 309 309 309 309 309 308 308 308 307 308 309 309 308 308 308 309 310 310 310 310 309 309 309 309 309 309 309 308 307 305 304 303 302
314 314 313 311 310 310 310 309 309 309 309 309 308 307 307 307 307 307 307 307 307 307 307 308 308 308 309 309 309 309 307 307 307 308 308 306 305 303 302 302 302 301 300
313 313 313 311 310 310 309 309 309 309 309 308 308 307 307 307 307 308 308 308 308 308 308 308 309 309 308 308 308 307 305 305 304 303 302 302 301 301 301 300 300 298 293
310 311 312 312 310 310 309 309 308 308 308 308 308 308 308 308 308 308 308 308 308 308 308 308 308 306 306 305 304 303 303 302 302 301 301 300 300 299 295 291 289 288 287
310 310 311 311 310 309 308 307 307 308 307 307 307 308 307 307 307 307 307 307 307 307 307 306 305 305 304 302 301 301 301 300 298 295 293 292 291 289 288 288 287 287 287
313 312 311 311 310 308 307 306 306 306 306 307 307 307 307 306 306 306 306 305 304 305 303 304 303 302 301 300 296 294 293 293 291 289 289 288 288 287 287 286 286 285 285
312 311 311 309 308 307 306 305 305 305 305 306 306 306 306 305 305 305 305 304 303 302 302 302 300 299 297 294 291 290 289 289 289 288 288 287 286 286 285 285 285 284 284
310 309 308 307 307 306 305 304 304 304 305 305 305 305 305 304 304 303 303 302 301 300 300 299 298 294 290 289 288 289 289 288 288 287 286 286 286 285 284 284 283 283 283
307 306 305 305 304 304 303 303 303 303 303 304 304 304 303 303 302 302 300 300 299 299 298 296 291 289 289 288 288 288 288 287 287 286 286 285 285 284 284 283 283 283 283
307 306 305 304 303 302 302 302 302 302 302 302 303 303 302 301 300 300 299 299 298 297 294 291 290 289 288 288 288 288 287 286 286 285 285 285 284 284 283 283 282 282 282
306 306 304 303 302 301 300 300 300 300 301 301 302 302 301 299 299 298 298 298 297 293 290 290 289 289 288 288 288 287 286 286 286 285 285 284 284 283 283 282 282 282 283
305 305 304 303 301 300 300 299 299 299 300 300 301 300 299 299 298 298 298 296 291 290 289 289 289 288 288 288 287 287 286 286 285 285 284 284 283 283 282 282 282 283 284
305 305 304 303 302 300 299 298 298 299 300 300 299 298 298 298 296 298 295 291 290 290 289 289 288 288 288 288 287 286 285 285 285 285 284 284 283 283 282 282 282 283 285

GFSMW_850_thetae_087.txt.gz
Theta_e
320 328 331 334 334 333 335 339 341 340 338 339 338 337 336 336 335 334 333 332 331 329 329 329 329 329 328 327 325 323 323 323 325 326 326 326 327 327 326 325 324 323 321
318 319 321 331 328 331 330 336 338 339 338 338 337 337 337 336 335 334 334 335 333 331 331 331 331 331 330 330 329 327 325 324 324 325 325 326 325 324 324 324 323 323 321
317 318 319 318 322 328 330 333 336 337 339 339 338 337 337 337 337 336 335 334 333 332 332 332 332 332 332 331 331 330 329 327 324 324 325 325 325 324 323 322 322 322 321
317 316 318 318 318 322 329 333 336 336 336 336 338 338 338 338 337 336 334 332 333 333 333 334 333 332 333 333 333 333 332 330 328 325 325 325 325 324 324 324 324 323 323
317 316 316 317 317 318 322 327 332 330 336 336 336 336 336 336 336 336 337 337 334 334 334 333 333 333 333 333 333 333 333 332 330 329 327 326 325 325 325 324 325 324 324
316 316 315 316 317 317 317 323 331 335 333 330 331 331 333 334 334 334 335 336 335 334 334 333 331 330 330 332 332 333 332 331 330 329 328 328 326 327 326 325 325 324 323
316 316 315 315 316 317 319 325 330 332 332 332 327 325 324 324 324 327 331 331 332 331 330 329 329 330 329 328 327 329 328 328 329 329 329 327 327 327 327 326 324 324 323
315 316 315 315 315 316 317 318 320 320 319 318 318 318 318 318 318 319 319 320 320 320 320 320 324 330 326 327 326 324 323 325 325 326 327 326 326 324 324 324 324 322 321
312 314 314 314 314 314 314 315 315 316 316 316 316 316 315 315 316 316 316 316 316 316 316 317 321 328 329 328 325 325 322 323 322 321 321 321 321 320 320 320 320 321 318
312 313 313 313 313 313 313 313 313 313 313 313 313 312 312 312 311 312 312 312 312 312 312 313 315 325 325 326 325 325 320 321 320 318 318 318 319 318 321 319 317 318 318
313 313 313 313 313 312 312 311 311 311 311 311 312 312 312 312 312 312 311 311 311 311 311 312 313 319 326 324 324 322 321 318 319 316 317 317 316 316 316 317 316 317 315
314 314 313 312 311 311 311 312 312 312 312 313 313 312 312 312 312 312 312 312 312 312 312 312 312 313 318 321 322 321 321 319 314 315 314 314 314 313 313 312 312 311 310
314 313 312 312 311 311 311 312 312 312 312 312 312 311 311 311 311 311 311 311 311 312 312 312 312 312 313 313 312 313 314 312 311 311 311 310 310 310 310 309 309 309 309
314 313 312 312 311 311 311 311 311 311 311 311 311 310 310 309 309 309 308 308 308 308 308 308 309 309 309 310 309 310 310 309 308 308 308 308 309 309 308 307 307 306 304
313 313 313 313 311 311 311 311 311 310 310 310 310 309 308 308 307 306 306 307 307 307 307 307 307 307 308 308 308 308 308 308 307 307 308 307 307 307 305 304 303 303 302
314 314 313 313 312 311 311 310 310 309 309 309 309 308 307 307 307 307 307 307 307 307 307 307 307 307 307 307 307 306 306 306 305 306 306 305 304 303 302 302 301 300 297
315 314 313 313 312 311 310 310 309 309 309 308 308 308 307 307 307 307 307 307 307 307 307 307 307 307 307 307 306 305 304 303 303 303 303 302 301 300 298 294 290 289 289
310 311 311 311 311 310 309 308 308 307 308 308 307 307 307 307 307 307 307 307 306 307 306 306 306 305 304 303 303 302 302 302 302 300 297 294 291 290 289 289 288 288 287
312 312 310 310 311 310 309 308 307 307 307 306 307 307 307 307 306 306 306 306 305 305 305 304 304 303 303 301 300 299 297 295 292 290 289 289 289 288 288 287 286 286 286
313 312 312 310 310 310 309 307 306 306 306 306 306 306 306 306 305 305 305 304 303 303 303 304 302 301 299 294 294 291 290 290 289 289 288 288 287 286 286 286 286 285 285
311 311 310 310 310 308 307 306 305 305 305 305 305 305 306 305 304 304 303 303 303 302 302 301 300 296 293 290 289 289 289 289 288 287 287 287 286 286 285 285 285 284 284
308 308 308 308 307 306 306 305 304 304 304 304 303 304 304 304 303 303 302 302 301 300 300 299 297 291 289 289 289 288 288 287 287 287 286 286 286 285 285 284 284 283 283
306 305 305 305 305 305 304 303 303 303 303 303 303 302 303 303 303 302 301 300 300 299 298 295 290 289 289 289 289 288 287 287 287 286 286 286 285 285 284 284 283 283 282
309 308 306 304 304 303 303 302 301 301 301 301 302 301 302 302 301 300 299 299 299 298 295 291 290 289 289 289 288 288 288 287 286 286 286 286 285 284 284 283 283 282 282
306 306 305 304 303 302 301 300 300 300 300 300 301 301 301 301 300 300 300 299 297 295 291 290 289 289 288 288 288 287 287 286 286 286 286 285 285 284 283 283 282 283 283
307 305 305 304 303 302 300 299 299 299 299 299 300 301 300 300 300 299 298 297 294 291 290 289 289 288 288 288 288 287 287 286 286 286 286 285 284 284 283 283 282 282 283

GFSMW_850_thetae_090.txt.gz
Theta_e
322 321 327 330 331 331 332 333 335 339 338 338 339 339 338 337 336 333 334 333 332 330 329 329 328 328 328 328 327 325 324 323 324 324 324 324 324 324 324 325 325 325 325
322 322 321 332 331 330 332 331 331 335 336 337 337 336 336 336 336 335 334 333 333 332 330 329 329 329 330 330 329 329 328 326 325 324 324 324 325 325 325 325 324 323 322
320 322 320 324 330 330 326 331 334 336 335 336 334 336 336 336 336 335 335 334 333 333 333 331 331 330 331 330 330 331 330 330 328 326 325 325 325 325 325 325 325 325 324
316 317 318 318 320 323 329 332 333 336 338 338 336 336 336 336 335 334 335 334 331 333 332 333 333 332 332 332 332 332 332 331 331 329 327 325 324 325 325 325 325 324 324
316 316 316 316 317 318 318 327 332 335 337 338 339 339 336 337 336 337 336 335 332 334 332 331 331 331 332 331 333 332 332 332 331 330 329 328 327 325 325 324 325 326 325
316 316 316 316 316 317 318 319 326 329 328 335 337 336 336 335 335 335 334 334 333 333 332 332 331 330 331 330 329 329 330 332 330 329 329 329 327 327 326 325 326 326 325
315 316 316 316 316 316 317 317 318 323 327 327 328 329 328 331 332 333 332 331 331 331 332 333 333 332 330 328 328 329 329 328 329 328 327 328 327 326 325 325 325 325 324
314 315 316 316 315 315 316 316 318 323 328 329 327 327 328 327 326 324 322 322 323 326 328 328 326 324 323 325 329 327 327 326 322 322 325 325 325 325 326 325 325 322 322
313 314 314 314 315 315 316 317 320 323 325 326 326 324 322 320 319 318 318 317 317 317 317 317 317 316 317 322 330 328 328 327 324 323 322 322 320 319 320 321 321 320 320
312 311 312 313 314 314 315 316 316 316 316 316 316 316 316 316 315 315 314 313 313 313 314 314 314 313 314 321 328 325 326 325 324 319 320 319 317 316 317 317 317 318 318
311 311 312 312 312 312 313 313 313 313 313 313 313 312 312 312 311 311 311 311 311 311 311 311 311 311 312 316 328 327 326 323 322 321 319 317 316 316 315 315 315 315 314
312 312 312 312 312 312 312 312 311 311 311 311 311 311 312 312 312 312 312 312 312 312 312 312 311 312 313 320 322 321 321 321 321 320 318 316 314 313 313 312 312 311 311
312 312 312 312 312 311 311 311 311 311 312 312 312 312 312 312 312 311 311 311 311 311 311 312 312 312 312 313 316 318 318 317 317 316 313 311 312 311 310 309 309 308 308
313 312 312 312 311 311 311 311 311 311 311 311 311 311 311 311 311 310 310 310 310 309 309 309 310 310 311 312 312 312 312 311 311 310 310 309 308 308 308 308 307 307 307
313 313 313 312 311 310 311 311 311 311 311 311 310 310 310 310 309 309 307 306 306 307 307 307 307 307 308 308 309 309 309 308 308 308 307 307 307 307 306 306 305 304 304
313 313 313 313 312 311 311 311 310 310 310 310 310 310 309 308 307 307 307 306 306 306 307 307 307 307 307 307 308 307 307 306 306 305 306 306 306 305 304 303 303 302 301
314 314 314 314 313 312 311 310 310 310 309 309 309 309 308 308 307 307 307 307 307 307 307 307 307 307 306 306 306 306 305 304 304 304 304 303 303 302 301 299 296 292 290
315 314 314 313 313 312 311 310 309 309 309 309 308 308 308 307 307 307 307 306 306 306 306 306 306 306 306 306 305 304 303 302 302 303 302 300 296 292 290 289 289 288 288
309 309 309 310 311 311 310 309 309 309 308 308 308 307 307 307 307 307 306 306 305 305 305 305 305 305 304 302 302 302 302 301 298 294 291 290 290 289 288 288 287 286 286
312 312 313 312 309 310 310 309 309 308 307 307 306 306 306 306 306 306 306 306 304 304 304 304 303 302 301 300 299 296 293 291 290 289 289 289 288 288 287 287 286 286 285
312 312 312 311 309 309 309 309 308 307 306 305 305 306 305 305 305 304 304 304 303 302 302 302 301 300 296 293 291 290 289 289 289 288 288 288 287 287 286 286 285 285 284
309 309 310 309 309 308 308 307 306 305 305 305 305 304 304 305 304 303 303 303 302 301 301 300 299 295 291 289 289 289 288 288 288 288 288 287 287 286 286 285 285 284 284
307 306 306 306 306 306 307 306 304 304 303 304 304 304 303 303 303 303 302 302 301 300 300 299 297 292 289 289 289 288 287 287 287 287 287 287 287 286 286 285 284 284 283
310 307 305 305 307 305 304 304 303 302 302 302 303 303 302 302 301 301 301 301 300 299 298 297 293 290 289 289 288 288 288 287 287 287 287 286 286 286 285 284 284 283 283
309 307 307 306 305 303 303 302 302 301 301 301 301 301 301 301 301 301 300 300 299 298 298 295 290 290 289 289 288 288 287 287 287 287 287 287 287 286 285 284 284 283 283
307 307 305 304 304 303 303 301 300 300 300 300 300 300 300 300 300 300 299 298 297 296 294 290 289 289 288 288 288 288 287 287 287 287 287 287 286 286 285 284 284 283 283

GFSMW_850_thetae_093.txt.gz
Theta_e
323 321 321 328 332 332 330 331 330 331 335 336 335 336 338 337 337 336 333 333 333 333 332 331 331 329 327 326 326 325 324 323 323 323 323 324 324 324 324 325 325 325 325
322 321 322 320 331 331 329 329 330 331 332 334 335 336 335 336 337 335 332 333 334 333 331 330 329 329 329 328 328 328 328 327 326 325 325 325 326 326 326 326 326 324 325
320 321 322 321 325 328 331 331 329 326 327 327 329 332 332 333 334 335 335 334 333 333 332 331 330 329 329 330 330 330 330 330 330 329 326 325 326 326 326 326 325 325 324
318 320 321 320 323 324 324 325 325 325 326 326 329 329 330 331 329 332 335 333 333 333 333 333 332 331 331 330 331 331 330 330 331 330 330 329 327 326 325 325 325 324 324
316 316 317 317 318 322 325 325 324 325 324 327 330 329 328 329 330 333 332 333 330 329 331 331 331 331 331 330 329 329 330 331 331 331 331 330 329 327 326 324 325 325 323
317 317 316 316 316 317 318 318 320 327 327 328 330 331 330 330 330 330 332 331 332 333 333 331 330 331 331 330 331 331 330 330 330 331 331 330 329 328 327 326 325 324 325
315 316 316 316 316 316 316 318 318 319 325 328 328 329 328 331 332 332 332 332 332 332 331 331 332 332 332 332 332 330 329 328 328 329 329 328 327 326 326 325 324 323 322
314 315 315 316 316 316 316 316 317 317 322 327 325 326 327 327 328 328 329 330 330 327 327 329 330 331 330 331 329 326 326 328 328 327 327 323 323 323 322 323 324 322 320
312 313 314 314 315 315 315 316 316 316 318 325 328 328 328 326 327 328 326 322 320 319 318 319 319 319 319 319 318 317 322 329 328 326 325 323 322 322 320 319 318 318 320
311 312 313 314 314 314 315 316 317 319 322 326 327 327 326 325 323 320 319 318 317 316 315 314 314 314 315 315 315 318 327 330 329 327 326 323 319 319 318 315 316 317 317
311 312 311 312 313 314 314 315 316 316 317 317 317 317 317 317 317 316 316 314 313 312 311 311 311 311 311 312 312 317 324 325 327 327 324 321 319 318 316 315 314 314 314
310 310 310 311 312 312 313 313 313 313 313 313 313 312 312 312 312 312 311 311 311 311 311 311 311 311 311 311 315 317 321 323 324 320 320 320 319 317 315 313 313 312 312
311 311 311 311 311 311 311 311 311 311 311 311 311 311 311 312 312 312 312 311 311 311 311 311 312 312 312 313 316 317 319 320 319 319 319 317 316 314 312 311 310 310 308
311 311 311 311 311 311 311 311 311 311 311 311 311 312 312 311 311 311 311 310 310 310 311 310 310 311 311 312 312 313 315 315 315 314 314 312 311 310 310 309 308 308 307
312 312 312 312 311 311 311 311 311 311 311 311 311 311 311 310 310 309 309 308 308 307 307 307 307 306 307 307 308 310 310 310 310 310 309 308 308 308 307 307 306 306 306
313 313 313 312 312 311 311 311 311 311 311 311 311 310 310 309 309 308 308 307 306 306 307 307 306 306 306 307 307 307 307 307 307 307 306 306 307 307 306 306 305 304 303
313 314 314 313 313 312 312 311 311 310 310 310 310 310 309 309 308 308 307 307 306 306 306 307 306 307 307 307 307 307 306 306 305 305 306 306 305 305 304 303 301 297 293
314 314 314 314 313 312 311 310 310 310 310 309 309 309 308 308 307 307 307 307 306 306 306 306 306 306 306 306 306 306 305 304 304 303 303 303 302 300 294 291 290 289 289
313 312 311 311 313 313 312 311 310 309 309 309 309 308 308 307 307 307 307 306 306 306 305 305 304 304 304 305 305 304 303 302 302 302 300 294 291 290 289 289 288 288 288
311 311 311 312 311 309 311 311 310 309 309 308 308 307 307 306 306 306 306 306 305 305 304 304 303 303 303 302 301 301 301 300 296 291 290 289 289 288 288 288 288 287 287
312 312 312 312 312 311 309 310 309 309 308 307 306 306 306 306 306 305 305 305 304 304 303 303 302 301 300 300 298 295 291 290 290 289 289 289 288 288 288 287 287 287 286
310 309 310 311 310 309 308 308 308 307 306 306 306 305 305 305 305 304 304 303 303 302 302 301 301 300 297 294 291 289 289 289 289 288 288 288 288 287 287 286 286 286 285
311 309 306 308 308 307 307 306 306 306 306 305 304 304 304 304 304 304 303 302 302 301 301 301 300 298 294 290 289 289 288 288 288 288 288 287 287 286 286 286 286 285 285
310 309 308 305 305 305 306 306 305 304 304 303 303 303 303 303 303 302 302 301 301 301 301 300 299 296 291 289 289 288 288 288 288 287 287 287 287 286 286 286 285 285 285
307 309 308 308 308 308 307 306 305 303 302 302 301 301 302 302 302 301 301 301 300 300 300 299 298 294 290 289 289 288 288 288 287 287 287 287 287 287 286 286 285 285 285
307 306 307 305 305 306 305 304 303 301 301 300 300 300 301 300 300 301 300 300 299 298 298 296 294 290 288 288 288 288 288 288 287 287 287 287 287 287 286 286 286 285 285

GFSMW_850_thetae_096.txt.gz
Theta_e
322 322 323 324 322 332 334 332 334 333 336 337 337 337 339 338 338 339 337 336 334 333 332 333 331 329 328 327 326 323 322 322 322 323 323 323 324 324 324 325 325 325 325
322 323 323 321 321 331 330 331 331 332 335 333 335 335 335 336 337 336 336 336 333 333 333 333 333 332 330 329 328 327 327 326 325 325 326 327 328 327 326 326 326 326 325
321 323 324 322 321 326 332 333 331 329 330 332 331 333 333 333 333 333 333 334 333 334 334 333 332 331 330 329 329 329 329 329 329 328 328 328 329 328 327 326 326 325 325
322 323 323 323 321 321 330 330 330 329 323 323 327 327 328 328 329 329 329 331 332 333 333 333 332 331 330 329 329 329 330 330 330 330 330 329 329 328 327 327 327 326 325
319 321 323 321 321 321 321 326 326 327 328 323 324 324 326 326 325 326 328 329 329 329 329 330 330 330 332 331 330 330 331 330 330 330 330 330 330 330 327 326 327 326 325
317 318 321 320 321 321 322 323 323 324 324 325 325 323 322 325 326 326 325 328 328 327 328 326 324 326 328 329 330 329 331 331 330 330 330 330 330 330 329 327 326 326 325
317 316 316 318 317 318 317 322 324 324 324 323 324 325 324 324 326 326 327 329 327 328 328 327 328 327 327 328 330 331 330 331 330 329 329 329 330 330 328 327 326 324 324
317 316 316 316 316 316 316 316 317 318 317 325 325 326 327 325 325 326 326 327 326 327 326 326 328 329 330 330 330 331 331 330 329 328 329 329 329 328 324 323 324 322 323
314 315 315 315 315 315 315 316 316 316 317 320 324 325 324 324 324 325 325 325 325 324 324 322 321 320 321 323 324 324 324 324 325 327 329 329 327 324 323 321 321 320 319
311 311 313 314 315 315 315 315 315 316 316 318 322 324 325 324 325 326 325 327 325 321 318 317 317 316 316 316 316 316 316 318 319 330 330 328 326 324 321 319 317 316 316
312 311 312 312 313 314 314 315 315 316 318 321 323 326 326 327 326 323 319 317 317 316 314 313 313 312 312 312 312 313 313 315 321 325 327 327 325 324 320 318 317 316 314
311 310 311 312 313 313 314 314 315 316 316 317 316 316 315 315 315 314 314 313 312 312 312 311 311 311 311 311 311 311 312 317 324 320 324 324 323 322 319 318 316 314 313
310 309 309 310 311 312 313 313 313 313 313 313 312 312 312 311 311 311 311 311 311 311 311 311 311 311 312 312 312 313 314 321 320 322 321 322 320 319 318 315 313 312 311
310 309 309 310 311 311 311 311 311 311 311 311 311 311 311 312 312 312 312 311 311 311 311 311 311 311 311 311 312 312 316 315 317 318 317 317 317 315 313 311 310 309 309
310 310 310 310 311 311 311 311 311 311 311 311 312 312 311 311 311 311 311 310 310 310 309 309 308 308 308 308 308 310 312 314 314 315 314 313 311 310 309 309 308 308 307
311 311 311 312 312 311 311 311 311 311 311 311 311 311 311 311 310 310 309 309 309 308 307 307 307 307 307 306 307 307 308 308 309 309 309 309 308 308 307 307 306 306 305
312 313 313 313 312 312 311 311 311 311 311 311 311 311 310 310 309 309 308 308 307 307 307 306 306 306 306 306 307 307 307 307 307 307 306 306 306 306 306 305 305 304 302
313 313 314 314 313 312 312 311 311 310 310 310 310 309 309 309 308 308 308 307 307 307 306 306 306 306 306 306 306 306 306 306 305 305 305 305 304 304 303 301 296 292 291
313 313 314 314 313 313 313 312 311 310 310 309 309 309 309 308 308 308 307 306 306 306 306 305 305 305 304 305 305 305 305 304 303 303 302 302 301 298 291 290 290 290 289
310 309 309 309 309 309 312 312 311 310 310 309 309 308 308 308 307 307 307 306 305 305 306 305 304 303 303 303 303 303 302 302 301 301 299 293 290 290 289 289 289 289 288
311 311 312 312 312 311 310 310 311 310 309 308 308 307 307 307 306 306 306 306 305 304 304 304 303 302 302 301 300 300 300 300 297 292 290 289 289 288 288 289 288 288 287
311 311 310 310 311 310 309 308 309 308 307 307 307 306 306 305 305 305 305 305 304 303 303 303 302 301 300 300 300 296 292 290 289 289 289 289 288 288 288 288 288 287 286
310 310 310 307 308 308 307 307 307 306 306 306 306 306 305 304 304 305 304 304 303 302 302 301 301 300 299 297 294 290 289 288 288 288 288 288 288 288 288 288 287 287 286
309 309 309 308 305 306 307 307 307 307 307 306 305 304 303 303 303 303 303 303 302 302 301 301 300 299 296 293 290 289 288 288 287 288 288 288 288 288 287 287 287 286 286
307 307 309 309 308 306 306 307 307 307 307 305 303 303 302 302 302 302 302 302 302 301 300 300 299 298 296 293 289 289 288 288 287 287 287 288 288 288 288 287 287 286 286
307 307 307 307 306 307 306 306 305 304 304 303 302 301 301 301 301 301 301 301 300 299 299 299 298 297 294 290 288 288 288 288 288 287 287 287 288 288 287 287 287 286 286

GFSMW_850_thetae_099.txt.gz
Theta_e
322 324 325 326 326 327 336 337 338 336 336 337 339 339 337 337 339 337 338 337 335 334 331 332 330 329 329 329 328 325 325 321 322 324 323 323 323 324 324 324 325 326 325
322 323 323 324 326 327 335 337 337 334 334 336 336 335 336 337 338 339 339 338 337 335 334 333 333 331 329 328 328 327 325 323 323 323 327 328 329 328 327 327 326 326 326
322 322 323 323 324 327 331 336 336 332 333 335 337 335 335 336 337 337 337 337 337 336 333 333 334 334 333 331 330 329 327 327 327 327 327 329 329 330 329 327 327 326 325
322 322 323 323 323 322 326 332 331 331 331 332 334 332 331 331 332 332 332 333 333 334 333 334 334 333 332 331 331 331 330 329 329 329 329 329 329 329 330 328 327 326 326
322 322 322 324 322 322 322 327 330 331 329 326 324 330 328 328 327 327 329 328 328 329 330 332 331 332 332 332 331 330 330 330 330 330 329 329 330 329 329 328 328 327 327
321 321 323 323 322 322 322 322 328 329 329 326 323 324 327 325 325 325 325 326 327 328 328 327 328 328 329 328 327 327 328 328 328 328 329 330 330 329 329 328 329 328 326
320 321 322 322 321 322 322 321 321 324 325 325 325 326 324 323 324 325 324 324 325 326 327 326 325 325 325 325 327 323 324 327 329 330 328 329 330 329 329 329 328 326 325
319 319 319 321 321 321 320 320 321 320 322 323 325 324 324 324 325 322 322 322 324 325 328 328 324 325 324 324 325 327 327 327 327 328 330 330 329 329 329 329 328 324 322
318 319 319 318 321 319 319 319 320 317 322 327 324 324 324 326 325 325 326 326 325 323 324 325 323 324 326 327 325 325 325 328 330 330 330 330 329 329 329 329 324 322 321
317 318 319 318 317 317 317 316 316 315 316 316 317 323 326 326 326 325 326 326 326 326 326 326 326 327 325 324 321 320 321 321 320 321 326 327 326 326 328 325 324 320 318
314 314 316 317 315 315 315 315 315 315 315 317 320 324 326 326 326 326 326 326 325 325 326 324 320 317 316 314 314 313 313 313 314 314 327 319 324 326 326 325 323 319 317
314 313 314 314 314 313 314 314 314 315 316 318 320 322 324 325 325 325 324 322 319 316 315 314 313 312 311 311 311 311 311 311 313 316 324 321 323 324 322 322 320 319 317
313 312 313 313 313 313 312 313 313 314 315 316 316 316 316 315 314 314 313 313 312 312 312 311 311 311 311 312 312 312 312 313 313 317 321 322 320 323 322 320 319 317 315
312 312 312 312 312 312 312 312 313 313 313 312 312 312 311 311 311 311 312 312 311 311 311 311 311 311 311 311 311 311 312 313 313 318 319 318 319 318 319 318 316 314 312
312 312 312 312 311 311 310 310 311 311 311 311 311 311 311 311 311 311 311 311 310 310 310 309 309 309 309 309 309 309 310 312 313 314 314 316 317 316 315 313 311 310 309
313 312 311 311 310 310 310 311 311 311 311 311 311 311 311 311 311 311 310 310 309 309 308 308 308 307 307 307 307 306 306 308 310 310 311 311 312 311 310 309 308 308 307
313 313 312 311 311 310 310 311 311 311 311 311 311 311 311 310 310 310 309 309 309 308 308 307 307 307 307 306 306 306 306 306 307 307 307 307 307 307 307 307 306 306 305
314 314 313 312 312 312 311 311 311 311 311 311 311 310 310 310 310 309 309 308 308 307 307 306 306 306 306 306 306 306 306 306 306 306 306 306 305 305 305 304 304 304 302
314 314 314 313 312 312 312 312 312 311 310 310 310 310 310 310 310 309 308 308 307 307 306 306 305 305 306 305 305 305 306 305 305 305 304 304 304 303 303 300 295 292 290
312 312 312 311 311 311 312 312 312 311 311 310 309 309 309 309 309 308 308 307 307 307 306 306 305 305 305 304 304 304 304 304 303 303 303 302 301 299 293 290 290 289 289
311 311 311 311 311 311 310 309 310 310 310 309 309 309 308 308 307 307 307 307 306 306 306 305 304 304 303 303 303 302 301 302 302 301 301 297 291 289 289 289 289 289 288
311 311 311 311 310 311 311 310 309 309 309 309 308 307 307 307 306 306 306 306 306 305 305 304 304 303 303 302 301 300 299 300 299 296 292 289 288 288 288 288 288 288 288
310 310 310 310 309 309 309 308 308 308 308 307 307 307 306 306 305 305 305 305 305 305 304 303 303 302 301 300 300 299 296 292 289 289 288 288 288 288 288 288 288 287 287
308 309 310 310 308 306 307 307 307 307 306 306 306 306 306 305 304 303 304 304 304 304 303 302 302 301 300 299 296 294 290 289 288 288 287 287 288 288 288 288 287 287 287
308 308 308 309 309 308 305 305 306 307 307 307 306 306 304 303 304 303 302 303 303 303 302 301 300 300 300 299 295 291 289 288 288 287 287 287 287 288 288 288 288 287 287
307 307 306 306 307 306 307 307 307 306 306 305 304 303 303 302 301 301 301 301 301 301 301 300 300 299 299 298 295 290 288 288 287 287 287 287 287 288 288 288 288 288 288

GFSMW_850_thetae_102.txt.gz
Theta_e
324 326 326 326 331 334 335 336 335 337 338 339 338 336 336 338 338 338 336 335 334 331 328 327 329 328 327 326 326 326 324 322 323 325 322 321 322 323 323 323 324 325 325
322 325 326 326 329 331 333 335 336 335 336 337 338 337 336 337 337 339 338 336 335 334 333 331 331 330 328 327 329 328 327 324 323 322 323 326 326 327 327 327 326 326 326
320 325 325 325 326 331 335 337 337 336 333 336 336 337 337 338 337 337 337 336 337 336 335 334 333 332 332 330 329 329 328 326 326 325 325 328 328 329 330 329 327 326 326
321 322 324 323 324 326 334 336 337 335 332 333 334 334 335 336 335 336 336 335 337 336 336 335 334 333 333 332 332 331 330 329 328 328 328 327 328 330 329 328 327 327 327
322 322 323 323 323 323 327 334 334 331 331 331 333 333 331 331 329 329 331 331 332 331 331 332 334 333 333 331 330 331 331 330 329 329 329 328 327 328 328 329 328 327 326
321 322 322 323 322 322 324 331 331 330 331 329 327 325 325 328 328 327 328 330 329 328 329 329 330 330 330 330 329 328 328 327 326 326 328 327 327 326 328 328 328 328 328
319 320 321 323 322 321 322 324 329 330 330 328 325 325 325 323 323 324 326 326 327 327 327 328 326 326 326 324 325 325 325 324 323 322 324 325 328 328 329 329 328 328 327
318 319 321 324 322 322 322 322 321 322 324 325 323 323 322 323 321 322 323 323 322 324 325 326 325 324 323 323 322 323 323 323 323 326 326 327 327 327 329 329 327 326 326
318 319 321 321 322 321 322 322 322 321 321 321 324 324 323 323 324 324 324 323 323 321 321 322 321 320 322 321 322 325 323 322 324 325 328 329 329 329 331 327 326 326 325
317 318 319 319 321 321 320 319 319 320 322 320 320 322 324 324 324 324 324 325 324 325 323 323 323 323 324 325 325 325 326 326 325 325 327 330 326 326 326 325 325 324 325
317 318 319 319 318 317 318 318 319 319 320 319 318 322 324 325 325 326 325 325 325 325 325 326 326 326 326 327 326 325 322 319 316 315 314 319 320 323 326 323 326 324 324
314 316 317 318 317 317 316 317 316 316 316 316 317 317 321 324 324 325 326 326 325 325 324 322 321 318 316 314 314 313 312 311 311 311 311 313 314 321 323 322 320 319 323
314 313 314 315 315 315 315 315 315 315 315 315 317 319 320 321 320 319 319 318 316 314 314 313 312 312 312 311 311 311 311 311 311 312 313 312 321 319 317 320 320 321 321
313 313 314 314 314 313 313 313 313 313 314 315 316 316 315 315 314 313 312 312 311 311 311 311 311 311 311 311 311 311 311 311 311 312 313 316 317 318 318 320 319 318 317
312 312 312 313 313 312 312 312 312 313 313 312 312 311 311 311 311 311 311 311 311 311 311 311 310 310 310 310 309 309 309 309 310 311 312 314 316 316 316 316 317 316 314
312 312 312 312 312 311 311 311 311 311 311 311 311 311 311 311 311 311 311 311 311 310 310 309 309 308 308 308 308 307 307 307 307 308 310 311 312 312 314 314 313 311 309
312 312 311 311 311 310 310 310 310 310 310 311 311 311 311 311 311 311 310 310 309 309 309 308 308 308 307 306 306 306 305 305 305 306 308 308 309 309 309 309 309 308 307
313 313 312 311 311 311 311 310 310 310 311 311 311 311 310 310 310 310 309 309 309 308 308 307 307 306 306 306 306 305 305 305 305 305 306 306 306 306 306 305 306 306 306
314 314 313 313 312 311 311 311 311 310 310 310 310 310 310 310 310 310 309 309 308 308 308 307 306 306 305 305 305 305 305 305 305 304 305 304 304 304 304 304 304 304 303
314 314 314 313 312 312 312 311 311 311 310 310 310 310 309 309 309 309 309 308 309 308 307 307 306 305 305 305 304 304 304 304 304 303 303 303 303 303 302 301 297 292 290
310 310 310 310 309 310 310 310 310 310 310 309 309 309 309 308 308 308 308 308 307 307 307 307 306 305 304 304 304 303 303 302 301 301 302 302 301 299 295 291 289 289 289
310 310 310 310 310 310 310 309 308 307 308 308 308 307 307 308 307 307 307 307 307 306 306 306 305 304 304 303 303 302 301 300 300 300 299 298 293 289 289 288 289 289 288
309 309 309 310 309 309 308 308 308 307 307 306 307 307 307 306 306 306 306 306 305 305 305 305 304 304 303 303 302 301 300 299 298 297 293 289 289 288 288 288 288 288 288
308 308 308 309 309 308 306 307 307 306 306 306 306 306 306 306 306 305 305 304 304 304 304 303 303 303 302 302 301 299 299 297 293 289 288 288 288 288 288 288 288 288 287
307 307 307 307 307 307 308 306 305 306 306 306 307 307 307 306 305 304 303 303 303 302 302 302 301 301 301 301 300 299 297 293 289 288 287 287 287 287 288 288 288 287 288
306 306 306 305 306 306 306 306 307 307 307 307 306 306 305 304 304 304 302 301 301 301 301 301 301 301 300 299 298 298 294 289 288 288 287 287 287 287 287 288 288 288 288

GFSMW_850_thetae_105.txt.gz
Theta_e
326 331 336 335 335 336 337 338 337 337 338 339 339 340 339 337 337 336 336 335 334 332 329 325 326 328 327 328 328 327 326 325 325 325 322 322 320 320 322 323 323 324 325
329 331 331 334 336 334 331 333 336 338 337 337 340 339 339 338 336 336 337 336 335 333 330 328 326 326 327 326 325 325 327 325 324 323 323 323 324 324 324 326 326 325 326
325 327 327 326 328 332 332 330 331 333 336 338 336 336 336 336 335 337 337 337 335 334 333 333 329 330 330 329 327 326 327 327 325 323 323 326 326 327 327 328 329 327 327
320 326 325 326 325 326 334 334 334 334 333 335 336 336 336 336 336 335 335 332 335 335 335 333 333 333 333 332 331 330 329 329 329 327 326 326 326 327 328 328 329 327 327
319 324 326 326 326 325 326 335 334 336 335 333 335 335 335 335 335 335 336 337 336 334 336 336 334 332 333 333 331 330 331 331 330 330 329 329 329 328 328 327 327 328 327
320 324 325 325 324 325 326 327 331 332 332 333 333 333 333 333 333 331 332 332 334 334 333 332 332 329 333 333 332 330 331 331 329 328 327 325 327 326 327 326 327 328 327
319 322 323 323 323 323 326 330 334 332 331 331 330 331 331 329 329 329 328 328 329 329 328 330 330 330 329 330 329 327 325 326 326 324 324 323 323 324 324 327 327 328 327
318 321 323 323 322 322 323 327 329 330 330 330 327 324 324 322 323 325 322 323 325 325 323 324 326 326 327 327 325 324 324 324 324 324 324 323 324 324 324 327 327 328 327
318 320 322 322 322 321 321 323 327 329 330 329 324 323 323 323 322 322 322 322 322 322 321 322 323 326 321 321 322 323 322 322 322 323 324 324 324 324 326 328 328 327 326
317 318 321 323 323 323 322 322 323 323 323 323 323 323 323 323 323 324 324 323 321 323 323 321 321 320 320 320 321 321 321 322 323 325 326 326 323 321 323 325 326 326 326
317 317 321 321 320 320 321 321 320 320 321 322 322 321 321 322 324 324 324 322 321 322 323 322 324 323 323 323 323 324 324 324 325 326 325 322 317 315 320 323 320 322 322
316 317 319 319 320 320 320 319 318 319 320 321 320 319 318 319 319 321 324 324 324 324 324 324 324 325 325 325 326 326 325 323 319 315 313 312 311 311 313 315 320 322 319
315 317 318 318 318 318 318 318 318 318 318 318 317 316 316 315 318 321 324 325 325 325 324 323 322 320 318 317 315 313 312 311 311 311 311 311 311 312 312 315 319 321 320
313 315 317 317 317 316 316 316 316 316 315 315 315 315 316 319 319 319 319 317 315 314 314 313 312 311 311 311 311 311 311 311 311 311 311 311 312 312 315 318 317 317 318
313 313 314 314 314 314 314 314 314 314 314 314 315 316 317 317 315 314 311 311 311 311 311 311 311 311 310 310 310 310 309 309 309 309 310 310 311 312 314 316 317 317 317
312 312 312 313 313 313 312 312 312 313 313 314 314 313 312 311 311 311 310 310 310 310 310 310 309 309 308 308 308 307 307 307 307 307 307 307 309 311 313 314 315 315 314
312 312 312 312 312 312 312 312 311 311 311 311 311 310 310 310 310 310 310 310 310 309 309 309 308 308 308 307 307 306 306 305 305 305 305 306 307 308 310 310 312 312 311
312 311 311 311 311 310 310 310 310 310 310 310 310 310 310 310 310 310 310 310 309 309 309 309 309 308 308 307 306 306 305 305 305 304 305 305 306 307 307 307 307 307 307
312 312 312 311 311 311 310 310 310 310 310 310 310 310 310 310 310 310 310 310 310 309 310 310 309 308 307 306 306 305 305 305 304 304 304 304 305 305 305 305 305 305 305
313 313 313 312 311 311 310 310 310 310 310 310 309 309 309 309 309 309 309 309 309 309 309 308 307 307 306 306 305 305 304 304 304 304 303 303 303 303 303 303 303 302 301
312 312 312 312 312 311 311 310 310 311 310 309 309 309 309 309 309 308 308 308 308 308 308 308 307 306 306 305 305 304 303 303 302 302 302 302 301 302 302 301 299 294 291
310 310 310 310 310 309 309 309 309 309 309 309 308 308 308 308 308 308 308 307 307 307 307 306 306 305 305 304 303 303 303 302 301 301 300 300 300 298 296 294 290 288 288
309 309 309 310 310 309 309 309 308 308 307 307 307 307 307 306 306 306 306 306 306 306 305 305 305 305 303 303 303 302 302 302 300 299 299 298 296 291 289 287 287 288 287
308 308 308 309 309 309 308 307 307 306 306 306 306 306 306 306 305 305 305 305 304 304 303 303 304 303 302 302 302 301 301 300 299 298 296 291 289 288 287 287 287 287 287
307 307 307 307 307 307 308 306 306 306 306 306 306 305 306 306 305 305 304 304 303 302 302 302 302 302 301 301 300 300 299 299 297 292 289 288 288 288 287 287 287 287 287
305 305 305 305 305 306 306 305 306 306 306 306 306 306 306 305 304 303 304 303 302 301 301 301 300 300 300 300 300 299 298 298 293 289 288 288 287 287 287 287 288 287 287

GFSMW_850_thetae_108.txt.gz
Theta_e
320 328 330 334 336 337 338 338 338 338 339 339 338 336 337 336 335 335 335 333 332 332 331 333 332 333 333 331 331 332 331 329 326 325 326 325 322 320 319 320 320 322 323
320 325 331 330 335 336 337 337 337 337 338 338 339 337 336 336 336 336 335 331 331 330 329 330 330 330 330 329 329 330 328 327 325 326 325 324 322 321 322 323 324 324 324
319 326 330 330 330 335 336 336 336 336 337 338 338 335 328 330 336 335 335 334 333 333 333 331 328 327 328 327 326 325 325 325 326 325 324 323 323 326 326 326 327 328 327
318 322 328 329 327 328 331 333 334 332 328 336 331 332 333 334 335 335 335 335 334 334 334 332 330 330 329 329 329 329 328 328 328 327 325 323 326 328 328 328 328 328 328
319 325 326 328 326 326 324 326 331 333 333 333 335 335 334 334 334 334 333 334 335 335 333 333 330 332 331 332 331 330 330 329 330 328 328 327 326 327 327 327 326 327 327
318 318 326 326 325 325 327 326 329 333 334 333 333 335 334 334 334 333 334 334 335 334 331 332 330 333 331 332 331 330 329 330 328 329 328 329 329 328 328 327 327 326 327
318 323 326 325 325 325 326 325 327 327 330 331 333 333 334 333 333 333 332 332 332 332 332 331 331 333 332 331 329 331 330 331 331 331 329 328 326 324 323 323 324 326 327
318 323 326 326 325 325 324 324 327 328 330 331 331 332 332 331 328 328 329 328 328 327 329 326 326 330 329 329 330 329 327 325 325 326 325 324 324 323 324 323 323 325 327
317 322 325 325 324 323 323 324 324 326 330 331 330 329 325 323 322 324 323 322 323 324 323 322 322 323 323 325 323 324 322 324 325 325 324 324 322 323 323 323 324 324 325
316 320 323 323 323 323 323 324 324 325 326 329 329 326 324 324 321 322 322 322 323 323 323 323 322 322 322 324 321 321 322 321 322 322 322 322 324 324 324 325 323 321 322
315 317 321 323 323 322 322 322 322 324 326 328 328 324 322 322 322 323 324 324 324 323 323 323 323 323 322 320 320 320 321 322 323 323 325 325 325 325 324 319 320 320 324
315 315 319 321 321 322 321 321 322 323 325 324 326 324 323 323 322 322 320 320 323 323 322 323 322 323 323 323 323 323 323 324 324 325 324 320 316 314 312 311 312 313 319
314 314 318 321 322 321 321 321 321 321 320 321 321 321 320 321 318 319 316 317 320 321 324 324 324 324 324 324 325 324 323 320 316 314 312 311 311 311 311 312 312 315 314
314 314 318 321 321 320 320 320 319 318 319 319 319 319 318 316 316 317 319 321 323 323 324 324 322 319 316 314 313 312 311 311 311 311 311 311 311 311 311 312 313 312 317
314 315 317 319 319 319 318 318 318 318 317 316 315 315 315 316 317 318 318 317 316 315 314 313 311 311 311 311 310 310 310 309 309 309 309 309 309 309 310 311 312 315 315
313 314 315 315 315 316 316 315 315 315 314 314 314 314 315 316 315 314 311 311 311 311 311 310 310 310 309 309 309 308 308 307 307 306 305 305 305 306 307 309 311 313 313
312 312 313 313 313 313 313 312 312 312 313 313 313 313 313 312 311 310 310 310 310 310 310 310 309 309 308 308 308 307 307 306 306 305 305 304 304 305 305 307 308 310 311
311 312 312 312 312 311 311 311 311 311 311 311 311 311 310 310 310 310 310 310 310 310 309 309 308 309 308 308 307 306 306 306 305 305 305 304 304 304 305 306 307 308 308
312 311 311 311 311 310 310 310 310 310 310 310 310 310 310 310 310 310 310 310 310 309 308 308 309 309 308 308 307 306 306 305 305 305 304 304 304 304 304 304 304 305 305
313 312 312 311 311 310 310 310 309 309 310 310 310 310 309 309 309 309 309 309 309 308 308 309 309 309 308 307 308 307 306 305 304 304 303 303 303 303 303 303 302 302 302
312 313 312 312 311 311 310 310 310 310 309 309 309 309 309 309 309 308 308 308 308 308 308 308 308 308 307 307 306 306 305 304 304 303 302 302 302 302 302 302 300 298 297
309 309 310 310 310 310 310 310 309 309 309 309 308 308 308 308 308 308 307 307 307 307 307 307 307 306 306 306 305 304 304 303 302 302 301 300 300 300 300 299 297 296 292
309 309 309 309 309 309 309 309 309 308 308 308 307 307 307 307 307 307 306 306 306 306 306 306 306 306 305 305 304 303 303 303 302 301 301 299 299 299 295 292 288 288 288
308 308 308 309 309 309 308 308 308 307 307 307 306 306 306 306 306 306 306 306 307 306 306 305 305 304 304 303 303 302 302 302 301 301 299 298 297 294 289 288 287 287 287
306 306 307 307 307 307 308 307 306 306 306 306 306 305 305 305 306 306 307 306 305 305 305 304 302 301 302 302 301 300 301 300 299 298 297 296 292 290 288 288 287 287 287
306 305 305 305 305 306 306 306 306 307 307 307 306 306 306 306 306 306 305 304 304 303 302 302 301 301 301 300 300 300 300 300 298 297 297 294 292 288 288 287 287 287 287

GFSMW_850_thetae_111.txt.gz
Theta_e
318 322 325 331 333 335 337 340 339 339 338 338 338 336 334 334 334 333 333 331 330 329 329 330 331 330 329 329 331 331 330 330 330 329 326 324 324 323 322 322 321 320 320
317 321 324 330 331 333 333 333 338 337 337 338 338 336 335 336 335 334 335 334 333 332 331 330 331 331 330 331 332 331 331 331 331 329 326 325 322 320 319 320 319 321 322
318 321 323 329 331 331 333 333 337 336 336 337 338 336 337 335 335 335 335 334 334 333 332 330 330 331 332 331 330 328 329 330 329 325 325 324 322 323 323 322 322 324 325
318 320 320 329 329 332 334 335 336 337 337 335 336 337 336 335 333 335 334 333 332 332 332 332 332 330 328 327 329 328 327 328 327 327 325 326 325 328 327 327 327 327 327
319 319 319 328 330 332 331 336 336 336 336 335 335 336 334 330 327 327 328 334 330 328 331 332 331 330 330 330 328 329 329 329 329 329 326 326 326 324 324 326 327 327 326
320 319 319 328 329 331 328 327 331 333 326 329 329 327 328 329 328 330 330 331 330 330 332 331 330 330 329 330 331 330 328 328 330 329 329 328 327 326 326 327 328 328 327
320 318 318 327 327 331 327 325 326 327 330 329 331 331 331 332 332 332 332 332 332 332 332 332 331 330 330 330 331 330 328 329 330 329 329 328 329 328 328 325 323 322 322
319 317 316 325 327 329 325 324 324 325 328 330 329 330 330 330 330 330 330 331 331 331 331 331 331 331 329 329 330 330 330 330 328 328 328 327 326 325 324 324 323 323 324
317 316 319 322 326 326 324 324 323 324 325 327 328 330 330 330 329 327 328 327 326 326 328 322 322 323 323 324 323 324 325 326 324 324 325 325 325 324 323 323 323 323 323
315 319 321 324 326 325 324 323 323 323 324 324 326 330 329 325 322 325 325 322 322 323 324 322 322 321 322 323 325 323 321 322 321 322 322 322 322 323 322 324 323 323 323
316 317 322 325 326 325 323 323 323 324 324 324 326 329 324 323 321 321 321 322 322 323 323 323 322 322 323 322 321 321 320 320 321 322 323 323 323 323 324 325 324 322 324
315 316 318 323 324 323 323 322 322 321 323 325 328 326 323 323 322 322 323 323 323 323 323 323 322 322 323 323 323 323 323 323 323 323 324 323 322 318 314 313 312 311 312
313 314 317 320 322 322 322 322 321 322 324 326 327 325 323 323 323 323 322 322 320 320 320 323 324 324 324 323 323 322 323 323 320 315 312 311 311 311 311 311 311 311 312
313 313 315 319 322 321 321 321 321 322 322 323 323 324 323 321 320 320 317 317 318 320 321 323 323 322 321 320 318 316 313 311 310 310 309 309 309 309 309 309 310 311 314
314 313 314 318 320 320 320 320 320 320 320 319 319 320 320 319 318 316 316 318 319 319 319 317 314 312 311 311 311 310 310 309 308 308 307 307 307 306 306 307 308 309 310
313 314 315 318 319 320 320 320 319 318 318 318 317 316 315 315 315 316 317 316 314 312 311 311 310 310 310 310 309 309 309 309 308 308 307 306 305 304 304 304 305 306 308
312 313 314 315 316 316 317 316 316 315 315 315 314 314 314 315 315 314 312 311 310 310 310 310 310 310 309 309 309 309 309 308 307 306 306 305 304 304 304 304 304 305 306
312 312 312 312 312 312 312 312 312 312 312 312 313 313 313 312 311 310 310 310 310 310 310 309 309 308 309 309 309 309 308 307 307 306 305 305 304 304 304 304 304 305 306
311 311 311 311 311 311 311 311 311 311 311 311 311 311 310 310 310 310 310 310 310 309 309 309 309 309 309 309 309 308 308 307 307 306 305 304 304 303 303 303 303 304 304
311 311 310 311 310 310 310 310 309 309 309 309 309 309 309 309 309 309 309 309 309 309 309 309 308 308 308 309 309 308 307 306 306 305 304 304 303 302 302 302 302 302 302
312 312 311 311 310 310 310 309 309 309 309 309 309 309 309 309 308 308 308 308 308 308 308 308 308 308 308 308 307 307 306 305 304 304 303 301 300 301 301 301 301 300 300
310 311 311 312 311 311 310 310 310 309 309 308 308 308 308 308 308 308 308 308 308 308 308 308 308 307 307 306 306 305 305 304 303 303 302 301 301 301 300 300 299 298 297
309 309 309 309 309 309 309 309 309 309 309 308 308 308 307 307 307 307 307 307 307 306 306 306 306 306 306 305 305 304 304 303 303 302 302 301 301 300 299 298 296 290 288
308 308 308 309 309 309 308 308 308 308 308 308 307 307 306 306 306 306 306 306 306 305 306 306 305 305 305 304 303 303 303 302 302 301 300 300 300 299 298 297 292 288 287
307 307 307 307 307 307 308 308 307 307 307 307 306 306 306 305 305 305 305 305 305 306 305 304 304 304 303 302 302 302 302 301 301 300 299 299 299 298 297 293 288 287 287
307 306 306 306 305 305 306 306 306 306 306 306 305 305 305 304 304 305 306 306 305 305 304 304 302 302 302 302 301 301 301 300 300 299 299 298 299 297 295 292 288 287 287

GFSMW_850_thetae_114.txt.gz
Theta_e
313 315 318 326 333 335 334 336 336 335 336 337 337 336 335 331 328 325 326 327 329 329 325 323 317 317 317 318 321 326 328 328 328 329 328 326 325 323 322 322 320 320 320
315 316 319 324 331 329 334 333 337 336 336 335 335 336 335 332 332 327 327 331 330 329 329 329 326 326 327 328 329 331 331 329 330 330 330 328 321 320 321 321 322 321 321
316 316 320 323 331 330 334 334 329 334 336 336 336 337 336 333 332 332 332 332 332 331 330 330 330 332 332 331 331 331 330 329 330 330 331 326 323 321 321 321 320 321 320
316 318 320 324 330 331 330 331 332 333 338 336 337 337 336 334 333 334 333 334 334 333 333 332 332 332 332 331 330 331 330 326 326 328 327 326 326 325 325 325 325 325 324
316 318 319 322 328 330 332 332 332 331 334 337 336 336 335 335 336 336 335 333 333 333 332 332 333 332 331 330 329 329 327 327 329 329 328 327 328 328 326 324 325 327 327
317 319 320 322 328 331 331 331 331 330 331 336 333 335 334 331 333 333 333 332 331 330 329 327 328 328 330 329 329 328 326 328 329 329 328 329 329 328 327 326 325 325 327
317 321 322 320 325 330 327 325 329 326 330 327 330 331 325 324 324 329 330 328 329 329 329 330 329 329 330 329 328 328 330 330 329 329 328 329 329 329 329 327 327 327 325
319 322 322 318 317 329 327 324 323 322 325 327 328 328 327 328 329 328 327 326 328 327 327 326 327 331 330 330 330 330 331 330 328 329 327 326 326 326 326 324 323 324 323
321 320 323 316 316 327 327 326 324 324 325 326 327 328 328 329 330 329 329 329 328 329 330 331 331 331 330 328 326 325 324 324 325 322 322 324 325 324 324 324 322 322 323
319 319 318 318 318 327 325 324 325 325 325 324 325 327 328 328 329 329 329 328 328 328 328 322 322 322 322 322 323 324 321 321 321 321 322 322 323 323 323 323 324 324 324
318 317 316 320 321 326 325 324 323 323 323 324 324 326 327 324 325 327 325 322 323 323 323 322 322 322 321 322 322 322 321 320 320 321 322 322 323 323 323 323 323 322 320
316 315 318 322 325 326 324 322 322 322 322 324 324 328 324 322 322 322 321 322 323 323 323 323 323 322 322 322 322 322 322 322 323 323 322 322 319 314 312 311 311 311 311
313 314 317 322 324 325 323 321 321 320 321 323 325 326 323 323 322 322 322 323 323 323 323 323 323 323 323 323 323 322 324 322 321 318 312 311 310 310 309 309 309 309 309
311 314 315 318 322 323 323 322 321 320 322 324 326 325 324 322 322 322 322 320 320 318 317 319 321 322 323 323 322 320 316 312 310 310 309 308 308 307 307 307 306 307 307
314 312 313 315 319 320 322 322 322 322 322 323 323 323 324 323 321 320 320 317 316 318 319 320 320 319 317 314 311 310 309 309 309 309 308 308 307 306 306 305 305 304 305
313 314 313 314 317 319 320 321 320 320 319 319 319 319 320 320 319 318 315 316 317 317 315 313 311 310 310 309 309 308 309 309 309 308 308 307 306 306 304 304 304 304 304
312 313 315 315 316 318 318 319 319 319 318 318 317 317 316 315 315 315 315 315 313 311 310 310 310 309 309 308 308 309 309 309 309 308 308 307 306 305 304 304 304 304 304
311 312 312 313 314 315 315 316 315 315 315 315 314 314 314 314 314 314 312 310 310 309 309 309 309 308 308 309 310 309 309 309 308 307 307 306 305 305 304 303 303 303 303
310 311 311 311 312 312 312 312 311 311 311 311 312 312 312 312 312 311 310 310 310 309 309 309 309 308 309 309 309 309 308 307 307 306 306 306 305 304 304 303 303 302 303
310 310 310 310 310 310 310 310 310 310 310 310 310 310 310 309 309 309 309 309 309 308 308 308 308 308 308 309 308 308 307 307 307 306 305 304 303 301 300 300 300 300 301
312 311 311 310 310 310 310 309 309 309 309 308 308 308 308 308 308 308 308 308 308 308 308 308 308 308 308 307 307 307 307 307 306 305 304 303 301 300 300 300 299 300 300
312 312 311 311 311 310 310 310 309 309 309 308 308 308 308 308 308 308 308 307 307 307 307 307 308 307 307 307 307 307 306 306 305 304 303 302 301 301 300 300 299 299 299
309 309 309 309 309 309 309 309 309 308 308 308 308 308 308 307 307 307 307 307 307 307 307 307 306 306 306 306 306 305 305 304 304 303 303 302 301 301 300 299 298 298 296
307 307 308 308 308 309 308 308 308 308 308 308 308 308 307 307 306 306 306 306 306 306 306 306 306 306 305 304 304 303 302 301 301 302 302 301 300 300 299 298 297 295 290
307 306 307 307 307 307 307 307 307 307 307 307 307 306 306 305 306 306 306 306 305 305 305 306 305 305 304 303 303 302 301 300 301 301 301 300 299 299 298 297 296 292 288
307 307 306 305 305 305 305 305 306 306 306 306 306 305 305 305 305 305 305 305 305 306 306 305 305 303 302 302 302 301 301 300 299 299 299 299 298 298 297 297 295 292 288

GFSMW_850_thetae_117.txt.gz
Theta_e
313 313 315 316 319 325 326 337 340 338 337 337 337 336 336 332 332 328 317 315 318 320 320 321 321 320 320 320 321 321 321 322 326 328 327 327 327 325 322 321 320 320 319
313 313 316 316 319 327 325 333 339 336 339 338 337 336 335 334 332 331 330 323 317 317 317 318 319 319 320 319 319 320 324 329 329 329 329 327 324 321 320 321 321 321 321
314 314 316 317 321 330 331 339 338 338 338 336 337 336 336 335 333 329 331 329 328 328 326 323 322 317 317 318 321 327 329 331 330 328 328 329 324 322 324 324 322 322 320
315 316 318 318 324 332 331 326 331 335 334 338 337 337 336 335 331 327 326 327 329 331 331 331 328 327 329 330 330 330 330 328 327 329 328 328 329 328 327 326 326 326 323
316 318 317 318 327 332 329 328 326 326 329 337 336 336 335 335 333 330 324 328 331 332 332 331 332 332 332 332 332 330 329 329 329 327 327 330 329 328 328 328 328 325 326
316 318 318 319 328 331 332 328 327 325 327 331 333 336 335 334 334 331 332 331 332 332 332 333 332 331 330 329 329 327 329 330 329 327 328 329 329 328 329 329 329 327 325
317 318 317 325 329 330 331 332 330 326 328 328 331 328 330 333 334 332 333 333 331 331 331 329 328 327 329 328 328 327 329 329 328 329 329 329 328 327 327 326 326 327 326
318 318 315 324 328 324 326 328 329 330 330 328 327 326 324 324 326 332 332 332 330 331 330 328 327 326 325 326 325 328 328 328 330 329 328 327 326 325 325 325 324 323 323
318 317 316 318 328 324 322 325 324 323 323 324 328 325 325 325 324 323 326 329 327 325 327 324 324 324 325 328 329 329 330 326 324 325 323 323 324 324 323 323 321 322 322
320 317 318 318 328 326 324 323 322 322 323 324 324 327 327 328 327 326 323 323 323 325 323 325 326 325 328 330 328 324 323 322 322 321 321 322 322 323 324 324 323 323 323
316 316 319 320 327 325 325 325 325 323 322 323 325 325 326 327 327 326 326 327 328 328 329 329 326 324 325 323 322 324 322 320 320 320 320 321 321 322 322 321 321 320 321
312 314 319 320 324 325 323 323 324 325 324 324 324 325 325 325 326 328 328 327 326 327 324 322 322 322 322 322 322 322 322 322 321 321 322 321 321 316 312 311 310 310 310
313 314 320 322 325 325 324 324 323 323 323 323 323 325 323 324 325 324 323 322 322 322 323 323 322 322 322 322 322 322 322 321 322 321 320 313 310 309 309 308 308 308 307
311 312 317 322 324 324 323 323 322 321 322 324 325 323 323 322 323 322 322 323 323 323 322 322 322 323 323 323 322 322 322 320 318 312 310 309 308 308 308 307 307 307 306
313 311 313 318 322 323 322 322 321 320 322 324 325 323 323 322 322 322 322 322 321 319 317 318 320 321 321 322 321 319 313 311 309 309 309 309 308 308 308 307 306 305 305
312 313 312 314 318 320 322 322 321 321 321 321 323 323 323 323 322 320 320 319 316 316 319 319 319 318 316 312 311 310 309 309 309 309 309 308 308 307 307 306 305 304 304
311 313 314 314 316 317 319 320 320 320 320 319 319 320 320 320 319 318 316 315 316 317 316 314 311 310 310 309 309 308 309 309 309 308 308 307 307 306 306 305 304 304 303
311 311 312 313 314 316 317 318 318 318 317 317 317 317 317 316 315 315 314 315 314 312 310 310 310 309 309 308 308 309 309 309 308 308 307 307 306 306 306 305 304 303 303
310 310 310 311 311 311 312 313 314 314 314 314 313 313 313 313 314 314 313 311 310 309 309 309 309 308 308 308 309 309 309 308 308 308 307 306 306 305 305 304 303 303 302
310 310 310 310 310 310 310 310 310 311 311 311 311 311 311 311 311 310 309 309 309 309 308 308 308 308 308 308 309 308 308 308 307 307 307 306 305 304 303 301 300 299 299
310 310 310 310 310 309 309 309 309 309 309 309 310 310 309 309 308 308 308 308 308 308 308 308 307 307 308 308 308 307 307 308 308 307 306 305 304 302 301 301 299 299 298
310 310 310 310 310 310 309 309 309 308 308 308 308 308 308 308 308 307 307 307 307 307 307 307 307 308 308 308 307 307 308 307 306 306 305 304 303 302 301 301 300 299 298
308 308 308 308 308 308 308 308 308 308 308 308 308 308 308 307 307 307 307 307 307 307 308 308 307 307 307 306 306 306 306 305 304 303 303 302 302 302 300 300 299 298 298
307 307 307 308 308 308 308 307 307 308 308 307 307 307 307 307 306 306 306 306 306 306 306 306 306 305 306 305 305 304 303 302 301 300 300 301 301 300 299 299 298 298 297
306 306 306 306 307 307 307 307 307 307 306 306 306 306 306 305 305 305 305 305 305 305 305 305 305 305 304 304 303 302 302 301 300 300 301 300 300 299 298 298 297 297 295
306 306 306 307 306 305 305 304 305 305 305 306 306 305 305 305 305 305 304 304 304 304 304 304 305 304 304 304 303 302 301 301 300 299 298 298 298 298 298 298 297 297 296